[[{"header":{"parameterUnit":"m.s-1","parameterCategory":1,"la1":30.6,"la2":28.766,"lo1":-90.7593,"lo2":-88.6598,"dy":0.0162,"dx":0.0183,"nx":116,"ny":114,"refTime":"2023-11-02T00:00:00:Z","depth":0,"parameterNumber":2,"parameterNumberName":"U-component_of_WINDS"},"data":[0.0,0.0,0.0,0.0,0.0,0.0,0.0,0.0,0.0,0.0,0.0,0.0,0.0,0.0,0.0,0.0,0.0,0.0,0.0,0.0,0.0,0.0,0.0,0.0,0.0,0.0,0.0,0.0,0.0,0.0,0.0,0.0,0.0,0.0,0.0,0.0,0.0,0.0,0.0,0.0,0.0,0.0,0.0,0.0,0.0,0.0,0.0,0.0,0.0,0.0,0.0,0.0,0.0,0.0,0.0,0.0,0.0,0.0,0.0,0.0,0.0,0.0,0.0,0.0,0.0,0.0,0.0,0.0,0.0,0.0,0.0,0.0,0.0,0.0,0.0,0.0,0.0,0.0,0.0,0.0,0.0,0.0,0.0,0.0,0.0,0.0,0.0,0.0,0.0,0.0,0.0,0.0,0.0,0.0,0.0,0.0,0.0,0.0,0.0,0.0,0.0,0.0,0.0,0.0,0.0,0.0,0.0,0.0,0.0,0.0,0.0,0.0,0.0,0.0,0.0,0.0,0.0,0.0,0.0,0.0,0.0,0.0,0.0,0.0,0.0,0.0,0.0,0.0,0.0,0.0,0.0,0.0,0.0,0.0,0.0,0.0,0.0,0.0,0.0,0.0,0.0,0.0,0.0,0.0,0.0,0.0,0.0,0.0,0.0,0.0,0.0,0.0,0.0,0.0,0.0,0.0,0.0,0.0,0.0,0.0,0.0,0.0,0.0,0.0,0.0,0.0,0.0,0.0,0.0,0.0,0.0,0.0,0.0,0.0,0.0,0.0,0.0,0.0,0.0,0.0,0.0,0.0,0.0,0.0,0.0,0.0,0.0,0.0,0.0,0.0,0.0,0.0,0.0,0.0,0.0,0.0,0.0,0.0,0.0,0.0,0.0,0.0,0.0,0.0,0.0,0.0,0.0,0.0,0.0,0.0,0.0,0.0,0.0,0.0,0.0,0.0,0.0,0.0,0.0,0.0,0.0,0.0,0.0,0.0,0.0,0.0,0.0,0.0,0.0,0.0,0.0,0.0,0.0,0.0,0.0,0.0,0.0,0.0,0.0,0.0,0.0,0.0,0.0,0.0,0.0,0.0,0.0,0.0,0.0,0.0,0.0,0.0,0.0,0.0,0.0,0.0,0.0,0.0,0.0,0.0,0.0,0.0,0.0,0.0,0.0,0.0,0.0,0.0,0.0,0.0,0.0,0.0,0.0,0.0,0.0,0.0,0.0,0.0,0.0,0.0,0.0,0.0,0.0,0.0,0.0,0.0,0.0,0.0,0.0,0.0,0.0,0.0,0.0,0.0,0.0,0.0,0.0,0.0,0.0,0.0,0.0,0.0,0.0,0.0,0.0,0.0,0.0,0.0,0.0,0.0,0.0,0.0,0.0,0.0,0.0,0.0,0.0,0.0,0.0,0.0,0.0,0.0,0.0,0.0,0.0,0.0,0.0,0.0,0.0,0.0,0.0,0.0,0.0,0.0,0.0,0.0,0.0,0.0,0.0,0.0,0.0,0.0,0.0,0.0,0.0,0.0,0.0,0.0,0.0,0.0,0.0,0.0,0.0,0.0,0.0,0.0,0.0,0.0,0.0,0.0,0.0,0.0,0.0,0.0,0.0,0.0,0.0,0.0,0.0,0.0,0.0,0.0,0.0,0.0,0.0,0.0,0.0,0.0,0.0,0.0,0.0,0.0,0.0,0.0,0.0,0.0,0.0,0.0,0.0,0.0,0.0,0.0,0.0,0.0,0.0,0.0,0.0,0.0,0.0,0.0,0.0,0.0,0.0,0.0,0.0,0.0,0.0,0.0,0.0,0.0,0.0,0.0,0.0,0.0,0.0,0.0,0.0,0.0,0.0,0.0,0.0,0.0,0.0,0.0,0.0,0.0,0.0,0.0,0.0,0.0,0.0,0.0,0.0,0.0,0.0,0.0,0.0,0.0,0.0,0.0,0.0,0.0,0.0,0.0,0.0,0.0,0.0,0.0,0.0,0.0,0.0,0.0,0.0,0.0,0.0,0.0,0.0,0.0,0.0,0.0,0.0,0.0,0.0,0.0,0.0,0.0,0.0,0.0,0.0,0.0,0.0,0.0,0.0,0.0,0.0,0.0,0.0,0.0,0.0,0.0,0.0,0.0,0.0,0.0,0.0,0.0,0.0,0.0,0.0,0.0,0.0,0.0,0.0,0.0,0.0,0.0,0.0,0.0,0.0,0.0,0.0,0.0,0.0,0.0,0.0,0.0,0.0,0.0,0.0,0.0,0.0,0.0,0.0,0.0,0.0,0.0,0.0,0.0,0.0,0.0,0.0,0.0,0.0,0.0,0.0,0.0,0.0,0.0,0.0,0.0,0.0,0.0,0.0,0.0,0.0,0.0,0.0,0.0,0.0,0.0,0.0,0.0,0.0,0.0,0.0,0.0,0.0,0.0,0.0,0.0,0.0,0.0,0.0,0.0,0.0,0.0,0.0,0.0,0.0,0.0,0.0,0.0,0.0,0.0,0.0,0.0,0.0,0.0,0.0,0.0,0.0,0.0,0.0,0.0,0.0,0.0,0.0,0.0,0.0,0.0,0.0,0.0,0.0,0.0,0.0,0.0,0.0,0.0,0.0,0.0,0.0,0.0,0.0,0.0,0.0,0.0,0.0,0.0,0.0,0.0,0.0,0.0,0.0,0.0,0.0,0.0,0.0,0.0,0.0,0.0,0.0,0.0,0.0,0.0,0.0,0.0,0.0,0.0,0.0,0.0,0.0,0.0,0.0,0.0,0.0,0.0,0.0,0.0,0.0,0.0,0.0,0.0,0.0,0.0,0.0,0.0,0.0,0.0,0.0,0.0,0.0,0.0,0.0,0.0,0.0,0.0,0.0,0.0,0.0,0.0,0.0,0.0,0.0,0.0,0.0,0.0,0.0,0.0,0.0,0.0,0.0,0.0,0.0,0.0,0.0,0.0,0.0,0.0,0.0,0.0,0.0,0.0,0.0,0.0,0.0,0.0,0.0,0.0,0.0,0.0,0.0,0.0,0.0,0.0,0.0,0.0,0.0,0.0,0.0,0.0,0.0,0.0,0.0,0.0,0.0,0.0,0.0,0.0,0.0,0.0,0.0,0.0,0.0,0.0,0.0,0.0,0.0,0.0,0.0,0.0,0.0,0.0,0.0,0.0,0.0,0.0,0.0,0.0,0.0,0.0,0.0,0.0,0.0,0.0,0.0,0.0,0.0,0.0,0.0,0.0,0.0,0.0,0.0,0.0,0.0,0.0,0.0,0.0,0.0,0.0,0.0,0.0,0.0,0.0,0.0,0.0,0.0,0.0,0.0,0.0,0.0,0.0,0.0,0.0,0.0,0.0,0.0,0.0,0.0,0.0,0.0,0.0,0.0,0.0,0.0,0.0,0.0,0.0,0.0,0.0,0.0,0.0,0.0,0.0,0.0,0.0,0.0,0.0,0.0,0.0,0.0,0.0,0.0,0.0,0.0,0.0,0.0,0.0,0.0,0.0,0.0,0.0,0.0,0.0,0.0,0.0,0.0,0.0,0.0,0.0,0.0,0.0,0.0,0.0,0.0,0.0,0.0,0.0,0.0,0.0,0.0,0.0,0.0,0.0,0.0,0.0,0.0,0.0,0.0,0.0,0.0,0.0,0.0,0.0,0.0,0.0,0.0,0.0,0.0,0.0,0.0,0.0,0.0,0.0,0.0,0.0,0.0,0.0,0.0,0.0,0.0,0.0,0.0,0.0,0.0,0.0,0.0,0.0,0.0,0.0,0.0,0.0,0.0,0.0,0.0,0.0,0.0,0.0,0.0,0.0,0.0,0.0,0.0,0.0,0.0,0.0,0.0,0.0,0.0,0.0,0.0,0.0,0.0,0.0,0.0,0.0,0.0,0.0,0.0,0.0,0.0,0.0,0.0,0.0,0.0,0.0,0.0,0.0,0.0,0.0,0.0,0.0,0.0,0.0,0.0,0.0,0.0,0.0,0.0,0.0,0.0,0.0,0.0,0.0,0.0,0.0,0.0,0.0,0.0,0.0,0.0,0.0,0.0,0.0,0.0,0.0,0.0,0.0,0.0,0.0,0.0,0.0,0.0,0.0,0.0,0.0,0.0,0.0,0.0,0.0,0.0,0.0,0.0,0.0,0.0,0.0,0.0,0.0,0.0,0.0,0.0,0.0,0.0,0.0,0.0,0.0,0.0,0.0,0.0,0.0,0.0,0.0,0.0,0.0,0.0,0.0,0.0,0.0,0.0,0.0,0.0,0.0,0.0,0.0,0.0,0.0,0.0,0.0,0.0,0.0,0.0,0.0,0.0,0.0,0.0,0.0,0.0,0.0,0.0,0.0,0.0,0.0,0.0,0.0,0.0,0.0,0.0,0.0,0.0,0.0,0.0,0.0,0.0,0.0,0.0,0.0,0.0,0.0,0.0,0.0,0.0,0.0,0.0,0.0,0.0,0.0,0.0,0.0,0.0,0.0,0.0,0.0,0.0,0.0,0.0,0.0,0.0,0.0,0.0,0.0,0.0,0.0,0.0,0.0,0.0,0.0,0.0,0.0,0.0,0.0,0.0,0.0,0.0,0.0,0.0,0.0,0.0,0.0,0.0,0.0,0.0,0.0,0.0,0.0,0.0,0.0,0.0,0.0,0.0,0.0,0.0,0.0,0.0,0.0,0.0,0.0,0.0,0.0,0.0,0.0,0.0,0.0,0.0,0.0,0.0,0.0,0.0,0.0,0.0,0.0,0.0,0.0,0.0,0.0,0.0,0.0,0.0,0.0,0.0,0.0,0.0,0.0,0.0,0.0,0.0,0.0,0.0,0.0,0.0,0.0,0.0,0.0,0.0,0.0,0.0,0.0,0.0,0.0,0.0,0.0,0.0,0.0,0.0,0.0,0.0,0.0,0.0,0.0,0.0,0.0,0.0,0.0,0.0,0.0,0.0,0.0,0.0,0.0,0.0,0.0,0.0,0.0,0.0,0.0,0.0,0.0,0.0,0.0,0.0,0.0,0.0,0.0,0.0,0.0,0.0,0.0,0.0,0.0,0.0,0.0,0.0,0.0,0.0,0.0,0.0,0.0,0.0,0.0,0.0,0.0,0.0,0.0,0.0,0.0,0.0,0.0,0.0,0.0,0.0,0.0,0.0,0.0,0.0,0.0,0.0,0.0,0.0,0.0,0.0,0.0,0.0,0.0,0.0,0.0,0.0,0.0,0.0,0.0,0.0,0.0,0.0,0.0,0.0,0.0,0.0,0.0,0.0,0.0,0.0,0.0,0.0,0.0,0.0,0.0,0.0,0.0,0.0,0.0,0.0,0.0,0.0,0.0,0.0,0.0,0.0,0.0,0.0,0.0,0.0,0.0,0.0,0.0,0.0,0.0,0.0,0.0,0.0,0.0,0.0,0.0,0.0,0.0,0.0,0.0,0.0,0.0,0.0,0.0,0.0,0.0,0.0,0.0,0.0,0.0,0.0,0.0,0.0,0.0,0.0,0.0,0.0,0.0,0.0,0.0,0.0,0.0,0.0,0.0,0.0,0.0,0.0,0.0,0.0,0.0,0.0,0.0,0.0,0.0,0.0,0.0,0.0,0.0,0.0,0.0,0.0,0.0,0.0,0.0,0.0,0.0,0.0,0.0,0.0,0.0,0.0,0.0,0.0,0.0,0.0,0.0,0.0,0.0,0.0,0.0,0.0,0.0,0.0,0.0,0.0,0.0,0.0,0.0,0.0,0.0,0.0,0.0,0.0,0.0,0.0,0.0,0.0,0.0,0.0,0.0,0.0,0.0,0.0,0.0,0.0,0.0,0.0,0.0,0.0,0.0,0.0,0.0,0.0,0.0,0.0,0.0,0.0,0.0,0.0,0.0,0.0,0.0,0.0,0.0,0.0,0.0,0.0,0.0,0.0,0.0,0.0,0.0,0.0,0.0,0.0,0.0,0.0,0.0,0.0,0.0,0.0,0.0,0.0,0.0,0.0,0.0,0.0,0.0,0.0,0.0,0.0,0.0,0.0,0.0,0.0,0.0,0.0,0.0,0.0,0.0,0.0,0.0,0.0,0.0,0.0,0.0,0.0,0.0,0.0,0.0,0.0,0.0,0.0,0.0,0.0,0.0,-3.8749,0.0,0.0,0.0,0.0,0.0,0.0,0.0,0.0,0.0,0.0,0.0,0.0,0.0,0.0,0.0,0.0,0.0,0.0,0.0,0.0,0.0,0.0,0.0,0.0,0.0,0.0,0.0,0.0,0.0,0.0,0.0,0.0,0.0,0.0,0.0,0.0,0.0,0.0,0.0,-3.6134,-3.6205,-3.6336,-3.6683,-3.7381,-3.8394,0.0,0.0,0.0,0.0,0.0,0.0,0.0,0.0,0.0,0.0,0.0,0.0,0.0,0.0,0.0,0.0,0.0,0.0,0.0,0.0,0.0,0.0,0.0,0.0,0.0,0.0,0.0,0.0,0.0,0.0,0.0,0.0,0.0,0.0,0.0,0.0,0.0,0.0,0.0,0.0,0.0,0.0,0.0,0.0,0.0,0.0,0.0,0.0,0.0,0.0,0.0,0.0,0.0,0.0,0.0,0.0,0.0,0.0,0.0,0.0,0.0,0.0,0.0,0.0,0.0,0.0,0.0,0.0,0.0,0.0,0.0,-3.8739,0.0,0.0,0.0,0.0,0.0,0.0,0.0,0.0,0.0,0.0,0.0,0.0,0.0,0.0,0.0,0.0,0.0,0.0,0.0,0.0,0.0,0.0,0.0,0.0,-3.5058,-3.4995,-3.4576,0.0,0.0,0.0,0.0,0.0,0.0,0.0,0.0,0.0,-3.5035,-3.5035,-3.4995,-3.4995,-3.5018,-3.5419,-3.6205,-3.7344,-3.7958,0.0,0.0,0.0,0.0,0.0,0.0,0.0,0.0,0.0,0.0,0.0,0.0,0.0,0.0,0.0,0.0,0.0,0.0,0.0,0.0,0.0,0.0,0.0,0.0,0.0,0.0,0.0,0.0,0.0,0.0,0.0,0.0,0.0,0.0,0.0,0.0,0.0,0.0,0.0,0.0,0.0,0.0,0.0,0.0,0.0,0.0,0.0,0.0,0.0,0.0,0.0,0.0,0.0,0.0,0.0,0.0,0.0,0.0,0.0,0.0,0.0,0.0,0.0,-3.8685,-3.8645,-3.8652,-3.8748,-3.8283,-3.7445,-3.8514,-3.8793,-3.8483,0.0,0.0,0.0,0.0,0.0,0.0,0.0,0.0,0.0,0.0,0.0,0.0,0.0,0.0,0.0,0.0,0.0,0.0,0.0,0.0,0.0,0.0,-3.4479,-3.4406,-3.4186,-3.4087,-3.4012,0.0,0.0,0.0,0.0,0.0,0.0,0.0,-3.4309,-3.4333,-3.4333,-3.4211,-3.4211,-3.4333,-3.439,-3.4605,-3.5006,-3.6747,-3.7631,-3.7805,0.0,0.0,0.0,0.0,0.0,0.0,0.0,0.0,0.0,0.0,0.0,0.0,0.0,0.0,0.0,0.0,0.0,0.0,0.0,0.0,0.0,0.0,0.0,0.0,0.0,0.0,0.0,0.0,0.0,0.0,0.0,0.0,0.0,0.0,0.0,0.0,0.0,0.0,0.0,0.0,0.0,-3.5116,-3.4179,0.0,0.0,0.0,0.0,0.0,0.0,0.0,0.0,0.0,0.0,0.0,0.0,0.0,-3.891,-3.8839,-3.8542,-3.8387,-3.8368,-3.8135,-3.8019,-3.8019,-3.8036,-3.7948,-3.7824,-3.8,0.0,-3.7606,-3.6833,0.0,0.0,0.0,0.0,0.0,0.0,0.0,0.0,0.0,0.0,0.0,0.0,0.0,0.0,0.0,0.0,0.0,0.0,0.0,0.0,0.0,-3.3633,-3.3469,-3.3339,-3.2725,-3.2454,-3.2761,0.0,0.0,0.0,0.0,-3.2895,-3.296,-3.3261,-3.3417,-3.3417,-3.3365,-3.3365,-3.3417,-3.3479,-3.3719,-3.4137,-3.4678,-3.5625,-3.686,-3.747,0.0,0.0,0.0,0.0,0.0,0.0,0.0,0.0,0.0,0.0,0.0,0.0,0.0,0.0,0.0,0.0,0.0,0.0,0.0,0.0,0.0,0.0,0.0,0.0,0.0,0.0,0.0,0.0,0.0,0.0,0.0,0.0,0.0,0.0,0.0,0.0,0.0,0.0,0.0,-3.4938,-3.43,-3.3911,-3.4044,-3.4132,0.0,0.0,0.0,0.0,0.0,0.0,0.0,0.0,0.0,-3.8346,-3.8346,-3.8298,-3.818,-3.8032,-3.7929,-3.7896,-3.7792,-3.7721,-3.7721,-3.7775,-3.7793,-3.7792,-3.7864,-3.7838,-3.7669,-3.6982,-3.7084,-3.7561,0.0,0.0,0.0,0.0,-3.4703,-3.4368,0.0,0.0,0.0,0.0,0.0,0.0,0.0,0.0,0.0,0.0,0.0,0.0,-3.287,-3.2287,-3.1914,-3.1886,-3.1071,-3.0748,-3.1262,-3.0852,0.0,0.0,0.0,-3.1495,-3.1495,-3.199,-3.2308,-3.2336,-3.2477,-3.2482,-3.2338,-3.2431,-3.2641,-3.286,-3.26,-3.3578,-3.5459,-3.6059,-3.6037,-3.5652,0.0,0.0,0.0,0.0,0.0,0.0,0.0,0.0,0.0,0.0,0.0,0.0,0.0,0.0,0.0,0.0,0.0,0.0,0.0,0.0,0.0,0.0,0.0,0.0,0.0,0.0,0.0,0.0,0.0,0.0,0.0,0.0,0.0,0.0,0.0,0.0,0.0,-3.3882,-3.353,-3.3705,-3.3846,-3.4108,0.0,0.0,0.0,0.0,0.0,0.0,-3.7001,-3.7575,-3.7881,-3.7864,-3.7864,-3.7793,-3.7667,-3.7667,-3.7649,-3.7595,-3.7595,-3.7595,-3.7595,-3.7649,-3.7667,-3.7667,-3.7775,-3.7828,-3.7792,-3.7448,-3.7351,-3.7351,-3.6793,-3.626,-3.5734,-3.5232,-3.4703,-3.417,0.0,0.0,0.0,0.0,0.0,0.0,0.0,0.0,0.0,0.0,0.0,-3.0852,-3.0852,-3.0077,-2.9529,-2.9372,-2.9324,-2.9292,-2.9324,-2.949,-2.9645,-2.9801,-2.9997,-3.0103,-3.0103,-3.0644,-3.097,-3.1087,-3.1596,-3.1594,-3.1095,-3.1095,-3.0826,-3.0411,-3.0898,-3.195,-3.331,-3.2939,-3.3064,-3.3531,-3.3287,0.0,0.0,0.0,0.0,0.0,0.0,0.0,0.0,0.0,0.0,0.0,0.0,0.0,0.0,0.0,0.0,0.0,0.0,0.0,0.0,0.0,0.0,0.0,0.0,0.0,0.0,0.0,0.0,0.0,0.0,0.0,0.0,0.0,0.0,0.0,0.0,0.0,0.0,-3.289,-3.3571,0.0,0.0,0.0,0.0,-3.595,-3.6713,-3.736,-3.7827,-3.7881,-3.7828,-3.7703,-3.7703,-3.7685,-3.7613,-3.7613,-3.7595,-3.7595,-3.7595,-3.7595,-3.7595,-3.7595,-3.7613,-3.7613,-3.7613,-3.7631,-3.7631,-3.7792,-3.8013,-3.8164,-3.7364,-3.7198,-3.7155,-3.5309,-3.4728,-3.4706,0.0,0.0,0.0,0.0,0.0,0.0,0.0,0.0,0.0,-3.1536,-3.0525,-2.9811,-2.9811,-2.9397,-2.9118,-2.9083,-2.8671,-2.8607,-2.9038,-2.8734,-2.8748,-2.924,-2.9317,-2.9348,-2.9348,-2.9687,-2.9673,-2.9337,-2.9649,-2.9508,-2.8942,-2.9041,-2.8966,-2.8773,-2.869,-2.9158,-3.0159,-3.1659,-3.2121,-3.1867,-3.2004,-3.2196,0.0,0.0,0.0,0.0,0.0,0.0,0.0,0.0,0.0,0.0,0.0,0.0,0.0,0.0,0.0,0.0,0.0,0.0,0.0,0.0,0.0,0.0,0.0,0.0,0.0,0.0,0.0,0.0,0.0,0.0,0.0,0.0,0.0,0.0,0.0,0.0,0.0,-3.3552,-3.408,0.0,-3.5037,-3.5655,-3.6087,-3.6245,-3.6449,-3.6626,-3.6803,-3.6821,-3.686,-3.6993,-3.6993,-3.7052,-3.7203,-3.6709,-3.6444,-3.6444,-3.5949,-3.5738,-3.5738,-3.5738,-3.5738,-3.5738,-3.5738,-3.5738,-3.5738,-3.5811,-3.6631,-3.7754,-3.6946,-3.64,-3.5885,-3.4715,-3.3995,-3.355,0.0,0.0,0.0,0.0,0.0,0.0,0.0,0.0,-3.0688,-3.0343,-2.947,-2.873,-2.8414,-2.8233,-2.8038,-2.7782,-2.7524,-2.7504,-2.7749,-2.7332,-2.7311,-2.7848,-2.8168,-2.8231,-2.8061,-2.8411,-2.8298,-2.771,-2.8042,-2.7914,-2.734,-2.7455,-2.7428,-2.7258,-2.6972,-2.7113,-2.7715,-2.945,-3.018,-3.0254,-3.0603,-3.0854,-3.1065,0.0,0.0,0.0,0.0,0.0,0.0,0.0,0.0,0.0,0.0,0.0,0.0,0.0,0.0,0.0,0.0,0.0,0.0,0.0,0.0,0.0,0.0,0.0,0.0,0.0,0.0,0.0,0.0,0.0,0.0,0.0,0.0,0.0,0.0,0.0,-3.3098,-3.4109,-3.447,-3.482,-3.5294,-3.5587,-3.5812,-3.5985,-3.5916,-3.5916,-3.6084,-3.6105,-3.6065,-3.599,-3.599,-3.5972,-3.5891,-3.5351,-3.5089,-3.5089,-3.4715,-3.447,-3.4376,-3.4488,-3.4525,-3.4525,-3.4525,-3.4598,-3.4689,-3.458,-3.5289,-3.6412,-3.5989,-3.5492,-3.4942,-3.4179,-3.3575,-3.306,0.0,0.0,0.0,0.0,0.0,0.0,0.0,-3.1101,-3.0404,-2.939,-2.8519,-2.7597,-2.6655,-2.6505,-2.6129,-2.53,-2.5793,-2.5863,-2.5252,-2.5252,-2.5311,-2.5498,-2.638,-2.6628,-2.6112,-2.6737,-2.6769,-2.6184,-2.684,-2.6836,-2.624,-2.6354,-2.612,-2.5643,-2.5793,-2.5928,-2.6062,-2.6117,-2.7085,-2.863,-2.8973,-2.9413,-2.9886,0.0,0.0,0.0,0.0,0.0,0.0,0.0,0.0,0.0,0.0,0.0,0.0,0.0,0.0,0.0,0.0,0.0,0.0,0.0,0.0,0.0,0.0,0.0,0.0,0.0,0.0,0.0,0.0,0.0,0.0,0.0,0.0,0.0,-3.1707,-3.2827,-3.3835,-3.4435,-3.4599,-3.4866,-3.5328,-3.4849,-3.4682,-3.5094,-3.514,-3.5329,-3.5774,-3.5778,-3.5476,-3.4746,-3.4728,-3.4411,-3.3702,-3.3648,-3.3631,-3.3651,-3.3928,-3.3908,-3.3616,-3.3947,-3.4081,-3.4081,-3.4081,-3.4251,-3.4528,-3.4213,-3.4081,-3.41,-3.4508,-3.4654,-3.4549,-3.3758,-3.3459,-3.3336,0.0,0.0,0.0,0.0,0.0,0.0,0.0,-3.0269,-2.9453,-2.8661,-2.7571,-2.6561,-2.573,-2.5369,-2.485,-2.4072,-2.4156,-2.4042,-2.3603,-2.3545,-2.358,-2.3639,-2.3886,-2.3991,-2.3943,-2.3972,-2.3781,-2.3332,-2.3658,-2.3344,-2.2424,-2.2454,-2.2214,-2.175,-2.2227,-2.2769,-2.3353,-2.4285,-2.5238,-2.6224,-2.7049,-2.7709,-2.8238,0.0,0.0,0.0,0.0,0.0,0.0,0.0,0.0,0.0,0.0,0.0,0.0,0.0,0.0,0.0,0.0,0.0,0.0,0.0,0.0,0.0,0.0,0.0,0.0,0.0,0.0,0.0,0.0,0.0,0.0,0.0,0.0,-3.1476,-3.2216,-3.2972,-3.3714,-3.4424,-3.4535,-3.4618,-3.473,-3.4594,-3.434,-3.394,-3.3891,-3.3746,-3.3394,-3.336,-3.335,-3.3272,-3.3294,-3.3264,-3.3275,-3.2534,-3.2165,-3.2165,-3.1529,-3.1278,-3.1394,-3.1476,-3.1517,-3.1517,-3.1517,-3.1459,-3.1364,-3.1262,-3.122,-3.1374,-3.2884,-3.3483,-3.3397,-3.2844,-3.2511,-3.2298,0.0,0.0,0.0,0.0,0.0,0.0,0.0,-2.9701,-2.8885,-2.7762,-2.6926,-2.5941,-2.4684,-2.4624,-2.4264,-2.3121,-2.308,-2.292,-2.2427,-2.2218,-2.2143,-2.2143,-2.2425,-2.2533,-2.2377,-2.2103,-2.1732,-2.1236,-2.1197,-2.0823,-2.0243,-2.0291,-2.0217,-2.0053,-2.0445,-2.0916,-2.1408,-2.2099,-2.2787,-2.3467,-2.4092,-2.539,-2.7011,-2.756,-2.7987,-2.8372,-2.9007,-2.9294,-2.9383,-2.9718,0.0,0.0,0.0,0.0,0.0,0.0,0.0,0.0,0.0,0.0,0.0,0.0,0.0,0.0,0.0,0.0,0.0,0.0,0.0,0.0,0.0,0.0,0.0,0.0,-3.0601,-3.1321,-3.1973,-3.2608,-3.3292,-3.4028,-3.4077,-3.403,-3.3974,-3.3933,-3.3615,-3.2858,-3.2809,-3.2583,-3.2082,-3.205,-3.1927,-3.1648,-3.1648,-3.1577,-3.1445,-3.0849,-3.0548,-3.0548,-3.0093,-2.9892,-2.9924,-3.0059,-3.0107,0.0,-3.0107,-3.0128,-3.0074,-2.9962,-2.9897,0.0,0.0,0.0,0.0,0.0,-3.1418,-3.1435,0.0,0.0,0.0,0.0,0.0,0.0,0.0,-2.9407,-2.8661,-2.7007,-2.6449,-2.551,-2.3661,-2.3954,-2.3702,-2.2237,-2.2179,-2.1984,-2.1354,-2.0973,-2.0755,-2.0702,-2.1386,-2.1486,-2.0964,-2.0594,-2.0126,-1.9607,-1.9245,-1.9041,-1.8985,-1.9022,-1.9166,-1.9355,-1.9437,-1.9622,-1.9819,-1.9837,-2.0194,-2.0746,-2.0938,-2.2952,-2.5889,-2.6183,-2.6383,-2.6579,-2.7633,-2.7992,-2.8167,-2.8969,0.0,0.0,0.0,0.0,0.0,0.0,0.0,0.0,0.0,0.0,0.0,0.0,0.0,0.0,0.0,0.0,0.0,0.0,0.0,0.0,0.0,0.0,0.0,0.0,-3.0438,-3.0678,-3.1261,-3.1862,-3.2552,-3.3375,-3.3286,-3.3144,-3.304,-3.2919,-3.2563,-3.1837,-3.1788,-3.1645,-3.1334,0.0,0.0,0.0,0.0,-2.9753,-2.9114,-2.9075,-2.9052,-2.9052,-2.9348,-2.9325,-2.9052,-2.9355,-2.9496,-2.9496,-2.9496,-2.9657,-2.9897,-2.9585,-2.9451,-2.9496,-2.9897,-3.0074,-3.0095,-3.0095,-3.039,-3.0697,0.0,0.0,0.0,0.0,0.0,0.0,0.0,-2.9532,-2.8666,-2.7484,-2.5998,-2.4588,-2.3404,-2.2366,-2.1418,-2.0472,-2.0119,-1.9683,-1.9069,-1.897,-1.8754,-1.837,-1.8634,-1.8671,-1.8347,-1.794,-1.7769,-1.7792,-1.7709,-1.7502,-1.711,-1.6467,-1.6347,-1.6641,-1.6461,-1.6767,-1.7536,-1.8538,-1.9223,-1.9657,-2.0299,-2.1824,-2.3748,-2.4363,-2.4913,-2.5439,-2.5969,-2.6275,-2.646,-2.6524,-2.7265,-2.8181,-2.8181,-2.8873,0.0,0.0,0.0,0.0,0.0,0.0,0.0,0.0,0.0,0.0,0.0,0.0,0.0,0.0,0.0,0.0,0.0,0.0,0.0,-2.945,-2.9823,-3.0227,-3.0357,-3.0477,-3.1073,-3.2477,-3.2144,-3.1872,-3.2059,-3.1555,-3.1031,-3.0577,-3.0553,-3.0275,-2.9634,-2.9563,-2.9492,-2.9319,-2.9304,-2.924,-2.9098,-2.8889,-2.8779,-2.8795,0.0,0.0,-2.8779,-2.8834,-2.8881,-2.8881,-2.8881,-2.8826,-2.8724,-2.8653,-2.8629,-2.87,-2.9422,-2.9876,-3.0095,-3.0095,-2.9989,-2.9832,0.0,0.0,0.0,0.0,0.0,0.0,0.0,-2.9563,-2.8511,-2.7131,-2.5453,-2.3873,-2.2499,-2.1409,-2.0497,-1.9674,-1.9146,-1.8611,-1.8081,-1.7992,-1.7776,-1.7336,-1.7394,-1.7125,-1.6439,-1.6015,-1.5663,-1.5435,-1.5241,-1.5038,-1.4805,-1.438,-1.4333,-1.4531,-1.4396,-1.4652,-1.5187,-1.5713,-1.6537,-1.7503,-1.7406,-1.8839,-2.1158,-2.2207,-2.2842,-2.3301,-2.4103,-2.4545,-2.4841,-2.5412,-2.6051,-2.6605,-2.6605,-2.7015,-2.758,0.0,0.0,0.0,0.0,0.0,0.0,0.0,0.0,0.0,0.0,0.0,0.0,0.0,0.0,-2.8135,0.0,0.0,-2.9609,-2.9598,-2.9866,-2.9997,-2.9697,-2.9654,-3.0044,-3.1112,-3.0935,-3.0657,-3.0377,-3.0048,-2.9635,-2.9084,-2.9231,-2.9139,-2.8614,-2.8779,-2.8842,-2.874,-2.874,-2.874,-2.874,-2.8621,-2.8549,-2.8549,-2.8444,-2.8444,-2.8549,-2.8549,-2.8549,-2.8549,-2.8549,-2.8493,-2.8411,-2.8411,-2.8348,-2.8332,-2.874,-2.9203,-2.9613,-2.9355,-2.9293,-2.9361,0.0,0.0,0.0,0.0,0.0,0.0,0.0,0.0,-2.8329,-2.6828,-2.5049,-2.3294,-2.1733,-2.0846,-1.9997,-1.9079,-1.8518,-1.804,-1.7632,-1.7486,-1.7209,-1.6718,-1.6633,-1.6095,-1.5078,-1.4541,-1.4024,-1.3469,-1.3149,-1.3009,-1.3009,-1.2856,-1.2901,-1.3158,-1.2967,-1.3036,-1.3356,-1.3233,-1.4027,-1.5256,-1.456,-1.5882,-1.8405,-1.9651,-2.0523,-2.1232,-2.2323,-2.2807,-2.3119,-2.4158,-2.4642,-2.4812,-2.4938,-2.512,-2.5356,-2.5522,-2.5604,0.0,0.0,0.0,0.0,0.0,0.0,0.0,0.0,0.0,-2.7001,-2.8055,-2.7702,-2.7536,-2.8615,-2.8802,-2.9015,-2.969,-2.9676,-2.9497,-2.9165,-2.8994,-2.9043,-2.9418,-2.9502,-2.9326,-2.8703,-2.8544,-2.8283,-2.777,-2.8125,-2.8286,-2.8052,-2.8422,-2.8573,-2.8411,-2.8259,-2.8235,-2.8348,-2.821,-2.8226,-2.8339,-2.8339,-2.8339,-2.8339,-2.8339,-2.8339,-2.8339,-2.8339,-2.8262,-2.8139,-2.8277,-2.825,-2.8162,-2.8162,-2.8494,-2.8896,-2.8477,-2.8605,-2.8896,0.0,0.0,0.0,0.0,0.0,0.0,0.0,0.0,0.0,-2.7538,-2.4973,-2.2855,-2.1862,-2.0594,-1.9266,-1.7992,-1.7728,-1.7508,-1.727,-1.7235,-1.6865,-1.6057,-1.5614,-1.4997,-1.4146,-1.351,-1.3128,-1.3066,-1.3025,-1.3009,-1.2978,-1.2266,-1.2328,-1.297,-1.2097,-1.2097,-1.2803,-1.3089,-1.3509,-1.4032,-1.4142,-1.4783,-1.5676,-1.6332,-1.8174,-2.045,-2.0792,-2.0983,-2.1118,-2.1275,-2.1882,-2.2655,-2.3272,-2.3816,-2.442,-2.519,0.0,-2.5218,-2.5384,-2.5245,-2.5103,-2.5143,-2.536,-2.5555,0.0,0.0,-2.6312,-2.7023,-2.7022,-2.7072,-2.7714,-2.7749,-2.7887,-2.8556,-2.8243,-2.8088,-2.8673,-2.8285,-2.7751,-2.7216,-2.7441,-2.7689,-2.7815,-2.729,-2.7029,-2.7174,-2.761,-2.7865,-2.784,-2.821,-2.842,-2.8411,-2.777,-2.768,-2.821,-2.757,-2.7509,-2.8029,-2.8029,-2.8029,-2.8029,-2.8029,-2.8029,-2.8029,-2.8029,-2.7704,-2.7211,-2.7811,-2.8044,-2.8005,-2.8005,-2.8079,-2.8128,-2.8054,-2.8079,-2.8036,0.0,0.0,0.0,0.0,0.0,0.0,0.0,0.0,0.0,0.0,-2.4838,-2.2922,-2.2163,-2.0412,-1.8924,-1.7949,-1.7632,-1.7461,-1.7392,-1.7141,-1.6574,-1.5535,-1.53,-1.4476,-1.2869,-1.2444,-1.1974,-1.1445,-1.132,-1.125,-1.125,-1.0912,-1.0944,-1.125,-1.0811,-1.0914,-1.1368,-1.1632,-1.2233,-1.2974,-1.2767,-1.3431,-1.4514,-1.4478,-1.5791,-1.7789,-1.918,-1.9759,0.0,-2.0515,-2.0928,-2.1315,-2.1608,-2.1863,-2.2116,-2.2506,-2.2548,0.0,-2.2566,-2.2518,0.0,0.0,-2.3311,-2.3791,-2.4532,-2.5038,-2.5603,-2.6613,-2.6675,-2.6799,-2.7452,-2.7537,-2.7499,0.0,-2.7561,-2.742,-2.6865,-2.7036,-2.6861,-2.5867,-2.619,-2.6521,-2.6643,-2.6388,-2.6285,-2.6377,-2.68,-2.6982,-2.6826,-2.7199,-2.7327,-2.7133,-2.682,-2.6768,-2.7041,-2.673,-2.6704,-2.6953,-2.6953,-2.6788,-2.6512,-2.6763,-2.6864,-2.6851,-2.7254,-2.727,-2.7042,-2.7716,-2.7955,-2.788,-2.788,-2.7614,-2.7238,-2.7794,-2.7762,-2.7391,0.0,0.0,0.0,0.0,0.0,0.0,0.0,0.0,0.0,0.0,0.0,-2.3348,-2.2415,-2.0321,-1.8777,-1.8259,-1.7794,-1.7529,-1.7426,-1.7141,-1.6441,-1.5266,-1.5036,-1.4026,-1.2076,-1.1699,-1.1167,-1.0438,-1.0276,-1.0113,-0.9872,-0.9872,-0.9774,-0.9578,-0.9747,-0.9955,-1.0138,-1.059,-1.1263,-1.1992,-1.1657,-1.2272,-1.3361,-1.3222,-1.3911,-1.5226,-1.7459,-1.8479,-1.8911,-1.9519,-1.977,-1.9835,-2.0031,-2.0096,-2.0204,-2.0451,-2.0515,-2.0515,-2.0515,0.0,0.0,-2.1069,-2.1716,-2.2467,-2.355,-2.4179,-2.4881,-2.5958,-2.607,-2.6067,-2.646,-2.6663,-2.6603,-2.6136,-2.6373,-2.6285,-2.5282,-2.5724,-2.5795,-2.4904,-2.53,-2.5647,-2.5647,-2.5811,-2.5839,-2.5674,-2.6109,-2.6256,-2.5987,-2.6334,-2.6453,-2.6213,-2.6026,-2.5999,-2.6146,-2.5802,-2.569,-2.5877,-2.5692,-2.5431,-2.5066,-2.5533,-2.5564,-2.5237,-2.6207,-2.6452,-2.6251,-2.723,-2.7575,-2.7484,-2.733,-2.6922,-2.6485,-2.6956,-2.6907,-2.6598,0.0,0.0,0.0,0.0,0.0,0.0,0.0,0.0,0.0,0.0,0.0,0.0,0.0,-2.0321,-1.8944,-1.88,-1.8104,-1.7579,-1.7235,-1.7201,-1.6604,-1.5266,-1.4583,-1.3542,-1.2125,-1.1437,-1.0998,-1.0779,-1.0779,-1.0388,-0.9615,-0.9615,-0.9192,-0.8489,-0.9128,-0.9423,-0.9515,-1.0545,-1.1024,-1.1067,-1.1328,-1.1545,-1.1811,-1.2425,-1.2792,-1.3295,-1.5552,-1.6881,-1.7573,-1.7608,-1.7691,-1.7901,-1.8546,-1.889,0.0,-2.0074,-2.0321,-2.0321,-2.0321,0.0,-2.0117,-2.0149,-2.0939,-2.1865,-2.2343,-2.3271,-2.4166,-2.4743,-2.4861,-2.4696,-2.4201,-2.4531,-2.4777,-2.4444,-2.4271,-2.4268,-2.4487,-2.4455,-2.4363,-2.4321,-2.4736,-2.5033,0.0,-2.5564,-2.5674,-2.5061,-2.5701,-2.5987,-2.5618,-2.6013,-2.6213,-2.6213,-2.5577,-2.5467,-2.6011,-2.4777,-2.4474,-2.5031,-2.4448,-2.4162,-2.4173,-2.4687,-2.4293,-2.3285,-2.5009,-2.511,-2.4239,-2.5992,-2.6736,-2.6663,-2.6156,-2.5933,-2.5846,-2.5209,-2.5265,-2.554,0.0,0.0,0.0,0.0,0.0,0.0,0.0,0.0,0.0,0.0,0.0,0.0,0.0,0.0,0.0,0.0,-1.8633,-1.8138,-1.7451,-1.6786,-1.5869,-1.4646,-1.393,-1.2671,-1.081,-1.042,-0.9842,-0.9079,-0.8945,-0.8734,-0.8483,-0.8348,-0.8136,-0.7889,-0.7955,-0.839,-0.9114,-0.9585,-1.0227,-1.088,-1.1112,-1.1223,-1.1335,-1.17,-1.2174,-1.2821,0.0,-1.47,-1.5604,-1.5886,-1.6018,-1.6079,-1.6306,-1.6757,-1.737,-1.8196,-1.8432,-1.8432,-1.8432,0.0,-1.8476,-1.8924,-1.9578,-2.0262,-2.0879,-2.1957,-2.2857,-2.304,-2.3712,-2.4225,-2.4049,-2.4425,-2.4508,-2.3692,-2.3866,-2.3855,-2.3077,-2.3424,-2.3741,-2.3704,-2.4189,0.0,0.0,0.0,0.0,-2.5033,-2.5216,-2.5231,-2.4908,-2.4653,-2.4436,-2.4216,-2.3633,-2.3418,-2.3609,-2.3204,-2.3071,-2.3272,-2.2655,-2.2564,-2.2906,-2.2679,-2.2518,-2.2507,-2.3957,-2.4346,-2.4067,-2.5131,-2.5564,-2.5519,-2.4929,-2.443,-2.4006,-2.3806,-2.3521,-2.3357,0.0,0.0,0.0,0.0,0.0,0.0,0.0,0.0,0.0,0.0,0.0,0.0,0.0,0.0,0.0,0.0,0.0,-1.8442,-1.7573,-1.6542,-1.5534,-1.445,-1.3324,-1.1952,-1.0292,-0.9779,-0.9155,-0.8365,-0.8179,-0.7925,-0.7633,-0.746,-0.7171,-0.6857,-0.7029,-0.7451,-0.8088,-0.8774,-0.9525,-1.0327,-1.0541,-1.0742,-1.096,-1.0943,-1.1356,0.0,-1.2161,-1.2738,-1.3585,-1.4478,-1.4764,-1.4764,-1.4764,-1.5155,-1.5737,-1.6629,-1.6811,-1.6821,-1.7107,-1.7176,-1.7279,-1.7696,-1.8277,-1.8893,-1.9472,-2.0387,-2.1172,-2.1381,-2.227,-2.2994,-2.2823,-2.3479,-2.377,-2.2873,-2.324,-2.332,-2.2482,-2.2847,-2.3206,-2.3164,-2.3466,-2.3725,0.0,0.0,0.0,-2.4677,-2.4778,-2.4585,-2.4046,-2.3702,-2.3327,-2.2936,-2.2584,-2.2401,-2.2387,-2.2151,-2.1862,-2.1614,-2.1225,-2.1223,-2.154,-2.1365,-2.1348,-2.1582,-2.2743,-2.3183,-2.3096,-2.3894,-2.4207,-2.4152,-2.358,-2.3095,-2.2671,-2.2439,-2.1962,-2.1592,0.0,0.0,0.0,0.0,0.0,0.0,0.0,0.0,0.0,0.0,0.0,0.0,0.0,0.0,0.0,0.0,0.0,0.0,-1.7598,-1.6577,-1.5578,-1.4637,-1.2896,-1.1465,-1.0453,-0.947,-0.8832,-0.8571,-0.8358,-0.7859,-0.7099,-0.6915,-0.6342,-0.5535,-0.627,-0.6584,-0.6647,-0.8106,-0.9005,-0.9466,-0.9691,-1.0166,-1.0635,-1.0254,-1.0349,-1.0701,-1.0893,-1.1137,-1.1607,-1.3317,-1.386,-1.3903,-1.3932,-1.4083,-1.4406,-1.535,-1.5508,-1.5569,-1.6324,-1.6533,-1.6533,-1.6568,-1.7123,-1.7734,-1.8187,-1.872,-1.9248,-1.9778,-2.0554,-2.1088,0.0,0.0,-2.2456,-2.1942,-2.2296,-2.2651,-2.2673,-2.2659,-2.2681,0.0,0.0,0.0,0.0,0.0,0.0,-2.3956,0.0,-2.4059,-2.325,-2.313,-2.2869,-2.2387,-2.2336,-2.2296,-2.2296,-2.1615,-2.0875,-2.0207,-2.0207,-2.0207,-2.0233,-2.0734,-2.0797,-2.055,-2.1455,-2.1628,-2.1367,-2.2313,-2.2711,-2.2658,-2.2122,-2.192,-2.1828,-2.1193,-2.0635,-2.0346,0.0,0.0,0.0,0.0,0.0,0.0,0.0,0.0,0.0,0.0,0.0,0.0,0.0,0.0,0.0,0.0,0.0,0.0,-1.8317,-1.6966,-1.5666,-1.4414,-1.3397,-1.1779,-0.9448,-0.9023,-0.8129,-0.6682,-0.6375,-0.6134,-0.5918,-0.5628,-0.5423,-0.528,-0.5316,-0.605,-0.7256,-0.7681,-0.8594,-0.9856,-0.9939,-1.0131,-1.0388,-1.0287,-1.0299,-1.0418,-1.0688,-1.0833,-1.1028,-1.1955,-1.2285,-1.2388,-1.3004,-1.3222,-1.3404,-1.4219,-1.4399,-1.455,-1.533,-1.5551,-1.5692,-1.6228,-1.6508,-1.6674,-1.6808,-1.7366,-1.7894,-1.8035,-1.8968,-1.9831,0.0,0.0,0.0,-2.1625,-2.1782,0.0,-2.2228,-2.2253,0.0,-2.3124,0.0,-2.3256,-2.3386,-2.3412,0.0,0.0,-2.3119,-2.3424,-2.3223,-2.2373,-2.1877,-2.1747,-2.1238,-2.0991,-2.0991,-2.0656,-2.0386,-2.0207,-2.0207,-2.0207,-2.0207,-2.0346,-2.0346,-2.0322,-2.1004,-2.125,-2.1158,-2.1419,-2.1536,-2.1471,-2.0875,-2.0655,-2.0642,-2.0474,-2.0321,-2.0169,0.0,0.0,0.0,0.0,0.0,0.0,0.0,0.0,0.0,0.0,0.0,0.0,0.0,0.0,0.0,0.0,0.0,0.0,0.0,-1.7707,-1.6315,-1.5562,-1.3566,-1.1702,-1.0055,-0.9031,-0.7848,-0.6405,-0.6097,-0.5728,-0.5375,-0.5159,-0.5057,-0.4997,-0.5281,-0.594,-0.6834,-0.745,-0.8362,0.0,0.0,-0.9779,-1.0112,-0.9924,-1.015,-1.0557,-1.0524,-1.091,0.0,0.0,0.0,-1.2512,-1.2615,-1.2872,-1.3237,-1.3665,0.0,-1.445,-1.524,-1.5461,-1.5568,-1.5964,-1.607,-1.607,-1.607,-1.6403,-1.6707,-1.6707,-1.7524,0.0,-1.8724,0.0,0.0,0.0,0.0,0.0,-2.2424,-2.2291,-2.2334,0.0,-2.2856,0.0,-2.2818,-2.2823,-2.2505,0.0,-2.2371,-2.2637,-2.2218,-2.1639,-2.1225,-2.1069,-2.0616,-2.0322,-2.0271,-2.0169,-2.008,-2.0016,-2.0016,-2.0016,-2.0016,-2.0016,-2.0054,-2.0131,0.0,-2.0564,-2.0603,-2.0564,-2.0538,-2.05,-2.0169,-2.0016,-2.0016,-2.0016,-1.9877,-1.9623,0.0,0.0,0.0,0.0,0.0,0.0,0.0,0.0,0.0,0.0,0.0,0.0,0.0,0.0,0.0,0.0,0.0,0.0,0.0,0.0,-1.7464,-1.7154,-1.394,-1.1975,-1.1519,-0.9548,-0.8089,-0.7151,-0.6804,-0.6227,-0.5454,-0.5454,-0.5284,-0.5067,-0.5884,-0.6243,-0.633,-0.7535,-0.8308,-0.8747,-0.907,-0.9512,-0.9955,0.0,0.0,-1.0962,-1.0691,0.0,0.0,0.0,-1.3564,-1.339,-1.2666,-1.2952,-1.3499,-1.3499,-1.3962,-1.4645,-1.5426,-1.5647,-1.5691,-1.5761,-1.5805,-1.5805,-1.5805,-1.5805,-1.5805,-1.5805,0.0,-1.6941,-1.701,-1.8085,-1.929,-2.0375,0.0,-2.1707,-2.2759,-2.2531,-2.2234,-2.2306,-2.2201,-2.2093,-2.2053,-2.1981,-2.1699,-2.1087,-2.156,-2.1533,-2.0743,-2.0751,-2.0628,-2.0347,-2.0233,-2.008,-1.9888,-1.9939,-1.9875,-1.9695,-1.9773,-1.9798,-1.9798,-1.9798,-1.9862,-1.9965,0.0,0.0,-1.9952,-1.9837,-1.9798,-1.9798,-1.9798,-1.9798,-1.9798,-1.9723,-1.9384,-1.8983,0.0,0.0,0.0,0.0,0.0,0.0,0.0,0.0,0.0,0.0,-3.0813,0.0,0.0,0.0,0.0,0.0,0.0,0.0,0.0,0.0,0.0,-1.7442,-1.6269,-1.4647,-1.2594,-1.1056,-0.9701,-0.8552,-0.7679,-0.7111,-0.6851,-0.6689,-0.6672,-0.6771,-0.6935,-0.741,-0.8064,-0.8323,-0.8776,-0.9415,-0.9996,-1.0289,-1.0455,-1.0919,0.0,0.0,0.0,0.0,0.0,0.0,-1.3998,-1.3499,-1.3353,-1.339,-1.3499,-1.3499,-1.3608,-1.3854,-1.4609,-1.4824,-1.4974,-1.562,-1.5805,-1.5805,-1.5805,-1.5805,0.0,0.0,-1.5903,-1.6175,-1.6603,-1.6906,-1.7663,-1.9481,0.0,0.0,0.0,0.0,-2.2499,0.0,0.0,0.0,0.0,0.0,0.0,0.0,0.0,-1.9657,-1.9658,-1.9215,-1.91,-1.9422,-1.9823,-1.9746,-1.9172,-1.9604,-1.9604,-1.9146,-1.9604,-1.9798,-1.9798,-1.9798,-1.9798,-1.9824,-1.9798,0.0,-1.9824,-1.9811,-1.9798,-1.9798,-1.9798,-1.9798,-1.9748,-1.9296,-1.9083,-1.887,0.0,0.0,0.0,0.0,0.0,0.0,0.0,0.0,0.0,0.0,-3.2004,-3.1026,0.0,0.0,0.0,0.0,0.0,0.0,0.0,0.0,0.0,0.0,0.0,0.0,-1.399,-1.2664,-1.1337,-1.0,0.0,-0.9012,-0.8495,-0.8463,-0.8463,-0.8527,-0.898,-0.9406,-0.9831,-1.0186,-1.0514,-1.0811,-1.1069,-1.1195,0.0,0.0,0.0,0.0,0.0,0.0,0.0,0.0,-1.4991,-1.4625,-1.4214,-1.4366,-1.4625,-1.4214,-1.4366,-1.4776,-1.5133,-1.524,-1.5311,-1.5691,-1.5805,-1.5805,-1.5805,0.0,0.0,0.0,-1.5805,-1.5973,-1.6508,-1.6821,0.0,0.0,0.0,0.0,0.0,0.0,0.0,0.0,0.0,0.0,0.0,0.0,0.0,0.0,0.0,-1.8437,-1.8617,-1.8464,-1.8459,-1.8605,-1.8883,-1.8857,-1.8536,-1.8792,-1.8792,-1.8536,-1.8792,-1.9095,-1.937,-1.937,-1.9552,-1.9798,-1.9798,0.0,-1.9798,-1.9798,-1.9798,-1.9773,-1.9497,-1.9371,-1.9334,-1.877,-1.8417,-1.8091,0.0,0.0,0.0,0.0,0.0,0.0,0.0,-3.4197,-3.3725,-3.3292,-3.2919,-3.2213,-3.0853,-3.0131,-2.9297,0.0,0.0,0.0,0.0,0.0,0.0,0.0,0.0,0.0,0.0,0.0,0.0,-1.1913,-1.179,0.0,0.0,0.0,0.0,0.0,-1.1281,-1.1612,-1.1643,-1.2158,-1.2296,0.0,0.0,-1.2158,0.0,0.0,0.0,0.0,0.0,0.0,0.0,0.0,-1.5805,-1.5691,-1.5054,-1.5275,-1.5691,-1.5054,-1.5311,-1.5805,-1.5805,-1.5805,-1.5805,-1.5805,-1.5805,-1.5805,-1.5805,-1.5805,0.0,0.0,-1.5805,-1.5973,-1.6508,0.0,-1.7751,0.0,-1.9955,0.0,0.0,0.0,0.0,0.0,0.0,0.0,0.0,0.0,0.0,0.0,0.0,0.0,-1.7568,-1.7902,-1.8027,-1.7902,-1.8038,-1.8038,-1.7902,-1.8038,-1.8038,-1.7902,-1.8038,-1.8348,-1.8827,-1.8827,-1.9054,-1.9436,-1.9436,0.0,0.0,-1.9326,-1.9277,-1.9253,-1.8846,-1.8672,-1.8598,-1.805,-1.7601,-1.7192,0.0,0.0,0.0,0.0,0.0,0.0,0.0,-3.455,-3.4305,-3.3721,-3.3296,-3.2867,-3.2436,-3.1106,-3.0166,0.0,0.0,0.0,0.0,0.0,0.0,0.0,0.0,0.0,0.0,0.0,0.0,-1.4906,-1.4284,0.0,0.0,0.0,0.0,0.0,0.0,-1.3553,-1.3553,-1.3612,0.0,0.0,0.0,0.0,0.0,0.0,0.0,0.0,0.0,0.0,0.0,0.0,0.0,-1.5797,-1.5726,-1.5726,-1.5797,-1.5726,0.0,0.0,-1.5805,-1.5805,-1.5805,-1.5805,-1.5805,-1.5805,-1.5805,0.0,-1.5805,-1.5805,-1.5805,-1.5973,-1.6508,-1.6638,-1.7322,0.0,0.0,-2.0169,0.0,0.0,0.0,0.0,0.0,0.0,0.0,0.0,0.0,0.0,0.0,0.0,-1.6576,-1.7028,-1.7313,-1.7285,-1.7809,-1.7847,-1.7285,-1.7847,-1.7809,-1.7285,-1.7836,-1.812,-1.8174,-1.8174,-1.8201,-1.8255,-1.8255,0.0,0.0,-1.7798,-1.7627,-1.7606,-1.7627,-1.7654,-1.7581,-1.6976,-1.6723,-1.6533,0.0,0.0,0.0,0.0,0.0,0.0,0.0,-3.4678,-3.4517,-3.4269,-3.3831,-3.3462,-3.3276,-3.2347,-3.1355,0.0,0.0,0.0,0.0,0.0,0.0,0.0,0.0,0.0,0.0,0.0,0.0,-1.7109,-1.6846,0.0,0.0,0.0,0.0,0.0,0.0,-1.6164,-1.5902,0.0,0.0,0.0,0.0,0.0,0.0,0.0,0.0,0.0,0.0,0.0,0.0,0.0,0.0,0.0,-1.5938,-1.5903,0.0,0.0,-1.5805,-1.5805,-1.5805,-1.5805,-1.5805,-1.5805,-1.5805,-1.5805,-1.5805,0.0,-1.5805,-1.5805,-1.5805,-1.5973,-1.6508,-1.6846,-1.7647,0.0,0.0,0.0,-2.1635,0.0,0.0,0.0,0.0,0.0,0.0,0.0,0.0,0.0,0.0,0.0,-1.6433,-1.6609,-1.6712,-1.6712,-1.6937,-1.6965,-1.6712,-1.6965,-1.6965,-1.6712,-1.6965,-1.7262,-1.7562,-1.7562,-1.7765,-1.8081,-1.7798,0.0,0.0,-1.7185,-1.6977,-1.6944,-1.6666,-1.6539,-1.648,-1.5892,-1.5694,-1.5636,0.0,0.0,0.0,0.0,0.0,0.0,-3.4908,-3.4781,-3.4636,-3.4506,-3.4161,-3.3829,-3.3629,-3.316,-3.2366,-3.1089,0.0,0.0,0.0,0.0,0.0,0.0,0.0,0.0,0.0,0.0,0.0,-1.9163,-1.9045,-1.8993,0.0,0.0,0.0,-1.8993,0.0,0.0,0.0,0.0,0.0,0.0,0.0,0.0,0.0,0.0,0.0,0.0,0.0,0.0,0.0,0.0,0.0,0.0,0.0,0.0,0.0,0.0,-1.5805,-1.5805,-1.5805,-1.5805,-1.5805,-1.5805,-1.5805,-1.5805,0.0,0.0,-1.5805,-1.5805,-1.5805,-1.5973,-1.6508,-1.6925,-1.7716,-1.9311,-1.9929,-2.057,-2.1645,0.0,0.0,0.0,0.0,0.0,0.0,0.0,0.0,0.0,0.0,0.0,0.0,-1.6413,-1.6413,-1.6413,-1.6413,-1.6413,-1.6413,-1.6413,-1.6413,-1.6413,-1.6413,-1.6591,-1.6972,-1.6821,-1.6978,-1.7366,0.0,0.0,0.0,-1.6179,-1.5977,-1.5957,-1.5606,-1.5461,-1.5403,-1.5016,-1.488,-1.488,0.0,0.0,0.0,0.0,0.0,0.0,0.0,-3.4908,-3.4742,-3.425,-3.4197,-3.3998,-3.3466,-3.3337,-3.3091,-3.2605,0.0,0.0,0.0,0.0,0.0,0.0,0.0,0.0,0.0,0.0,-2.1839,-2.1172,-2.0766,-2.068,-2.0875,-2.0519,-2.0495,-2.0654,0.0,0.0,0.0,0.0,0.0,0.0,0.0,0.0,0.0,0.0,0.0,0.0,0.0,0.0,0.0,0.0,0.0,0.0,0.0,-1.6202,-1.6237,-1.5903,-1.5805,-1.5805,-1.5805,-1.5805,-1.5805,-1.5805,-1.5805,-1.5805,0.0,0.0,-1.5805,-1.5805,-1.5805,-1.5973,-1.6508,-1.6603,-1.7252,-1.9275,-1.9604,0.0,-2.1597,0.0,0.0,0.0,0.0,0.0,0.0,0.0,0.0,0.0,0.0,0.0,0.0,-1.6413,-1.6413,-1.6413,-1.6413,-1.6413,-1.6413,-1.6413,-1.6413,-1.6413,-1.6413,-1.6413,-1.6392,-1.5936,-1.5718,0.0,0.0,0.0,0.0,-1.4526,-1.4314,-1.4337,-1.4381,-1.443,-1.4407,-1.4407,-1.4396,-1.4326,0.0,0.0,0.0,0.0,0.0,0.0,0.0,-3.4908,-3.4792,-3.4517,-3.4305,-3.4074,-3.3712,-3.3452,-3.3198,-3.2961,0.0,0.0,0.0,0.0,0.0,0.0,0.0,0.0,0.0,0.0,-2.326,-2.3054,-2.2914,-2.2892,-2.2944,-2.2847,-2.2825,-2.2877,-2.2579,0.0,0.0,0.0,0.0,0.0,0.0,0.0,0.0,0.0,0.0,0.0,0.0,0.0,0.0,0.0,0.0,0.0,0.0,0.0,0.0,-1.7662,-1.6881,-1.5964,-1.5841,-1.5805,-1.5805,-1.5805,-1.5805,-1.5841,-1.5964,-1.6,-1.6035,-1.6105,-1.614,-1.6175,-1.6237,-1.711,-1.8109,-1.8916,-1.9952,-2.0882,0.0,0.0,0.0,0.0,0.0,0.0,0.0,0.0,0.0,0.0,0.0,0.0,0.0,-1.6413,-1.6413,-1.6413,-1.6413,-1.6413,-1.6413,-1.6413,-1.6413,-1.6402,-1.6053,-1.5908,-1.5915,-1.5432,0.0,0.0,0.0,0.0,0.0,-1.4024,-1.3814,-1.3817,-1.3839,-1.3847,-1.3847,-1.3847,-1.3847,-1.3823,0.0,0.0,0.0,0.0,0.0,0.0,0.0,-3.4908,-3.4831,-3.4634,-3.4461,-3.4209,-3.3829,-3.3601,-3.3375,-3.3117,0.0,0.0,0.0,0.0,0.0,0.0,0.0,0.0,0.0,-2.4685,-2.444,-2.4323,-2.4382,-2.4462,-2.4526,-2.4695,-2.4658,-2.4493,-2.4206,0.0,0.0,0.0,0.0,0.0,0.0,0.0,-2.0595,0.0,0.0,0.0,0.0,0.0,0.0,0.0,0.0,0.0,0.0,0.0,0.0,0.0,-1.7847,-1.7079,-1.6881,-1.6811,-1.6733,-1.6473,-1.6612,0.0,0.0,-1.6603,-1.6603,-1.6707,-1.6438,-1.6246,-1.6289,-1.7214,-1.8211,-1.8889,-2.0034,-2.0944,0.0,0.0,0.0,0.0,0.0,0.0,0.0,0.0,0.0,0.0,0.0,0.0,0.0,-1.6144,-1.6058,-1.5846,-1.6202,-1.6413,-1.6413,-1.6413,-1.6319,-1.6143,-1.5825,-1.5625,-1.5411,-1.4945,0.0,0.0,0.0,0.0,0.0,-1.371,-1.3597,-1.3597,-1.3597,-1.3597,-1.3597,-1.3597,-1.3597,-1.3586,0.0,0.0,0.0,0.0,0.0,0.0,0.0,0.0,0.0,0.0,-3.4612,-3.4404,-3.3855,-3.3807,-3.3597,0.0,0.0,0.0,0.0,0.0,0.0,0.0,0.0,0.0,0.0,-2.598,-2.5526,-2.5227,-2.5471,-2.5675,-2.5858,-2.624,-2.6175,-2.5727,-2.5398,0.0,0.0,0.0,0.0,0.0,0.0,0.0,0.0,0.0,0.0,0.0,0.0,0.0,0.0,0.0,0.0,0.0,0.0,0.0,0.0,0.0,0.0,0.0,0.0,-1.858,-1.8335,-1.7643,0.0,0.0,0.0,0.0,0.0,-1.7438,-1.683,-1.6387,-1.6648,-1.7144,-1.7935,-1.9184,-1.9951,0.0,0.0,0.0,0.0,0.0,0.0,0.0,0.0,0.0,0.0,0.0,0.0,0.0,0.0,-1.5643,-1.543,-1.4981,-1.5817,-1.6316,-1.6355,-1.6343,-1.6143,-1.5691,-1.5618,-1.5359,-1.4935,-1.4469,0.0,0.0,0.0,0.0,0.0,-1.3597,-1.3586,-1.3563,-1.3597,-1.3586,-1.3563,-1.3597,-1.3586,-1.3563,0.0,0.0,0.0,0.0,0.0,0.0,0.0,0.0,0.0,0.0,0.0,-3.4404,-3.3855,-3.3753,0.0,0.0,0.0,0.0,0.0,0.0,0.0,0.0,0.0,0.0,0.0,-2.759,-2.7435,-2.7365,-2.7984,-2.8318,-2.8372,-2.8449,-2.8296,-2.7946,-2.7871,0.0,0.0,0.0,0.0,0.0,0.0,0.0,0.0,0.0,0.0,0.0,-2.1472,-2.0906,0.0,0.0,0.0,0.0,0.0,0.0,0.0,0.0,-2.1069,-2.0624,-2.0592,0.0,-1.8465,-1.8297,-1.8365,-1.8499,0.0,0.0,0.0,0.0,0.0,-1.8286,-1.7692,-1.8807,-1.9715,-1.944,-2.0157,-2.0622,0.0,0.0,0.0,0.0,0.0,0.0,0.0,0.0,0.0,0.0,0.0,0.0,0.0,-1.5108,-1.5225,-1.5498,-1.5342,-1.5459,-1.5856,-1.5854,-1.5822,-1.568,-1.4976,-1.4573,-1.4449,-1.3983,0.0,0.0,0.0,0.0,-1.3597,-1.3597,-1.342,-1.316,-1.3491,-1.3409,-1.3194,-1.3491,-1.3539,-1.3372,0.0,0.0,0.0,0.0,0.0,0.0,0.0,0.0,0.0,0.0,0.0,0.0,0.0,0.0,0.0,0.0,0.0,0.0,0.0,0.0,0.0,0.0,0.0,0.0,-2.9031,-2.8982,-2.89,-2.8749,-2.9454,-2.9797,-2.9797,-3.0086,-2.9942,-2.9417,-2.9079,0.0,0.0,0.0,0.0,0.0,-2.6872,0.0,0.0,0.0,0.0,0.0,-2.2608,-2.1918,0.0,-2.1274,-2.1759,-2.2348,0.0,0.0,0.0,0.0,-2.2187,-2.1765,-2.1517,-2.0592,-1.9661,-1.9299,-1.9497,-1.9671,-1.9464,0.0,0.0,0.0,0.0,-1.9464,-1.8707,-1.9516,-2.0084,-1.9341,-1.9897,0.0,0.0,0.0,0.0,0.0,0.0,0.0,0.0,0.0,0.0,0.0,0.0,0.0,0.0,-1.4567,-1.4597,-1.4686,-1.4627,-1.4866,-1.5422,-1.5388,-1.5165,-1.4775,-1.4277,-1.3906,-1.3693,-1.3449,-1.3314,0.0,0.0,0.0,-1.3314,-1.3166,-1.2973,-1.2793,-1.3021,-1.2973,-1.2793,-1.2846,-1.2812,-1.2691,0.0,0.0,0.0,0.0,0.0,0.0,0.0,0.0,0.0,0.0,0.0,0.0,0.0,0.0,0.0,0.0,0.0,0.0,0.0,0.0,0.0,0.0,0.0,-3.1244,-3.0272,-3.0254,-3.0127,-2.9847,-3.0526,-3.0872,-3.0872,-3.1403,-3.126,-3.0571,-2.9883,-2.9376,0.0,0.0,0.0,0.0,-2.8221,0.0,0.0,0.0,0.0,0.0,0.0,0.0,0.0,-2.2484,-2.2775,-2.3137,-2.3279,0.0,0.0,0.0,0.0,0.0,-2.1987,-2.1607,-2.1186,-2.0474,-2.082,-2.1145,-2.0509,0.0,0.0,0.0,0.0,0.0,0.0,-1.9753,0.0,0.0,0.0,0.0,0.0,0.0,0.0,0.0,0.0,0.0,0.0,0.0,0.0,0.0,0.0,0.0,0.0,-1.41,-1.3941,-1.3631,-1.3858,-1.4281,-1.4788,-1.4788,-1.4395,-1.3604,-1.3535,-1.3308,-1.2919,-1.2919,-1.2919,0.0,0.0,0.0,-1.2905,-1.2618,-1.2455,-1.2397,-1.248,-1.2431,-1.2323,-1.208,-1.1963,-1.1839,0.0,0.0,0.0,0.0,0.0,0.0,0.0,0.0,0.0,0.0,0.0,0.0,0.0,0.0,0.0,0.0,0.0,0.0,0.0,0.0,0.0,0.0,-3.2123,-3.162,-3.1449,-3.1449,-3.14,-3.1369,-3.2152,-3.2543,-3.2543,-3.2617,-3.2434,-3.1969,-3.1511,-3.1073,-3.0645,0.0,0.0,0.0,0.0,0.0,0.0,0.0,0.0,0.0,0.0,0.0,0.0,-2.3255,-2.3628,-2.4098,-2.4677,0.0,0.0,0.0,0.0,0.0,-2.2482,-2.2254,-2.1904,-2.1345,-2.1512,-2.178,-2.1637,0.0,0.0,0.0,0.0,0.0,0.0,0.0,0.0,0.0,0.0,0.0,0.0,0.0,0.0,0.0,0.0,0.0,0.0,0.0,0.0,0.0,0.0,0.0,0.0,-1.3601,-1.3761,-1.407,-1.3494,-1.327,-1.3405,-1.3732,-1.3657,-1.3179,-1.2861,-1.266,-1.2569,-1.2569,-1.2569,-1.2569,0.0,-1.2569,-1.2569,-1.252,-1.2298,-1.2026,-1.2382,-1.215,-1.1669,-1.1907,-1.1789,-1.1391,0.0,0.0,0.0,0.0,0.0,0.0,0.0,0.0,0.0,0.0,0.0,0.0,0.0,0.0,0.0,0.0,0.0,0.0,0.0,0.0,0.0,-3.3101,-3.2699,-3.2424,-3.2347,-3.2347,-3.2347,-3.2347,-3.2721,-3.29,-3.29,-3.29,-3.2786,-3.2622,-3.2437,-3.2109,-3.1694,0.0,0.0,0.0,0.0,0.0,0.0,0.0,0.0,0.0,0.0,0.0,0.0,0.0,-2.4766,-2.5329,-2.5593,0.0,0.0,0.0,0.0,0.0,-2.3403,-2.3067,-2.2762,-2.2441,-2.2344,-2.2228,0.0,0.0,0.0,0.0,0.0,0.0,0.0,0.0,0.0,0.0,0.0,0.0,0.0,0.0,0.0,0.0,0.0,0.0,0.0,0.0,0.0,0.0,0.0,0.0,0.0,0.0,-1.3601,-1.3821,-1.3286,-1.2897,-1.2721,-1.2699,-1.2614,-1.2443,-1.2258,-1.2175,-1.2175,-1.2175,-1.2175,-1.2175,0.0,-1.2175,-1.215,-1.1952,-1.1753,-1.1578,-1.1628,-1.1452,-1.1141,-1.0973,-1.0703,-1.0389,0.0,0.0,0.0,0.0,0.0,0.0,0.0,0.0,0.0,0.0,0.0,0.0,0.0,0.0,0.0,0.0,0.0,0.0,0.0,0.0,-3.3259,-3.3101,-3.3117,-3.3088,-3.2948,-3.2948,-3.2948,-3.2948,-3.2948,-3.2948,-3.2916,-3.29,-3.29,-3.29,-3.29,-3.2672,-3.2283,-3.1967,-3.1565,0.0,0.0,0.0,0.0,0.0,0.0,0.0,0.0,0.0,0.0,0.0,0.0,0.0,0.0,0.0,0.0,-2.5425,-2.5146,-2.4899,-2.4481,-2.3998,-2.3631,-2.3673,0.0,0.0,0.0,0.0,0.0,0.0,0.0,0.0,0.0,0.0,0.0,0.0,0.0,0.0,0.0,0.0,0.0,0.0,0.0,0.0,0.0,0.0,0.0,0.0,0.0,0.0,0.0,0.0,-1.3468,-1.3391,-1.3031,-1.2683,-1.2269,-1.1866,-1.1713,-1.1753,-1.1703,-1.1703,-1.1753,-1.1694,-1.1703,-1.1753,-1.1753,-1.1753,-1.1753,-1.1427,-1.1301,-1.1267,-1.0998,-1.082,-1.0641,-1.0095,-0.9777,-0.9588,0.0,0.0,0.0,0.0,0.0,0.0,0.0,0.0,0.0,0.0,0.0,0.0,0.0,0.0,0.0,0.0,0.0,0.0,0.0,0.0,-3.3319,-3.3101,-3.3214,-3.3214,-3.3086,-3.3086,-3.3086,-3.3086,-3.3086,-3.3039,-3.2979,-3.2932,-3.29,-3.29,-3.29,-3.2672,-3.2301,-3.2266,-3.202,-3.1603,0.0,0.0,0.0,0.0,0.0,0.0,0.0,0.0,0.0,0.0,0.0,0.0,0.0,0.0,-2.6084,-2.6029,-2.5536,-2.5099,-2.5625,-2.506,-2.4476,-2.5008,-2.4253,0.0,-2.328,-2.3117,0.0,-2.2947,0.0,0.0,0.0,0.0,0.0,0.0,0.0,0.0,0.0,0.0,0.0,0.0,0.0,0.0,0.0,0.0,0.0,0.0,0.0,0.0,0.0,0.0,0.0,-1.306,-1.2666,-1.2252,-1.1857,-1.1507,-1.1352,-1.1352,-1.1099,-1.1099,-1.1318,-1.1099,-1.1099,-1.1352,-1.1352,-1.1352,-1.1352,-1.1318,-1.1301,-1.1267,-1.0998,-1.0565,-1.0025,-0.9751,-0.9614,-0.9588,0.0,0.0,0.0,0.0,0.0,0.0,0.0,0.0,0.0,0.0,0.0,0.0,0.0,0.0,0.0,0.0,0.0,0.0,0.0,0.0,-3.3364,-3.3304,-3.3307,-3.3277,-3.3229,-3.3088,-3.3026,-3.2979,-3.2979,-3.2963,-3.2932,-3.2916,-3.29,-3.29,-3.29,-3.282,-3.2655,-3.2403,-3.2074,-3.1658,-3.1261,0.0,0.0,0.0,0.0,0.0,0.0,0.0,0.0,0.0,-2.7233,-2.7457,-2.6739,-2.6365,-2.6206,-2.6111,-2.5839,-2.5562,-2.5685,-2.5345,-2.4998,-2.5127,-2.4637,0.0,0.0,-2.2774,-2.2268,-2.2268,-2.0875,0.0,0.0,0.0,0.0,0.0,0.0,0.0,0.0,0.0,0.0,0.0,0.0,0.0,0.0,0.0,0.0,0.0,0.0,0.0,0.0,0.0,0.0,-1.3017,-1.2454,-1.1971,-1.1557,-1.1052,-1.0794,-1.0794,-1.0871,-1.0947,-1.1049,-1.0769,-1.0701,-1.082,-1.0972,-1.1049,-1.1049,-1.1049,-1.115,-1.1251,-1.082,-1.0275,-0.9725,-0.964,-0.9588,-0.9562,0.0,0.0,0.0,0.0,0.0,0.0,0.0,0.0,0.0,0.0,0.0,0.0,0.0,0.0,0.0,0.0,0.0,0.0,0.0,-3.3393,-3.3396,-3.3367,-3.3337,-3.3307,-3.3247,-3.3137,-3.306,-3.2945,-3.2948,-3.2932,-3.2932,-3.2916,-3.29,-3.29,-3.29,-3.29,-3.2884,-3.2606,-3.2266,-3.1841,-3.1452,-3.1044,0.0,0.0,0.0,0.0,0.0,0.0,0.0,0.0,-2.8022,-2.8119,-2.7082,-2.6537,-2.6286,-2.6138,-2.5866,-2.5674,-2.5904,-2.5482,-2.5081,-2.5349,0.0,0.0,-2.3486,-2.251,-2.1794,-2.1794,-2.0382,0.0,0.0,0.0,0.0,0.0,0.0,0.0,0.0,0.0,0.0,0.0,0.0,0.0,0.0,0.0,0.0,0.0,0.0,0.0,0.0,0.0,0.0,0.0,-1.1969,-1.1497,-1.1119,-1.0719,-1.0496,-1.0496,-1.059,-1.0667,-1.0769,-1.0462,-1.0393,-1.0522,-1.0693,-1.0769,-1.0769,-1.0769,-1.082,-1.0837,-1.0488,-1.0043,-0.9588,-0.9465,-0.9413,-0.9361,0.0,0.0,0.0,0.0,0.0,0.0,0.0,0.0,0.0,0.0,0.0,0.0,0.0,0.0,0.0,0.0,0.0,0.0,-3.3393,-3.3393,-3.3367,-3.3292,-3.3367,-3.3319,-3.3101,-3.3229,-3.3229,-3.3101,-3.3026,-3.2995,-3.2995,-3.2932,-3.29,-3.29,-3.29,-3.29,-3.29,-3.29,-3.2672,-3.2266,-3.186,-3.1452,-3.1064,0.0,0.0,0.0,0.0,0.0,0.0,0.0,-2.8732,-2.8192,-2.7525,-2.6837,-2.6286,-2.6138,-2.5591,-2.5234,-2.6397,-2.5571,-2.4661,0.0,0.0,0.0,-2.3486,-2.251,-2.1794,-2.1794,0.0,0.0,0.0,0.0,0.0,0.0,0.0,0.0,0.0,0.0,0.0,0.0,0.0,0.0,0.0,0.0,0.0,0.0,0.0,0.0,0.0,0.0,0.0,0.0,-1.1173,-1.083,-1.0496,-1.0496,-1.0496,-1.0496,-1.0154,-1.018,-1.047,-1.0154,-1.018,-1.0496,-1.0496,-1.0496,-1.0496,-1.0496,-1.0283,-0.9999,-0.9999,-0.9836,-0.9536,-0.9133,-0.8982,-0.8929,0.0,0.0,0.0,0.0,0.0,0.0,0.0,0.0,0.0,0.0,0.0,0.0,0.0,0.0,0.0,0.0,0.0,0.0,-3.3393,-3.3393,-3.3396,-3.3367,-3.3337,-3.3307,-3.3247,-3.3198,-3.315,-3.3101,-3.307,-3.3055,-3.3055,-3.3011,-3.2963,-3.2963,-3.2916,-3.29,-3.29,-3.29,-3.2672,-3.2266,-3.186,-3.1452,-3.1064,0.0,0.0,0.0,0.0,0.0,0.0,0.0,0.0,0.0,-2.7082,-2.6551,-2.6286,-2.6138,-2.5591,-2.5148,-2.5752,-2.5179,0.0,-2.5222,0.0,0.0,0.0,-2.251,0.0,0.0,0.0,0.0,0.0,0.0,0.0,0.0,0.0,0.0,0.0,0.0,0.0,0.0,0.0,0.0,0.0,0.0,0.0,0.0,0.0,0.0,0.0,0.0,0.0,0.0,-1.0981,-1.0539,-1.0162,-0.9966,-0.988,-0.9855,-0.9777,-0.9855,-1.0128,-0.9855,-0.9777,-0.9855,-0.9777,-0.9725,-0.9751,-0.9932,-0.9725,-0.9323,-0.9498,-0.923,-0.8732,-0.8633,-0.8586,-0.8501,0.0,0.0,0.0,0.0,0.0,0.0,0.0,0.0,0.0,0.0,-3.4691,-3.4553,0.0,0.0,0.0,0.0,0.0,0.0,0.0,0.0,-3.3393,-3.3393,-3.3367,-3.3337,-3.3337,-3.3259,-3.3226,-3.3226,-3.3132,-3.3101,-3.3101,-3.3073,-3.3042,-3.3042,-3.3011,-3.2963,-3.2932,-3.2932,-3.2688,-3.2266,-3.186,-3.1452,-3.1064,0.0,0.0,0.0,0.0,0.0,0.0,0.0,0.0,0.0,-2.7056,-2.6551,-2.6233,-2.5784,-2.5147,-2.4675,-2.5029,-2.4551,0.0,-2.4708,-2.4009,-2.3005,-2.2349,0.0,0.0,0.0,0.0,0.0,0.0,0.0,0.0,0.0,0.0,0.0,0.0,0.0,0.0,0.0,0.0,0.0,0.0,0.0,0.0,0.0,0.0,0.0,0.0,0.0,0.0,0.0,-1.0082,-0.9606,-0.9368,-0.9368,-0.9283,-0.9126,-0.9283,-0.9368,-0.9368,-0.9368,-0.9283,-0.9126,-0.9047,-0.8995,-0.9021,-0.9171,-0.9047,-0.8771,-0.8949,-0.8765,-0.8368,-0.8182,-0.8129,-0.8049,0.0,0.0,0.0,0.0,0.0,0.0,0.0,0.0,0.0,0.0,-3.4607,-3.4377,0.0,0.0,0.0,0.0,0.0,0.0,0.0,0.0,-3.3484,-3.3393,-3.3393,-3.3393,-3.3393,-3.3393,-3.3393,-3.3393,-3.3211,-3.3117,-3.3117,-3.3117,-3.3101,-3.3101,-3.3086,-3.3057,-3.2979,-3.2979,-3.2737,-3.2318,-3.1895,-3.1471,-3.1103,-3.0675,0.0,0.0,0.0,0.0,0.0,0.0,0.0,0.0,-2.7363,-2.6721,-2.6138,-2.5314,-2.458,-2.4033,-2.438,0.0,0.0,-2.427,-2.3677,0.0,-2.0769,0.0,0.0,0.0,0.0,0.0,0.0,0.0,0.0,0.0,0.0,0.0,0.0,0.0,0.0,0.0,0.0,0.0,0.0,0.0,0.0,0.0,0.0,0.0,0.0,0.0,0.0,-0.9446,-0.8763,-0.8395,-0.8395,-0.8771,-0.8771,-0.8395,-0.8771,-0.8745,-0.8342,-0.8771,-0.8718,-0.8342,-0.8342,-0.8342,-0.8342,-0.8342,-0.8342,-0.8342,-0.8342,-0.8315,-0.8235,-0.7803,-0.7643,-0.7589,0.0,0.0,0.0,0.0,0.0,0.0,0.0,0.0,0.0,0.0,0.0,0.0,0.0,0.0,0.0,0.0,0.0,0.0,0.0,0.0,-3.4063,-3.3429,-3.3393,-3.3393,-3.3393,-3.3393,-3.3393,-3.3393,-3.3349,-3.3334,-3.3334,-3.3274,-3.3198,-3.3101,-3.3042,-3.2979,-3.2916,-3.2916,-3.285,-3.2705,-3.1985,-3.164,-3.149,-3.0781,-3.0464,0.0,0.0,0.0,0.0,0.0,0.0,0.0,-2.7363,-2.6721,-2.6233,-2.5811,-2.4823,-2.4046,-2.4878,-2.4071,0.0,0.0,-2.3276,-2.1603,-1.9952,0.0,0.0,0.0,0.0,0.0,0.0,0.0,0.0,0.0,0.0,0.0,0.0,0.0,0.0,0.0,0.0,0.0,0.0,0.0,0.0,0.0,0.0,0.0,0.0,0.0,0.0,-0.8961,-0.8595,-0.8395,-0.8395,-0.8474,-0.8474,0.0,-0.8474,-0.8289,-0.7857,-0.8315,-0.8289,-0.7857,-0.7857,-0.7857,-0.7857,-0.7857,-0.7857,-0.7857,-0.7857,-0.767,-0.7381,-0.7273,-0.7219,-0.7219,0.0,0.0,0.0,0.0,0.0,0.0,0.0,0.0,0.0,0.0,0.0,0.0,0.0,0.0,0.0,0.0,0.0,0.0,0.0,0.0,0.0,-3.4009,-3.361,-3.3393,-3.3393,-3.3393,-3.3393,-3.3393,-3.3393,-3.3393,-3.3393,-3.3367,-3.3304,-3.3241,-3.3214,-3.3119,-3.3011,-3.3011,-3.2963,-3.2818,-3.2021,-3.1695,-3.1603,-3.0801,-3.0464,-3.0396,-3.0248,0.0,0.0,0.0,0.0,0.0,0.0,0.0,-2.6206,-2.5619,-2.4709,-2.3981,-2.4292,0.0,0.0,-2.3178,0.0,-2.0808,0.0,0.0,0.0,0.0,0.0,0.0,0.0,0.0,0.0,0.0,0.0,0.0,0.0,0.0,0.0,0.0,0.0,0.0,0.0,0.0,0.0,0.0,0.0,0.0,0.0,-0.8983,-0.8718,-0.8291,-0.7961,-0.7783,-0.7783,-0.7969,-0.7969,-0.7783,-0.7969,-0.7836,-0.7429,-0.767,-0.7649,-0.7402,-0.7402,-0.7402,-0.7402,-0.7402,-0.7402,-0.7402,-0.7402,-0.73,-0.7112,-0.7112,-0.7112,-0.7112,0.0,0.0,0.0,0.0,0.0,0.0,0.0,0.0,0.0,0.0,0.0,0.0,0.0,0.0,0.0,0.0,0.0,0.0,0.0,0.0,0.0,0.0,-3.4045,-3.361,-3.361,-3.3465,-3.3393,-3.3393,-3.3393,-3.3393,0.0,-3.3393,-3.3378,-3.3364,-3.3349,-3.3241,-3.307,-3.307,-3.2961,-3.2737,-3.2003,-3.1658,-3.1509,-3.0781,-3.0464,-3.0401,-3.0253,-3.0124,-2.9951,-2.9409,0.0,0.0,0.0,0.0,-2.6138,-2.537,-2.4595,-2.3916,-2.3623,0.0,-2.2731,-2.1882,-2.0996,0.0,0.0,0.0,0.0,0.0,0.0,0.0,0.0,0.0,0.0,0.0,0.0,0.0,0.0,0.0,0.0,0.0,0.0,0.0,0.0,0.0,0.0,0.0,0.0,0.0,-0.8321,-0.837,-0.8154,-0.7601,-0.7268,-0.7112,-0.7112,-0.7429,-0.7429,-0.7112,-0.7429,-0.7429,-0.7112,-0.7112,-0.7112,-0.7112,-0.7112,-0.7112,-0.7112,-0.7112,-0.7112,-0.7112,-0.7112,-0.7112,-0.7112,-0.7112,-0.7112,-0.7112,0.0,0.0,0.0,0.0,0.0,0.0,0.0,0.0,0.0,0.0,-3.9069,-3.9482,0.0,0.0,0.0,0.0,0.0,0.0,0.0,0.0,0.0,0.0,-3.4878,-3.4443,-3.4443,-3.3755,-3.3393,-3.3393,-3.3393,0.0,0.0,0.0,0.0,-3.3307,0.0,-3.3104,-3.3011,-3.2948,-3.2721,-3.2335,-3.1878,-3.149,-3.1142,-3.0658,-3.0489,-3.0464,-3.0274,-3.0189,-3.0124,-2.988,-2.9136,0.0,0.0,0.0,-2.6233,-2.5866,-2.4851,-2.3887,0.0,0.0,-2.1704,0.0,-2.0422,-1.9573,0.0,0.0,0.0,0.0,0.0,0.0,0.0,0.0,0.0,0.0,0.0,0.0,0.0,0.0,0.0,0.0,0.0,0.0,0.0,0.0,0.0,0.0,-0.8439,-0.8234,-0.7901,-0.7665,-0.7454,-0.7198,-0.7139,-0.7112,-0.7112,-0.7166,-0.7166,-0.7112,-0.7166,-0.7166,-0.7112,-0.7112,-0.7112,-0.7112,-0.7112,-0.7112,-0.7112,-0.7112,-0.7112,-0.7112,-0.7112,-0.7112,-0.7112,-0.7112,-0.7112,-0.7112,0.0,0.0,0.0,0.0,0.0,0.0,0.0,0.0,0.0,0.0,0.0,-3.99,0.0,0.0,0.0,0.0,0.0,0.0,0.0,0.0,0.0,0.0,-3.5711,-3.5062,-3.4624,-3.4247,-3.3846,-3.3393,0.0,0.0,0.0,-3.3337,-3.3322,0.0,0.0,0.0,0.0,-3.2963,-3.2705,-3.2266,-3.186,-3.1452,-3.1064,0.0,0.0,0.0,0.0,0.0,-3.0184,-3.0011,-2.8996,-2.7765,-2.7529,0.0,0.0,0.0,-2.4218,-2.337,-2.3275,-2.1897,-2.047,0.0,-1.9521,-1.8469,0.0,0.0,0.0,0.0,0.0,0.0,0.0,0.0,0.0,0.0,0.0,0.0,0.0,0.0,0.0,0.0,0.0,0.0,0.0,0.0,0.0,0.0,-0.8317,-0.8079,-0.7812,-0.7551,-0.731,-0.7117,-0.7112,-0.7112,-0.7112,-0.7112,-0.7112,-0.7112,-0.7112,-0.7112,-0.7112,-0.7112,-0.7112,-0.7112,-0.7112,-0.7112,-0.7112,-0.7112,-0.7112,-0.7112,-0.7112,-0.7112,-0.7112,-0.7112,-0.7112,-0.7112,0.0,0.0,0.0,0.0,0.0,0.0,0.0,0.0,0.0,0.0,0.0,0.0,0.0,0.0,0.0,0.0,0.0,0.0,0.0,0.0,0.0,0.0,0.0,-3.5729,-3.4932,-3.4715,-3.4193,-3.3382,0.0,0.0,-3.3247,-3.3247,-3.3247,0.0,-3.3119,-3.3057,0.0,0.0,0.0,-3.2109,-3.1805,0.0,0.0,0.0,0.0,0.0,0.0,0.0,0.0,0.0,0.0,0.0,-2.7156,-2.5886,0.0,0.0,0.0,0.0,0.0,0.0,-1.9295,-1.9788,-1.872,-1.7425,0.0,0.0,0.0,0.0,0.0,0.0,0.0,0.0,0.0,0.0,0.0,0.0,0.0,0.0,0.0,0.0,0.0,0.0,0.0,0.0,0.0,0.0,-0.8263,-0.8014,-0.7806,-0.7492,-0.7245,-0.7117,-0.7112,-0.7112,-0.7112,-0.7112,-0.7112,-0.7112,-0.7112,-0.7112,-0.7112,-0.7112,-0.7112,-0.7112,-0.7112,-0.7112,-0.7085,-0.695,-0.6972,-0.7085,-0.6918,-0.6972,-0.7112,-0.7112,-0.7112,-0.7085,0.0,0.0,0.0,0.0,0.0,0.0,0.0,0.0,0.0,0.0,0.0,0.0,0.0,0.0,-3.9781,-3.9495,0.0,0.0,0.0,0.0,0.0,0.0,0.0,0.0,0.0,-3.4989,-3.4163,0.0,0.0,0.0,-3.3101,-3.3101,-3.3088,-3.3028,-3.3013,-3.2995,-3.3013,0.0,0.0,0.0,0.0,0.0,0.0,0.0,0.0,0.0,0.0,0.0,0.0,0.0,0.0,0.0,0.0,0.0,0.0,0.0,0.0,0.0,0.0,-1.9566,0.0,-1.9202,0.0,0.0,0.0,0.0,0.0,0.0,0.0,0.0,0.0,0.0,0.0,0.0,0.0,0.0,0.0,0.0,0.0,0.0,0.0,0.0,0.0,0.0,0.0,0.0,-0.8081,-0.7812,-0.7801,-0.7354,-0.7095,-0.7112,-0.7112,-0.7112,-0.7112,-0.7112,-0.7112,-0.7112,-0.7112,-0.7112,-0.7112,-0.7112,-0.7112,-0.7112,-0.7112,-0.7112,-0.7058,-0.648,-0.6588,-0.7058,-0.648,-0.6588,-0.7112,-0.7112,-0.7112,-0.7031,0.0,0.0,0.0,0.0,0.0,0.0,0.0,0.0,0.0,0.0,0.0,0.0,0.0,-3.9747,-3.952,-3.9203,-3.8744,0.0,0.0,0.0,0.0,0.0,0.0,0.0,0.0,-3.5783,0.0,0.0,0.0,-3.3259,-3.3101,-3.3057,-3.2995,-3.2932,-3.2932,-3.2932,-3.2932,-3.2916,0.0,0.0,0.0,0.0,0.0,0.0,0.0,0.0,0.0,0.0,0.0,0.0,0.0,0.0,0.0,0.0,0.0,0.0,0.0,0.0,0.0,0.0,0.0,-1.8203,-1.7156,0.0,0.0,0.0,0.0,0.0,0.0,0.0,0.0,0.0,0.0,0.0,0.0,0.0,0.0,0.0,0.0,0.0,0.0,0.0,0.0,0.0,0.0,0.0,0.0,-0.7731,-0.7557,-0.7262,-0.7112,-0.7112,-0.7112,-0.7112,-0.7112,-0.7112,-0.7112,-0.7112,-0.7112,-0.7112,-0.7085,-0.6701,-0.6507,-0.6507,-0.6127,-0.6154,-0.648,-0.5878,-0.5741,-0.5932,-0.5714,-0.5991,-0.6507,-0.6507,-0.6507,-0.6485,0.0,0.0,0.0,0.0,0.0,0.0,0.0,0.0,0.0,0.0,0.0,0.0,0.0,0.0,-3.9326,-3.89,-3.8462,-3.8241,-3.8322,-3.8241,0.0,0.0,0.0,0.0,0.0,-3.6405,-3.5596,-3.4467,0.0,0.0,0.0,-3.3011,-3.2963,-3.29,-3.29,-3.29,0.0,0.0,0.0,-3.1711,0.0,0.0,-3.0903,0.0,0.0,0.0,0.0,0.0,0.0,0.0,0.0,0.0,0.0,0.0,0.0,0.0,0.0,0.0,-1.9972,0.0,0.0,0.0,0.0,-1.5682,0.0,0.0,0.0,0.0,0.0,0.0,0.0,0.0,0.0,0.0,0.0,0.0,0.0,0.0,0.0,0.0,0.0,0.0,0.0,0.0,0.0,0.0,0.0,0.0,-0.6854,-0.6994,-0.7112,-0.7112,-0.7004,-0.7004,-0.7112,-0.7004,-0.7004,-0.7112,-0.6891,-0.681,-0.6783,-0.6182,-0.5909,-0.5878,-0.5281,-0.5363,-0.5855,-0.5281,-0.5144,-0.5277,-0.5089,-0.5391,-0.5909,-0.5909,-0.5909,-0.5878,0.0,0.0,0.0,0.0,0.0,0.0,0.0,0.0,0.0,-3.8994,0.0,0.0,0.0,0.0,0.0,-3.8646,-3.8354,-3.8305,-3.8569,-3.8354,0.0,0.0,0.0,0.0,0.0,-3.6794,-3.5936,-3.4246,-3.4239,-3.3795,-3.29,0.0,-3.2948,-3.2884,-3.2884,-3.2884,-3.2852,0.0,-3.2074,-3.1727,0.0,-3.1947,-3.1681,0.0,0.0,0.0,-3.1748,-3.1331,0.0,-2.9703,0.0,0.0,0.0,0.0,0.0,0.0,0.0,0.0,0.0,0.0,0.0,0.0,0.0,0.0,-1.5033,0.0,0.0,0.0,0.0,0.0,0.0,0.0,0.0,0.0,0.0,0.0,0.0,0.0,0.0,0.0,0.0,0.0,0.0,0.0,0.0,0.0,-0.6476,-0.6395,-0.5711,-0.6538,-0.7058,-0.7058,-0.681,-0.6788,-0.7058,-0.681,-0.681,-0.7025,-0.6453,-0.6182,-0.6154,-0.555,-0.5281,-0.525,-0.4708,-0.4763,-0.5199,-0.468,-0.4791,-0.5195,-0.468,-0.4787,-0.5281,-0.5281,-0.5281,-0.5195,0.0,0.0,0.0,0.0,0.0,0.0,0.0,0.0,0.0,0.0,0.0,0.0,0.0,-3.8919,-3.8688,-3.8338,-3.8241,-3.8224,-3.8323,-3.8241,-3.8224,-3.8305,-3.8241,-3.8032,-3.7677,-3.6575,-3.5715,-3.5135,-3.3938,-3.3225,-3.2963,-3.2932,-3.2753,0.0,-3.2472,-3.23,-3.2039,-3.2214,0.0,0.0,-3.2074,-3.1947,0.0,0.0,0.0,0.0,0.0,-3.1242,-3.0904,0.0,-2.7933,-2.6074,0.0,0.0,0.0,0.0,0.0,0.0,-1.9048,0.0,0.0,0.0,0.0,0.0,-1.5003,-1.4065,0.0,0.0,0.0,0.0,0.0,0.0,0.0,0.0,0.0,0.0,0.0,0.0,0.0,0.0,0.0,0.0,0.0,0.0,0.0,0.0,-0.5885,-0.5821,-0.5441,-0.5662,-0.5796,-0.5796,-0.5964,-0.5964,-0.5796,-0.6154,-0.6154,-0.5796,-0.5769,-0.5687,-0.5523,-0.4725,-0.4481,-0.468,-0.3993,-0.3855,-0.4049,-0.3913,-0.3941,-0.4049,-0.3913,-0.4215,-0.4736,-0.4736,-0.4736,-0.4708,0.0,0.0,0.0,0.0,0.0,0.0,0.0,0.0,-3.8494,0.0,0.0,0.0,0.0,0.0,-3.837,-3.8225,-3.8289,-3.837,-3.837,-3.837,-3.837,-3.837,-3.8257,-3.796,-3.7463,-3.658,-3.5722,-3.4926,-3.3929,-3.3287,-3.2948,-3.2737,-3.2521,0.0,0.0,0.0,0.0,0.0,0.0,0.0,-3.1793,0.0,0.0,-3.2415,-3.2657,0.0,0.0,0.0,-3.1,-2.9318,-2.7419,0.0,0.0,0.0,0.0,0.0,0.0,0.0,0.0,0.0,0.0,0.0,0.0,0.0,-1.5009,-1.3819,-1.2632,0.0,0.0,0.0,0.0,0.0,0.0,0.0,0.0,0.0,0.0,0.0,0.0,0.0,0.0,0.0,0.0,-0.4443,-0.4439,-0.4665,-0.4935,-0.5121,-0.5203,-0.4976,-0.4948,-0.5222,-0.5304,-0.5277,-0.5144,-0.5363,-0.5363,-0.5144,-0.4999,-0.4862,-0.4725,-0.3981,-0.3735,-0.3879,-0.3466,-0.333,-0.3385,-0.3385,-0.3471,-0.3613,-0.3613,-0.3805,-0.4135,-0.4135,-0.4076,-0.4049,0.0,0.0,0.0,-3.8241,-3.8209,-3.8209,0.0,0.0,-3.8209,0.0,0.0,0.0,0.0,0.0,0.0,0.0,-3.8449,-3.8585,-3.8572,-3.8585,-3.8585,-3.8572,-3.8322,-3.771,-3.673,-3.6605,-3.5749,-3.4115,-3.3958,-3.3531,-3.2818,-3.242,-3.2214,-3.2144,0.0,0.0,0.0,0.0,0.0,-3.1072,-3.1449,-3.1598,0.0,0.0,-3.2702,-3.2575,-3.1643,-3.1353,-3.1056,-2.8803,-2.66,0.0,0.0,0.0,0.0,0.0,-2.1091,0.0,0.0,0.0,0.0,0.0,0.0,0.0,-1.5051,-1.3678,-1.242,-1.195,0.0,0.0,0.0,0.0,0.0,0.0,0.0,0.0,0.0,0.0,0.0,0.0,0.0,0.0,-0.3742,-0.3651,-0.3515,-0.3378,-0.38,-0.4308,-0.4838,-0.437,-0.4315,-0.4862,-0.467,-0.4618,-0.4704,-0.4515,-0.4543,-0.4704,-0.4174,-0.3926,-0.3871,-0.3322,-0.3077,-0.3102,-0.3077,-0.3077,-0.3102,-0.3102,-0.3272,-0.3555,-0.3555,-0.3555,-0.3555,-0.3583,-0.3499,-0.3357,0.0,0.0,0.0,0.0,-3.8209,-3.8209,-3.8209,0.0,0.0,0.0,0.0,0.0,0.0,0.0,0.0,0.0,-3.8449,-3.851,-3.8289,-3.8478,-3.851,-3.829,-3.8121,-3.7624,-3.673,-3.6016,-3.5144,-3.4115,-3.3121,-3.2579,-3.2403,-3.202,-3.164,-3.1319,0.0,0.0,0.0,0.0,0.0,-3.068,-3.1343,0.0,-3.1681,-3.2415,-3.2702,-3.2597,-3.1753,-3.1209,-3.0396,-2.7311,-2.5622,-2.4568,0.0,0.0,0.0,0.0,0.0,0.0,0.0,0.0,0.0,0.0,0.0,0.0,-1.5206,-1.4551,-1.3858,0.0,0.0,0.0,0.0,0.0,0.0,0.0,0.0,0.0,0.0,0.0,0.0,0.0,0.0,0.0,-0.3482,-0.3353,-0.3221,-0.3091,-0.322,-0.3375,-0.3489,-0.3378,-0.3378,-0.3489,-0.3707,-0.371,-0.3461,-0.3882,-0.3882,-0.3461,-0.3491,-0.3436,-0.3267,-0.2938,-0.2884,-0.3102,-0.2998,-0.2996,-0.3102,-0.3102,-0.313,-0.3216,-0.3385,-0.333,-0.3244,-0.3499,-0.3413,-0.3188,0.0,0.0,0.0,0.0,-3.8209,-3.8209,0.0,0.0,0.0,0.0,0.0,0.0,0.0,0.0,0.0,0.0,0.0,0.0,0.0,0.0,-3.8478,-3.8225,-3.807,-3.739,-3.6136,-3.564,-3.477,-3.3491,-3.29,-3.2506,-3.2283,-3.1895,-3.1471,-3.1044,0.0,0.0,0.0,0.0,-3.0506,-3.0522,-3.0903,0.0,-3.1085,-3.147,-3.1603,-3.1532,-3.1115,-3.0145,-2.8775,-2.6627,-2.5252,0.0,0.0,-2.2783,-2.2586,0.0,-2.1817,-2.1177,0.0,0.0,0.0,-1.8471,0.0,0.0,0.0,-1.5167,-1.4373,-1.3213,0.0,0.0,0.0,0.0,0.0,0.0,0.0,0.0,0.0,0.0,0.0,0.0,0.0,0.0,-0.3223,-0.3066,-0.2973,-0.2848,-0.2882,-0.294,-0.2996,-0.2996,-0.2996,-0.2996,-0.3163,-0.3132,-0.2912,-0.319,-0.319,-0.2912,-0.2996,-0.2996,-0.2884,-0.2772,-0.2772,-0.2912,-0.283,-0.283,-0.2912,-0.2912,-0.2912,-0.2912,-0.316,-0.3188,-0.313,-0.3299,-0.319,-0.3023,-3.7089,0.0,0.0,0.0,-3.814,0.0,0.0,0.0,0.0,0.0,0.0,0.0,0.0,0.0,0.0,0.0,0.0,0.0,0.0,0.0,0.0,0.0,-3.8054,-3.7211,-3.5526,-3.5392,-3.4539,-3.29,-3.2737,-3.2505,-3.2162,-3.1695,-3.1278,0.0,0.0,0.0,0.0,0.0,0.0,-3.0326,0.0,-3.0405,-3.0506,-3.0506,-3.0506,-3.0452,-3.0089,-2.8862,-2.7242,-2.6184,0.0,-2.4076,-2.3302,-2.2949,0.0,0.0,0.0,0.0,0.0,0.0,0.0,0.0,0.0,-1.695,0.0,0.0,0.0,-1.3791,0.0,0.0,0.0,0.0,0.0,0.0,0.0,0.0,0.0,0.0,0.0,0.0,0.0,0.0,0.0,-0.2852,-0.277,-0.2697,-0.2691,-0.2747,-0.286,-0.286,-0.286,-0.286,-0.286,-0.2805,-0.2691,-0.2691,-0.2691,-0.2691,-0.2691,-0.2691,-0.2691,-0.2691,-0.2691,-0.2691,-0.2691,-0.2691,-0.2691,-0.2691,-0.2691,-0.2719,-0.2965,-0.3049,-0.3021,-0.3074,-0.2996,-0.286,-3.6829,-3.741,0.0,0.0,0.0,0.0,0.0,0.0,0.0,0.0,0.0,0.0,0.0,0.0,0.0,0.0,0.0,0.0,-3.8035,0.0,0.0,0.0,0.0,0.0,-3.5445,-3.529,-3.4471,-3.29,-3.2197,-3.1805,-3.175,-3.0985,-3.0613,0.0,-3.0443,0.0,0.0,0.0,-3.0135,0.0,-2.9695,-3.0032,0.0,-3.0506,-3.0506,-3.0302,-2.8865,-2.7802,-2.6871,0.0,-2.494,-2.45,0.0,-2.3493,-2.3246,0.0,0.0,0.0,0.0,0.0,0.0,0.0,-1.8041,0.0,0.0,0.0,-1.4746,-1.367,0.0,0.0,0.0,0.0,0.0,0.0,0.0,0.0,0.0,0.0,0.0,0.0,0.0,0.0,0.0,-0.2758,-0.2703,-0.2693,-0.2691,-0.2719,-0.2719,-0.2719,-0.2719,-0.2719,-0.2719,-0.2719,-0.2691,-0.2691,-0.2691,-0.2691,-0.2691,-0.2691,-0.2691,-0.2691,-0.2691,-0.2691,-0.2691,-0.2691,-0.2691,-0.2691,-0.2691,-0.2719,-0.2858,-0.2858,-0.2772,-0.3021,-0.2938,-0.2747,-3.6182,-3.6709,0.0,0.0,0.0,0.0,0.0,0.0,0.0,0.0,0.0,0.0,0.0,0.0,0.0,0.0,0.0,-3.8153,0.0,0.0,0.0,0.0,0.0,0.0,0.0,-3.5273,-3.4436,-3.29,-3.2335,-3.1931,-3.1677,-3.1123,-3.0699,0.0,-3.0401,0.0,-2.9881,0.0,-3.0027,0.0,0.0,0.0,0.0,-2.974,-2.9669,-2.9279,-2.8325,-2.7052,-2.5705,0.0,-2.4395,0.0,0.0,0.0,0.0,0.0,0.0,0.0,0.0,0.0,0.0,0.0,0.0,0.0,-1.6621,0.0,-1.5512,0.0,0.0,0.0,0.0,0.0,0.0,0.0,-0.845,0.0,0.0,0.0,0.0,0.0,0.0,0.0,0.0,0.0,0.0,0.0,-0.2691,-0.2691,-0.2691,-0.2691,-0.2691,-0.2691,-0.2691,-0.2691,-0.2691,-0.2691,-0.2691,-0.2691,-0.2691,-0.2691,-0.2691,-0.2691,-0.2691,-0.2691,-0.2691,-0.2691,-0.2691,-0.2691,-0.2691,-0.2719,-0.2775,-0.2747,-0.2719,-0.2828,-0.2802,-0.2719,-3.5579,0.0,0.0,0.0,0.0,0.0,0.0,0.0,0.0,0.0,0.0,0.0,-3.8209,-3.8157,0.0,0.0,-3.7932,-3.7915,0.0,0.0,-3.7915,0.0,0.0,0.0,0.0,0.0,-3.4436,-3.29,-3.2386,-3.1985,-3.1677,-3.1181,-3.074,-3.0438,0.0,-3.0006,-2.9473,0.0,0.0,-2.9064,-2.8798,-2.8309,-2.785,-2.8424,-2.8357,-2.7815,-2.729,-2.6081,-2.4664,-2.4223,-2.3955,0.0,-2.3282,0.0,0.0,0.0,0.0,0.0,-2.182,0.0,0.0,0.0,0.0,0.0,0.0,0.0,0.0,0.0,0.0,0.0,0.0,0.0,0.0,0.0,0.0,0.0,0.0,0.0,0.0,0.0,0.0,0.0,0.0,0.0,0.0,-0.2691,-0.2691,-0.2691,-0.2691,-0.2691,-0.2691,-0.2691,-0.2691,-0.2691,-0.2691,-0.2691,-0.2691,-0.2691,-0.2691,-0.2691,-0.2691,-0.2691,-0.2691,-0.2691,-0.2691,-0.2691,-0.2691,-0.2691,-0.2691,-0.2691,-0.2691,-0.2691,-0.2691,-0.2691,-0.2691,-0.2691,-3.5218,-3.649,0.0,0.0,0.0,0.0,0.0,0.0,0.0,0.0,0.0,0.0,0.0,0.0,0.0,0.0,0.0,-3.7703,-3.7703,0.0,-3.7703,0.0,0.0,-3.6934,0.0,0.0,0.0,-3.29,-3.2109,-3.1714,-3.1677,-3.0902,-3.051,-3.0506,-3.0295,-2.9984,-2.9585,-2.9409,-2.8709,-2.7699,-2.7119,-2.6398,-2.5771,0.0,-2.6481,-2.6001,-2.5338,0.0,0.0,-2.3958,-2.3831,0.0,0.0,0.0,0.0,0.0,0.0,0.0,0.0,0.0,0.0,-1.9007,0.0,0.0,0.0,0.0,-1.549,0.0,0.0,0.0,0.0,0.0,0.0,0.0,0.0,0.0,0.0,0.0,0.0,0.0,0.0,0.0,0.0,0.0,0.0,-0.2691,-0.2691,-0.2691,-0.2691,-0.2691,-0.2691,-0.2691,-0.2691,-0.2691,-0.2691,-0.2691,-0.2691,-0.2691,-0.2691,-0.2691,-0.2691,-0.2691,-0.2691,-0.2691,-0.2691,-0.2691,-0.2691,-0.2691,-0.2691,-0.2691,-0.2691,-0.2691,-0.2691,-0.2691,-0.2691,-0.2691,0.0,0.0,0.0,0.0,0.0,0.0,0.0,-3.7613,0.0,0.0,0.0,0.0,0.0,-3.7229,-3.721,0.0,0.0,-3.743,-3.7685,-3.7703,0.0,0.0,0.0,-3.6916,0.0,0.0,0.0,0.0,0.0,-3.1565,-3.1281,-3.0716,-3.0422,-3.0422,0.0,-2.9633,0.0,0.0,0.0,0.0,0.0,-2.5258,-2.5077,0.0,0.0,-2.5182,-2.4955,-2.4253,0.0,-2.3282,-2.3443,-2.3629,-2.329,-2.3399,-2.3558,-2.3053,-2.2509,0.0,0.0,0.0,-1.9778,-1.891,0.0,0.0,0.0,0.0,0.0,0.0,0.0,0.0,0.0,0.0,0.0,0.0,0.0,0.0,0.0,0.0,0.0,0.0,0.0,0.0,0.0,0.0,0.0,-0.2719,-0.2775,-0.2805,-0.2719,-0.2691,-0.2691,-0.2691,-0.2691,-0.2691,-0.2691,-0.2691,-0.2691,-0.2691,-0.2691,-0.2691,-0.2691,-0.2691,-0.2691,-0.2691,-0.2691,-0.2691,-0.2691,-0.2691,-0.2691,-0.2691,-0.2691,-0.2691,-0.2691,-0.2691,-0.2691,-0.2691,-3.5754,0.0,0.0,0.0,0.0,0.0,0.0,0.0,0.0,0.0,-3.7039,0.0,-3.6944,0.0,-3.6669,0.0,-3.6958,-3.6976,-3.7394,-3.7431,0.0,-3.7431,-3.7431,0.0,0.0,0.0,0.0,0.0,0.0,-3.1338,-3.1044,-3.0613,-3.0359,-3.0333,0.0,-2.9432,-2.8465,0.0,-2.7319,0.0,0.0,-2.4305,0.0,0.0,-2.4945,-2.4341,0.0,-2.3636,-2.3015,-2.2925,-2.3127,-2.3355,-2.3023,-2.3127,-2.3311,-2.2746,-2.2199,-2.1607,-2.0667,-2.0035,0.0,-1.8643,-1.837,0.0,-1.7875,0.0,0.0,0.0,0.0,0.0,0.0,0.0,0.0,0.0,0.0,0.0,0.0,-0.6639,0.0,0.0,0.0,0.0,0.0,0.0,-0.294,-0.2856,-0.2912,-0.2914,0.0,0.0,-0.2747,-0.2691,-0.2691,-0.2691,-0.2691,-0.2691,-0.2691,-0.2691,-0.2691,-0.2691,-0.2691,-0.2691,-0.2691,-0.2691,-0.2691,-0.2691,-0.2691,-0.2691,-0.2691,-0.2691,-0.2691,-0.2691,-0.2691,-0.2691,-0.2691,-0.2695,0.0,0.0,0.0,0.0,-3.6151,0.0,0.0,0.0,-3.6542,0.0,-3.6686,-3.647,-3.647,-3.6385,-3.634,-3.6381,-3.6256,0.0,-3.6841,-3.686,0.0,0.0,-3.686,-3.6312,-3.5139,0.0,0.0,0.0,0.0,0.0,-3.0962,-3.0568,-3.0295,-3.0189,-3.0017,0.0,-2.841,-2.7627,-2.6675,-2.5546,-2.4326,-2.3484,-2.291,-2.2888,-2.3187,-2.3508,-2.3053,-2.2888,-2.2888,-2.2888,-2.2888,-2.2888,-2.2888,-2.2873,-2.2751,-2.2178,-2.186,-2.1434,-2.0217,-1.9706,-1.9254,-1.8239,0.0,0.0,0.0,0.0,-1.6951,0.0,0.0,0.0,0.0,0.0,0.0,0.0,0.0,0.0,0.0,0.0,0.0,0.0,0.0,0.0,0.0,-0.3102,-0.3102,-0.3102,-0.3102,-0.3049,0.0,0.0,-0.2833,-0.2691,-0.2691,-0.2691,-0.2691,-0.2691,-0.2691,-0.2691,-0.2691,-0.2691,-0.2691,-0.2691,-0.2691,-0.2691,-0.2691,-0.2691,-0.2691,-0.2691,-0.2691,-0.2691,-0.2691,-0.2695,-0.2697,-0.2697,-0.2695,-0.2703,-3.4899,-3.4899,-3.4977,0.0,-3.5526,-3.5798,0.0,0.0,0.0,0.0,-3.5907,-3.5825,-3.5825,-3.5487,-3.5554,-3.6194,-3.595,0.0,0.0,0.0,0.0,-3.6378,-3.6378,-3.597,-3.5118,-3.4384,0.0,-3.2343,0.0,0.0,-3.0547,-3.0253,-3.0081,-3.0038,0.0,0.0,-2.7596,-2.6425,-2.4952,-2.3396,-2.308,-2.3004,0.0,0.0,-2.2949,-2.3275,-2.3008,-2.2888,-2.2888,-2.2888,-2.2888,-2.2888,-2.2888,-2.2591,-2.2207,-2.2048,-2.1196,-2.0231,-1.9901,-1.9059,-1.8214,-1.8029,-1.7679,-1.7372,0.0,0.0,0.0,0.0,0.0,0.0,0.0,0.0,0.0,0.0,0.0,0.0,0.0,0.0,0.0,-0.5538,0.0,0.0,-0.3158,-0.3244,-0.3272,-0.3102,-0.3102,-0.3049,0.0,0.0,0.0,-0.2691,-0.2691,-0.2691,-0.2691,-0.2691,-0.2691,-0.2691,-0.2691,-0.2691,-0.2691,-0.2691,-0.2691,-0.2691,-0.2691,-0.2691,-0.2691,-0.2691,-0.2691,-0.2691,-0.2691,-0.2734,-0.2764,-0.2764,-0.275,-0.2703,-3.4899,0.0,0.0,-3.4899,0.0,0.0,-3.5549,0.0,0.0,-3.5594,-3.543,0.0,-3.5293,-3.5071,-3.5102,-3.5577,-3.5413,0.0,-3.5907,0.0,0.0,-3.5933,-3.5933,-3.5654,-3.5023,-3.3918,0.0,-3.2331,0.0,0.0,-3.021,-3.006,-2.9864,0.0,0.0,-2.8069,-2.6952,-2.5352,-2.3865,-2.2615,-2.2615,0.0,0.0,-2.2692,-2.2746,-2.2912,-2.2806,-2.2812,-2.2849,-2.2849,-2.2849,-2.2872,-2.2902,-2.2423,-2.178,-2.157,-2.0707,-1.9678,-1.9174,-1.8464,-1.7808,-1.7441,-1.7123,-1.6892,-1.6942,-1.6731,-1.6441,0.0,0.0,0.0,0.0,0.0,0.0,0.0,0.0,0.0,0.0,0.0,0.0,0.0,-0.5269,0.0,-0.3769,-0.358,-0.3441,-0.333,-0.333,-0.3246,0.0,0.0,0.0,-0.2775,-0.2719,-0.2691,-0.2691,-0.2691,-0.2691,-0.2691,-0.2691,-0.2691,-0.2691,-0.2691,-0.2691,-0.2691,-0.2691,-0.2691,-0.2691,-0.2691,-0.2691,-0.2691,-0.2691,-0.2746,-0.2802,-0.2868,-0.2826,-0.2762,0.0,0.0,0.0,0.0,0.0,0.0,0.0,-3.5102,0.0,-3.5453,0.0,-3.4899,-3.4899,-3.4899,-3.4899,-3.4899,0.0,-3.5071,-3.5476,-3.5521,-3.5521,-3.5521,-3.5521,-3.5293,-3.4899,-3.3327,0.0,0.0,0.0,0.0,-2.9995,-2.993,0.0,0.0,0.0,0.0,0.0,-2.4287,-2.3148,-2.2555,-2.2555,-2.2555,-2.2555,-2.2555,-2.2555,-2.2555,-2.2555,-2.2652,-2.2772,-2.2772,-2.2772,-2.2781,-2.2733,-2.2146,-2.1362,-2.0818,-2.0202,-1.9393,-1.8219,-1.7908,-1.7666,-1.6744,-1.6457,-1.6414,-1.6414,-1.6293,-1.616,-1.6061,-1.5898,-1.5355,0.0,0.0,0.0,0.0,0.0,0.0,0.0,0.0,0.0,0.0,0.0,0.0,-0.4543,-0.3968,-0.3613,-0.3613,-0.3583,0.0,0.0,0.0,0.0,-0.2916,-0.2805,-0.2719,-0.2719,0.0,-0.2719,-0.2691,-0.2691,-0.2691,-0.2691,-0.2691,-0.2691,-0.2691,-0.2691,-0.2691,-0.2691,-0.2691,-0.2691,-0.2693,-0.2705,-0.2764,-0.2854,-0.297,-0.2948,-0.2854,0.0,0.0,0.0,0.0,0.0,-3.4003,-3.4087,-3.4472,-3.4811,-3.5001,-3.4947,-3.4899,-3.4899,-3.4899,-3.4899,-3.4899,-3.4899,0.0,0.0,0.0,0.0,-3.5024,-3.5024,-3.493,-3.4739,-3.3281,-3.2471,0.0,0.0,0.0,-2.9995,0.0,0.0,0.0,0.0,0.0,-2.3971,-2.3026,0.0,-2.2278,-2.2278,-2.2278,-2.2278,-2.2278,-2.2278,-2.2278,-2.2278,-2.2417,-2.2638,-2.2638,-2.2638,-2.2552,-2.1999,-2.1391,-2.0663,-1.9698,-1.9176,-1.8683,-1.77,-1.738,-1.7206,-1.665,-1.6219,-1.5913,-1.5913,-1.578,-1.5635,-1.5613,-1.5119,-1.472,-1.48,0.0,0.0,0.0,0.0,0.0,0.0,0.0,0.0,0.0,0.0,-0.5733,0.0,-0.4021,0.0,0.0,0.0,0.0,0.0,0.0,0.0,0.0,-0.2942,0.0,0.0,0.0,-0.2805,-0.2691,-0.2691,-0.2691,-0.2691,-0.2691,-0.2691,-0.2691,-0.2691,-0.2691,-0.2691,-0.2691,-0.2691,-0.2699,-0.2774,-0.2856,-0.2972,-0.3065,-0.304,-0.2964,0.0,0.0,0.0,0.0,0.0,0.0,0.0,-3.3417,0.0,-3.4161,-3.4505,-3.4715,-3.4804,-3.4804,-3.4804,-3.4804,-3.4875,-3.4851,-3.4691,-3.4763,-3.478,-3.4707,-3.4691,0.0,-3.4036,-3.2915,-3.2148,-3.172,0.0,0.0,0.0,0.0,0.0,-2.7624,0.0,-2.4215,0.0,0.0,0.0,-2.2208,-2.2208,-2.2208,-2.2208,-2.2208,-2.2208,-2.2208,-2.2208,-2.2114,-2.2044,-2.237,-2.2286,-2.1928,-2.1459,-2.0559,-1.9579,-1.8889,-1.8337,-1.7774,-1.7055,-1.6858,-1.6735,-1.6262,-1.5969,-1.5792,-1.5792,-1.5703,-1.5592,-1.5513,-1.5153,-1.4846,-1.4743,-1.4281,0.0,0.0,0.0,0.0,0.0,0.0,0.0,0.0,0.0,0.0,0.0,0.0,0.0,0.0,0.0,0.0,0.0,0.0,0.0,0.0,0.0,0.0,0.0,0.0,0.0,-0.2805,-0.2719,-0.2691,-0.2691,-0.2691,-0.2691,-0.2691,-0.2691,-0.2691,-0.2691,-0.2691,-0.2691,-0.2701,-0.2762,-0.2879,-0.2997,-0.3088,-0.3094,-0.3055,0.0,-3.3401,0.0,0.0,-3.2821,0.0,-3.247,-3.236,-3.2567,-3.3323,-3.3935,-3.4292,-3.4243,-3.4267,-3.4202,-3.4038,-3.4158,-3.4046,-3.3738,-3.3925,-3.3998,-3.3876,-3.3876,-3.3615,-3.2981,-3.2203,-3.1438,0.0,0.0,0.0,0.0,0.0,0.0,0.0,0.0,0.0,0.0,0.0,-2.2301,-2.2208,-2.2208,-2.2184,-2.2114,-2.203,-2.1983,-2.1921,-2.1851,-2.1565,-2.1313,-2.1803,-2.1616,-2.1054,-2.0676,-1.9671,-1.8553,-1.8064,-1.7594,-1.7073,-1.65,-1.6414,-1.6392,-1.5925,-1.5792,-1.5792,-1.5792,-1.5726,-1.5614,-1.5513,-1.5289,-1.496,-1.4489,-1.3954,0.0,0.0,0.0,0.0,0.0,0.0,0.0,0.0,0.0,0.0,-0.5034,0.0,0.0,0.0,0.0,0.0,0.0,0.0,0.0,0.0,0.0,-0.316,-0.316,0.0,-0.2916,-0.2888,-0.2775,-0.2691,-0.2691,-0.2691,-0.2691,-0.2691,-0.2691,-0.2691,-0.2691,-0.2691,-0.2703,-0.2728,-0.2819,-0.2907,-0.3024,-0.3085,-0.3107,-0.3093,0.0,0.0,0.0,0.0,0.0,0.0,-3.1792,-3.1694,-3.1877,-3.2687,-3.3323,-3.3476,-3.285,-3.2851,-3.2619,-3.1951,-3.1911,-3.1702,-3.1177,-3.1613,-3.1887,-3.1863,-3.1863,-3.1783,-3.1598,-3.0855,-3.0196,0.0,0.0,0.0,0.0,0.0,0.0,0.0,0.0,0.0,0.0,-2.2278,-2.2208,-2.2208,-2.2208,-2.2067,-2.1793,-2.1431,-2.1213,-2.1066,-2.0695,-2.0608,-2.0684,-2.0608,-2.0302,-1.9859,-1.9285,-1.867,-1.7965,-1.6952,-1.6922,-1.701,-1.611,-1.6175,-1.6392,-1.5925,-1.5792,-1.5792,-1.5792,-1.5647,-1.5513,-1.5491,-1.4971,-1.4477,-1.4396,-1.3566,-1.2837,0.0,0.0,0.0,0.0,0.0,0.0,0.0,0.0,0.0,0.0,-0.5242,0.0,0.0,0.0,0.0,0.0,0.0,0.0,-0.3583,0.0,-0.3385,-0.3385,-0.3188,-0.3023,-0.2888,-0.2775,-0.2691,-0.2691,-0.2691,-0.2691,-0.2691,-0.2691,-0.2691,-0.2691,-0.2691,-0.274,-0.2794,-0.2939,-0.3028,-0.3089,-0.3181,-0.3162,-0.3101,0.0,0.0,0.0,0.0,0.0,0.0,0.0,-3.0381,-3.0364,-3.03,-3.1459,-3.204,-3.1451,-3.1414,-3.1328,-3.102,-3.1063,-3.0964,-3.0586,-3.0855,-3.0979,-3.088,-3.088,-3.0667,-3.021,-2.9913,-2.9408,0.0,0.0,0.0,0.0,0.0,0.0,0.0,0.0,-2.2517,-2.2278,-2.2231,-2.1983,-2.1599,-2.1599,-2.1286,-2.0807,-2.0658,-2.0584,-2.0509,-2.0333,-2.0105,-1.9812,-1.9447,-1.9286,-1.9152,-1.8533,-1.7811,-1.6994,-1.6237,-1.6166,-1.6197,-1.5736,-1.5758,-1.5834,-1.5669,-1.5681,-1.5726,-1.5637,-1.5614,-1.557,-1.5413,-1.4857,-1.4199,-1.3566,-1.3413,-1.315,0.0,0.0,0.0,0.0,0.0,0.0,0.0,0.0,0.0,0.0,0.0,0.0,0.0,0.0,0.0,0.0,0.0,0.0,-0.3613,0.0,-0.3527,-0.3527,-0.3244,-0.3077,-0.3023,-0.2802,-0.2691,-0.2691,-0.2691,-0.2691,-0.2691,-0.2691,-0.2691,-0.2691,-0.2691,-0.2744,-0.28,-0.2864,-0.2964,-0.3095,-0.3132,-0.3156,-0.3177,-3.1875,0.0,-3.0717,0.0,-3.0734,-3.0147,-2.9668,-2.9436,-2.9116,-2.8477,-2.9516,-3.0224,-2.9997,-2.9986,-2.992,-2.971,-2.978,-2.9679,-2.9366,-2.9567,-2.9643,-2.9541,-2.9541,0.0,-2.8853,-2.8838,-2.8509,-2.7775,-2.7775,0.0,0.0,0.0,0.0,0.0,-2.2091,-2.1973,-2.1949,-2.1756,-2.1407,-2.0955,-2.093,-2.0584,-2.0067,-1.9965,-1.9888,-1.9837,-1.9708,-1.9449,-1.9089,-1.8503,-1.8314,-1.8234,-1.7671,-1.6901,-1.6132,-1.5748,-1.5637,-1.5614,-1.5536,-1.5491,-1.5457,-1.53,-1.5345,-1.5356,-1.5119,-1.5096,-1.5074,-1.4834,-1.4339,-1.3695,-1.2933,-1.3078,-1.2991,-1.2017,0.0,0.0,0.0,0.0,0.0,0.0,-0.6918,-0.6394,-0.5386,-0.4842,0.0,0.0,0.0,0.0,0.0,0.0,0.0,0.0,0.0,0.0,0.0,-0.3244,-0.316,-0.3102,-0.2856,-0.2747,-0.2691,-0.2691,-0.2691,-0.2691,-0.2691,-0.2691,-0.2691,-0.2691,-0.2744,-0.28,-0.2854,-0.2956,-0.3093,-0.3122,-0.3171,-0.3192,-3.0642,-3.0598,-3.0598,-3.0598,-3.006,-2.961,-2.9595,-2.9087,-2.8463,-2.7797,-2.7724,-2.7954,-2.8469,-2.8584,-2.8325,-2.759,-2.753,-2.7331,-2.6873,-2.7295,-2.753,0.0,0.0,-2.753,-2.753,-2.753,-2.7185,-2.6537,0.0,0.0,-2.5383,0.0,-2.2918,-2.2184,-2.1664,-2.1423,-2.1375,-2.0708,-2.0421,-2.0395,-2.0257,-2.0042,-1.9747,-1.9357,-1.9133,-1.896,-1.8545,-1.8491,-1.8516,-1.7853,-1.7354,-1.6938,-1.6468,-1.5961,-1.5513,-1.5491,-1.5491,-1.5491,-1.5491,-1.5491,-1.5367,-1.4846,-1.4698,-1.4594,-1.4107,-1.392,-1.3779,-1.3658,-1.3184,-1.2812,-1.2788,-1.2427,-1.1952,-1.1402,0.0,0.0,0.0,0.0,0.0,0.0,-0.7735,-0.7429,-0.5496,-0.5582,0.0,0.0,0.0,0.0,0.0,0.0,0.0,-0.2708,-0.2708,0.0,-0.2708,-0.316,-0.3299,-0.3102,-0.297,-0.2833,-0.2691,-0.2691,-0.2691,-0.2691,-0.2691,-0.2691,-0.2691,-0.2691,-0.2744,-0.2806,-0.295,-0.304,-0.3101,-0.3158,-0.3192,-0.3192,-3.0598,-3.0598,-3.0437,-2.9883,-2.9608,-2.9146,-2.8167,-2.7866,-2.7506,-2.6834,-2.6748,-2.6802,-2.6975,-2.7214,-2.7284,0.0,-2.7011,-2.6974,0.0,-2.6814,-2.6878,-2.7011,-2.6788,-2.6721,-2.6811,-2.6721,-2.6578,-2.6379,0.0,0.0,0.0,-2.3417,-2.2616,-2.1626,-2.1372,-2.1066,-2.0708,-2.0383,-2.0004,-1.9579,-1.954,-1.9174,-1.864,-1.8506,-1.8425,-1.8383,-1.8247,-1.822,-1.8109,-1.7214,-1.6836,-1.6523,-1.5365,-1.5234,-1.5412,-1.496,-1.4823,-1.4731,-1.4316,-1.4199,-1.4165,-1.3978,-1.4014,-1.4027,-1.3766,-1.3705,-1.3552,-1.3136,-1.2909,-1.2701,-1.2378,-1.219,-1.1893,-1.1191,-1.0601,0.0,0.0,0.0,0.0,0.0,-0.7521,-0.7052,0.0,-0.5473,0.0,0.0,0.0,0.0,0.0,0.0,0.0,0.0,-0.2291,0.0,-0.2708,-0.277,-0.2884,-0.3102,-0.297,-0.2833,-0.2691,-0.2691,-0.2691,-0.2691,-0.2691,-0.2691,-0.2691,-0.2691,-0.2779,-0.2941,-0.2881,-0.2997,-0.3179,-0.3146,-0.3173,-0.3192,-3.0263,-3.019,-2.9927,-2.9204,-2.88,-2.8311,-2.7425,-2.7096,-2.6783,-2.6356,-2.6313,-2.6313,-2.6313,-2.6474,0.0,-2.6621,-2.6621,-2.6621,-2.6621,-2.6486,-2.6486,-2.6621,-2.642,-2.6326,-2.6418,-2.6124,0.0,-2.5877,-2.4777,-2.3795,-2.2913,-2.2407,-2.1773,-2.108,-2.0746,-2.0421,-2.0055,-1.9683,-1.9279,-1.8881,-1.8827,-1.8506,-1.8084,-1.8084,-1.8084,-1.8084,-1.8084,-1.8084,-1.7935,-1.6738,-1.6348,-1.6078,-1.4584,-1.4408,-1.4697,-1.4294,-1.4154,-1.4082,-1.3705,-1.3597,-1.3539,-1.3348,-1.3351,-1.3375,-1.3108,-1.3045,-1.2939,-1.2613,-1.254,-1.2442,-1.2141,-1.2101,-1.1785,-1.0847,-1.0389,-0.978,-0.883,0.0,0.0,0.0,0.0,0.0,0.0,-0.5582,-0.4869,0.0,0.0,0.0,0.0,0.0,0.0,-0.2708,-0.2125,0.0,-0.2347,-0.2464,-0.2464,-0.2432,-0.2238,-0.2099,-0.2015,-0.2015,-0.2015,-0.2015,-0.2015,-0.2155,-0.2355,-0.2384,-0.2601,-0.2937,-0.2921,-0.3028,-0.3173,-0.315,-0.3177,-0.3192,-2.9653,-2.9435,0.0,0.0,-2.7753,0.0,-2.7156,-2.6561,-2.6138,-2.6138,-2.6138,-2.6138,-2.6138,-2.6138,-2.6138,-2.6138,0.0,0.0,0.0,-2.6245,-2.626,-2.6313,-2.6244,-2.6188,-2.6162,-2.5576,-2.5157,-2.4944,-2.313,-2.2227,-2.2148,-2.1098,-2.0585,-2.051,-1.9862,-1.9552,-1.946,-1.8706,-1.8394,-1.8367,-1.8177,-1.8084,-1.8084,-1.8084,-1.8084,-1.803,-1.803,-1.7979,-1.7716,-1.6288,-1.5818,-1.5531,-1.4011,-1.3539,-1.3539,-1.3539,-1.3539,-1.3539,-1.3491,-1.3501,-1.3372,-1.2871,-1.2716,-1.2604,-1.2166,-1.2076,-1.2076,-1.2076,-1.2076,-1.2076,-1.2076,-1.2051,-1.161,-1.0372,-1.0038,-0.9529,-0.8348,0.0,0.0,0.0,0.0,0.0,0.0,-0.5823,-0.5195,0.0,0.0,0.0,0.0,0.0,-0.2683,-0.2635,-0.2015,-0.1708,-0.174,-0.2214,-0.2071,-0.137,-0.1062,-0.0894,-0.0894,-0.0894,-0.0894,-0.0894,-0.0894,-0.1231,-0.1801,-0.1887,-0.2271,-0.2833,-0.3026,-0.3095,-0.3109,-0.3162,-0.3192,-0.3192,0.0,0.0,-2.8426,-2.7569,-2.6863,-2.62,-2.5617,-2.4974,-2.454,-2.454,-2.454,-2.454,-2.454,-2.454,-2.454,-2.454,-2.5203,-2.5811,-2.6286,-2.5756,-2.5701,-2.6286,-2.5657,-2.515,-2.4856,-2.4167,-2.333,-2.2363,-2.1915,-2.1442,-2.0995,-2.0725,-2.0334,-1.9837,-1.9566,-1.916,-1.8652,-1.8329,-1.8166,-1.8177,-1.8111,-1.8084,-1.8084,-1.8084,-1.7815,-1.7407,-1.729,-1.6829,-1.6131,-1.5258,-1.4892,-1.452,-1.3233,-1.2837,-1.2861,-1.2967,-1.2991,-1.2919,-1.2559,-1.2387,-1.2264,-1.2132,-1.2042,-1.1943,-1.1819,-1.1794,-1.1794,-1.1794,-1.1794,-1.1794,-1.1794,-1.1418,-1.0846,-1.002,-0.9521,-0.8928,-0.8082,-0.7928,0.0,0.0,-0.73,-0.6777,-0.5433,-0.5195,-0.4759,0.0,0.0,0.0,0.0,-0.3019,-0.2488,-0.2031,-0.0993,-0.0652,-0.1103,-0.1671,-0.1987,-0.1987,-0.1257,-0.0894,-0.0894,-0.0894,-0.0894,-0.0894,-0.0894,-0.1277,-0.189,-0.1904,-0.2359,-0.3032,-0.3075,-0.3134,-0.3164,-0.3184,-0.3192,-0.3192,-2.8109,-2.7655,-2.7159,-2.6358,-2.5639,-2.5001,-2.4591,-2.4237,-2.3992,-2.3992,-2.3992,-2.3992,-2.3992,-2.3992,-2.3992,-2.3992,-2.4454,-2.4881,-2.5245,-2.4637,-2.4447,-2.4861,-2.4217,-2.3769,-2.3541,-2.2843,-2.2007,-2.1093,-2.0785,-2.045,-2.0144,-1.9824,-1.9488,-1.9146,-1.9001,-1.8747,-1.8394,-1.8193,-1.7936,-1.7705,-1.7705,-1.7529,-1.7279,-1.7224,-1.6978,-1.6669,-1.651,-1.605,-1.5403,-1.457,-1.4089,-1.3651,-1.2541,-1.2187,-1.2197,-1.227,-1.2295,-1.2246,-1.1993,-1.1852,-1.1803,-1.1803,-1.1744,-1.1703,-1.1703,-1.1494,-1.1293,-1.1293,-1.1082,-1.0922,-1.0922,-1.0668,-1.02,-0.9547,-0.9183,-0.8751,-0.8002,-0.7681,0.0,-0.7139,-0.6864,-0.6231,-0.5113,-0.4952,-0.457,-0.3771,-0.3638,0.0,-0.3613,-0.2768,-0.2255,-0.2209,-0.1046,-0.0707,-0.1292,-0.1299,-0.1288,-0.1288,-0.0532,-0.014,-0.0084,-0.0084,-0.0084,-0.0084,-0.0085,-0.0434,-0.1032,-0.1031,-0.1437,-0.2126,-0.2546,-0.2716,-0.2787,-0.3092,-0.3192,-0.3192,-2.7045,-2.6356,-2.5778,-2.5117,-2.4368,-2.3875,-2.3875,-2.38,-2.3741,-2.3741,-2.3741,-2.3741,-2.3741,-2.3741,-2.3741,-2.3741,-2.3651,-2.3687,-2.3861,-2.3376,-2.3076,-2.3082,-2.2627,-2.2298,-2.2217,-2.1484,-2.0836,-2.0308,-1.9734,-1.9448,-1.9422,-1.8762,-1.8441,-1.8425,-1.8209,-1.8111,-1.8073,-1.7909,-1.7529,-1.7062,-1.7062,-1.6754,-1.6244,-1.613,-1.6005,-1.5891,-1.5699,-1.5314,-1.4782,-1.3905,-1.3334,-1.2814,-1.1951,-1.1678,-1.1678,-1.1653,-1.1578,-1.1519,-1.1653,-1.1703,-1.1653,-1.1519,-1.1494,-1.1469,-1.1393,-1.0981,-1.0625,-1.0625,-1.0251,-0.9943,-0.9943,-0.9865,-0.9625,-0.9059,-0.8902,-0.862,-0.7975,0.0,-0.7058,-0.6977,-0.6426,-0.5687,-0.4842,-0.4732,-0.4405,-0.3666,-0.3613,-0.3555,-0.3471,-0.2404,-0.1986,-0.2402,-0.1344,-0.1064,-0.1651,-0.0924,-0.0449,-0.0224,0.0393,0.0757,0.0898,0.0898,0.09,0.0906,0.0903,0.0563,0.0,0.0,-0.0355,-0.1007,-0.1861,-0.2214,-0.2281,-0.2989,-0.3261,-0.3228,-2.5108,-2.5072,-2.5087,-2.4323,-2.3669,-2.3237,-2.3237,-2.2823,-2.2482,-2.2482,-2.2482,-2.2482,-2.2482,-2.2482,-2.2482,-2.2482,-2.2067,-2.2247,-2.3245,-2.2757,-2.2485,-2.2614,-2.1996,-2.1445,-2.0994,-1.9828,-1.9124,-1.8922,-1.8827,-1.8747,-1.8747,-1.8131,-1.7749,-1.7545,-1.7017,-1.6747,-1.6624,-1.6595,-1.6539,-1.6443,-1.6443,-1.633,-1.613,-1.6102,-1.5689,-1.508,-1.4933,-1.4137,-1.3149,-1.2876,-1.2405,-1.1899,-1.162,-1.1519,-1.1502,-1.1402,-1.0989,-1.0753,-1.1494,-1.1628,-1.1368,-1.0761,-1.0608,-1.0472,-1.0028,-0.9847,-0.9795,-0.9795,-0.9718,-0.9666,-0.9666,-0.9295,-0.8955,-0.885,-0.8415,-0.8029,-0.7928,0.0,-0.6918,-0.6399,-0.571,-0.4976,-0.4215,-0.4045,-0.3855,-0.361,-0.3613,-0.3385,-0.2877,-0.2179,-0.1595,-0.1205,-0.0505,-0.0421,-0.1037,-0.0308,-0.0084,-0.0364,0.0364,0.0757,0.0898,0.0898,0.0911,0.0907,0.0911,0.0546,0.0,0.0,-0.0425,-0.1136,-0.1909,-0.2214,-0.2315,-0.3159,-0.3464,-0.3395,-2.4347,-2.4092,-2.3962,-2.3581,-2.301,-2.261,-2.261,-2.2389,-2.2197,-2.2197,-2.2197,-2.2197,-2.2197,-2.2197,-2.2197,-2.2197,-2.1644,-2.1395,-2.1674,-2.1161,-2.0862,-2.0932,-2.0289,-1.9832,-1.9565,-1.8666,-1.817,-1.8116,-1.7694,-1.7462,-1.7462,-1.7101,-1.6905,-1.6793,-1.651,-1.6368,-1.6312,-1.6312,-1.6112,-1.5806,-1.5738,-1.5488,-1.5108,-1.4932,-1.4628,-1.4282,-1.4124,-1.3561,-1.287,-1.2605,-1.2164,-1.1722,-1.1463,-1.1167,-1.0888,-1.0837,-1.0633,-1.0421,-1.0541,-1.0515,-1.0387,-1.0053,-0.9984,-0.9906,-0.9666,-0.938,-0.9171,-0.9171,-0.8916,-0.8679,-0.8679,-0.8468,-0.8315,-0.8315,-0.7836,0.0,0.0,-0.6701,-0.5987,-0.5655,-0.5034,-0.4432,-0.3938,-0.3824,-0.3744,-0.361,-0.3613,-0.333,-0.2736,-0.2124,-0.1512,-0.0926,-0.0617,-0.0449,-0.0421,-0.0336,-0.0168,0.0028,0.0477,0.0764,0.0893,0.0893,0.0909,0.0969,0.0954,0.0787,0.0549,0.0589,0.0399,0.0,-0.0739,-0.1006,-0.1107,-0.1982,-0.2319,-0.2285,-2.3682,-2.3327,-2.3058,-2.2919,-2.25,-2.2197,-2.2197,-2.2197,-2.2197,-2.2197,-2.2197,-2.2197,-2.2197,-2.2197,-2.2197,-2.2197,-2.1463,-2.0783,-2.0234,-1.9484,-1.9159,-1.9365,-1.8744,-1.836,-1.8306,-1.7722,-1.7407,-1.7379,-1.6765,-1.6454,-1.6464,-1.6197,-1.6083,-1.6083,-1.594,-1.5882,-1.5882,-1.5882,-1.5613,-1.5128,-1.504,-1.4666,-1.4148,-1.389,-1.3769,-1.37,-1.3571,-1.328,-1.2937,-1.2451,-1.2049,-1.1626,-1.1154,-1.0669,-1.0291,-1.0239,-1.0138,-0.995,-0.9666,-0.9588,-0.9562,-0.9458,-0.9406,-0.938,-0.9223,-0.8883,-0.8593,-0.8593,-0.8209,-0.7901,-0.7901,-0.7901,-0.7848,-0.7735,0.0,0.0,0.0,-0.5932,-0.5222,-0.5109,-0.4515,-0.4024,-0.3824,-0.3769,-0.366,-0.3413,-0.3385,-0.3077,-0.2319,-0.1846,-0.1316,-0.0701,-0.0701,-0.0477,0.0,-0.0364,-0.0224,0.0364,0.0565,0.0719,0.0855,0.0891,0.094,0.1,0.0992,0.1005,0.1012,0.1067,0.1109,0.1042,0.0302,0.0,-0.0101,-0.1041,-0.1344,-0.131,-2.2574,-2.2763,-2.2919,-2.2359,-2.2216,-2.2197,-2.2197,-2.2197,-2.2197,-2.2197,-2.2197,-2.2197,-2.2197,-2.2197,-2.2197,-2.2197,-2.1129,-2.0217,-1.9602,-1.8306,-1.7888,-1.8646,-1.81,-1.7694,-1.749,-1.6916,-1.6539,-1.6386,-1.633,-1.6301,-1.6312,-1.5719,-1.5468,-1.5439,-1.4882,-1.4625,-1.4625,-1.4625,-1.4536,-1.4387,-1.4357,-1.4139,-1.383,-1.3799,-1.367,-1.3511,-1.3511,-1.328,-1.2913,-1.2259,-1.1762,-1.1264,-1.0374,-1.008,-0.9994,-0.9728,-0.9302,-0.9014,-0.9484,-0.9588,-0.9484,-0.8981,-0.8856,-0.8725,-0.8162,-0.8008,-0.7981,-0.7981,-0.7928,-0.7901,-0.7901,-0.7901,-0.7735,-0.7246,0.0,0.0,-0.6344,-0.5601,-0.5105,-0.5105,-0.4343,-0.3824,-0.3796,-0.3691,-0.3385,-0.282,-0.2764,-0.2263,-0.1093,-0.0981,-0.0701,-0.0084,-0.0056,-0.0056,0.0,-0.0028,0.0028,0.0224,0.0405,0.0588,0.0708,0.0911,0.1001,0.0998,0.1,0.1048,0.1106,0.1109,0.1109,0.1042,0.0302,0.0,-0.0134,-0.1174,-0.1475,-0.1274,-2.2278,-2.2389,-2.2469,-2.2247,-2.2197,-2.2197,-2.2197,-2.2197,-2.2197,-2.2197,-2.2197,-2.2197,-2.2197,-2.2092,-2.1862,-2.142,-2.0266,-1.9253,-1.8542,-1.7391,-1.6838,-1.7146,-1.695,-1.6782,-1.6726,-1.6122,-1.5777,-1.5748,-1.5381,-1.5186,-1.5186,-1.4961,-1.4852,-1.4823,-1.4595,-1.4446,-1.4396,-1.4396,-1.4267,-1.4109,-1.4019,-1.392,-1.3799,-1.367,-1.3571,-1.345,-1.3039,-1.2805,-1.2568,-1.1667,-1.127,-1.1047,-1.0428,-1.0024,-0.9608,-0.8877,-0.8414,-0.8143,-0.8256,-0.8415,-0.8501,-0.8289,-0.8235,-0.8182,-0.7955,-0.7901,-0.7901,-0.7901,-0.7901,-0.7794,-0.7467,-0.7408,-0.7219,-0.6642,0.0,-0.5792,-0.5546,-0.4893,-0.4374,-0.4315,-0.4015,-0.3771,-0.3691,-0.3638,-0.3357,-0.2736,-0.2703,-0.217,-0.0955,-0.0533,-0.0224,0.0,0.0,0.0,0.0,0.0084,0.0198,0.0376,0.0556,0.0722,0.0874,0.098,0.1032,0.1059,0.1059,0.1066,0.1109,0.1109,0.1109,0.1076,0.0806,0.0672,0.0605,-0.0067,-0.0235,-0.0202,-2.2197,-2.2197,-2.2197,-2.2197,-2.2197,-2.2197,-2.2197,-2.1999,-2.1862,-2.1862,-2.1663,-2.1537,-2.1451,-2.1325,-2.1028,-2.0515,-1.9476,-1.8491,-1.7667,-1.6435,-1.5911,-1.6273,-1.6112,-1.6026,-1.6026,-1.5439,-1.5128,-1.5128,-1.4704,-1.4515,-1.4515,-1.4515,-1.4515,-1.4515,-1.4515,-1.4426,-1.4297,-1.4297,-1.4169,-1.392,-1.383,-1.3761,-1.37,-1.3541,-1.3381,-1.313,-1.2665,-1.2351,-1.2043,-1.116,-1.0852,-1.0735,-1.0116,-0.9587,-0.9024,-0.8333,-0.8004,-0.7815,-0.7658,-0.7771,-0.7889,-0.7839,-0.7842,-0.7842,-0.7901,-0.7762,-0.7655,-0.7655,-0.7461,-0.7187,-0.6831,-0.675,-0.6534,-0.5909,-0.541,-0.5027,-0.4783,-0.4291,-0.391,-0.3824,-0.3771,-0.3691,-0.3613,-0.3419,-0.3053,-0.246,-0.2246,-0.1679,-0.0674,-0.0224,0.0,0.0,0.0,0.0,0.0,0.0086,0.0203,0.0359,0.0514,0.0683,0.084,0.0913,0.0992,0.1109,0.1109,0.1109,0.1109,0.1109,0.1109,0.1109,0.1109,0.1109,0.1042,0.0707,0.064,0.0674,-2.2197,-2.2197,-2.2197,-2.2197,-2.2197,-2.2197,-2.2197,-2.1557,-2.1092,-2.1092,-2.0516,-2.002,-1.9825,-1.9792,-1.9727,-1.9498,-1.8869,-1.807,-1.7045,-1.5425,-1.504,-1.6216,-1.5719,-1.5381,-1.5381,-1.4823,-1.4515,-1.4515,-1.4515,-1.4515,-1.4515,-1.4515,-1.4515,-1.4515,-1.4515,-1.4426,-1.4297,-1.4297,-1.4079,-1.3769,-1.3769,-1.367,-1.348,-1.348,-1.307,-1.2473,-1.2481,-1.2074,-1.1392,-1.073,-1.0485,-1.0305,-0.9247,-0.8565,-0.8186,-0.8186,-0.8186,-0.8159,-0.7926,-0.7886,-0.7851,-0.7734,-0.7696,-0.7723,-0.7869,-0.7467,-0.7085,-0.7085,-0.6502,-0.6009,-0.5982,-0.5982,-0.5741,-0.5011,-0.5007,-0.4838,-0.4107,-0.3885,-0.3799,-0.3799,-0.3694,-0.3613,-0.3585,-0.3053,-0.2461,-0.185,-0.1239,-0.0637,-0.0028,0.0,0.0,0.0,0.0,0.0,0.0,0.0,0.0,0.0,0.0191,0.0388,0.0517,0.0699,0.0909,0.1109,0.1109,0.1109,0.1109,0.1109,0.1109,0.1109,0.1109,0.1109,0.1076,0.0876,0.0943,0.1042,-2.2197,-2.2197,-2.2197,-2.2197,-2.1757,-2.1431,-2.1431,-2.0848,-2.0387,-2.0387,-2.0226,-2.002,-1.9825,-1.9705,-1.9377,-1.8636,-1.8054,-1.714,-1.5751,-1.4942,-1.4654,-1.502,-1.4852,-1.4764,-1.4764,-1.4595,-1.4515,-1.4515,-1.4515,-1.4515,-1.4515,-1.4515,-1.4455,-1.4366,-1.4366,-1.3959,-1.3238,-1.3238,-1.2826,-1.2197,-1.2197,-1.2135,-1.2104,-1.2104,-1.1981,-1.1734,-1.1281,-1.0975,-1.0692,-1.0015,-0.9605,-0.9266,-0.8668,-0.8264,-0.7977,-0.7869,-0.7723,-0.7428,-0.6874,-0.6716,-0.6838,-0.7424,-0.7241,-0.6939,-0.6972,-0.6561,-0.6182,-0.6182,-0.6036,-0.5821,-0.5438,-0.5447,-0.5295,-0.465,-0.4509,-0.4394,-0.416,-0.3979,-0.3857,-0.3857,-0.3783,-0.3587,-0.3155,-0.2858,-0.2261,-0.1233,-0.0622,-0.0202,0.0,0.0,0.0,0.0,0.0,0.0,0.0,0.0,0.0062,0.0223,0.0354,0.0522,0.0733,0.0905,0.1043,0.1109,0.1109,0.1109,0.1109,0.1109,0.1109,0.1109,0.1109,0.1109,0.1076,0.0876,0.0843,0.0876,-2.2197,-2.2197,-2.2092,-2.1819,-2.14,-2.0996,-2.0741,-2.0096,-1.9639,-1.9595,-1.9332,-1.9067,-1.8813,-1.869,-1.8398,-1.7745,-1.7255,-1.651,-1.5409,-1.4964,-1.4671,-1.4515,-1.4515,-1.4515,-1.4515,-1.4515,-1.4515,-1.4515,-1.4515,-1.4515,-1.4476,-1.4169,-1.398,-1.389,-1.3549,-1.3017,-1.2389,-1.2389,-1.2043,-1.1516,-1.1516,-1.1516,-1.1516,-1.1516,-1.1329,-1.1062,-1.0636,-1.0295,-0.9977,-0.9568,-0.9109,-0.8653,-0.8408,-0.8128,-0.781,-0.7465,-0.7284,-0.6979,-0.6211,-0.5994,-0.6115,-0.6527,-0.6394,-0.6177,-0.6263,-0.5885,-0.5525,-0.5525,-0.5379,-0.5118,-0.4805,-0.4817,-0.4722,-0.4269,-0.4211,-0.4166,-0.4054,-0.3925,-0.3846,-0.38,-0.3524,-0.3223,-0.2848,-0.2316,-0.1576,-0.0612,-0.0204,0.0,0.0,0.0,0.0,0.0,0.0,0.0,0.0,0.0,0.0065,0.0197,0.0329,0.0497,0.0674,0.0876,0.1009,0.1109,0.1109,0.1109,0.1109,0.1109,0.1109,0.1109,0.1109,0.1109,0.1076,0.0976,0.0909,0.0909,-2.2197,-2.2154,-2.1894,-2.123,-2.0996,-2.0709,-2.0096,-1.9375,-1.8834,-1.8734,-1.8104,-1.7579,-1.7235,-1.7201,-1.7132,-1.6908,-1.6517,-1.6156,-1.5771,-1.534,-1.4937,-1.4579,-1.4533,-1.4515,-1.4515,-1.4515,-1.4515,-1.4515,-1.4515,-1.4476,-1.4387,-1.364,-1.3268,-1.3139,-1.2328,-1.1857,-1.1679,-1.1679,-1.1547,-1.1329,-1.1329,-1.1329,-1.1329,-1.1329,-1.0937,-1.0421,-1.0421,-0.9945,-0.93,-0.9244,-0.8802,-0.8306,-0.8262,-0.7941,-0.7492,-0.6933,-0.6746,-0.6586,-0.5789,-0.56,-0.5535,-0.5211,-0.5246,-0.5378,-0.5637,-0.5325,-0.4955,-0.4955,-0.4552,-0.4166,-0.4166,-0.4177,-0.4122,-0.3936,-0.4061,-0.4082,-0.3845,-0.3799,-0.3732,-0.3572,-0.3065,-0.2667,-0.2563,-0.1506,-0.0597,-0.0031,0.0,0.0,0.0,0.0,0.0,0.0,0.0,0.0,0.0,0.0,0.0,0.0,0.0202,0.0371,0.0506,0.0741,0.0943,0.1109,0.1109,0.1109,0.1109,0.1109,0.1109,0.1109,0.1109,0.1076,0.1076,0.1109,0.1076,0.1043,-2.2197,-2.1726,-2.1293,-2.1123,-2.0182,-1.9398,-1.9276,-1.8509,-1.7969,-1.7935,-1.7725,-1.7461,-1.7235,-1.7201,-1.7132,-1.6908,-1.6517,-1.6251,-1.6184,-1.5505,-1.5065,-1.4974,-1.468,-1.4515,-1.4515,-1.4515,-1.4515,-1.4515,-1.4515,-1.4228,-1.37,-1.342,-1.2956,-1.2266,-1.1981,-1.1461,-1.0793,-1.0793,-1.0446,-0.9945,-0.9945,-0.9945,-0.9945,-0.9945,-0.9856,-0.9702,-0.9702,-0.9536,-0.9244,-0.8768,-0.8163,-0.7557,-0.7111,-0.6538,-0.5954,-0.5715,-0.5645,-0.5525,-0.4932,-0.4758,-0.464,-0.4113,-0.3993,-0.4159,-0.4653,-0.4348,-0.393,-0.393,-0.3915,-0.3883,-0.3883,-0.3931,-0.3967,-0.3903,-0.3936,-0.3956,-0.3898,-0.3865,-0.3703,-0.32,-0.2979,-0.2494,-0.1533,-0.0699,-0.0153,0.0,0.0,0.0,0.0,0.0,0.0,0.0,0.0,0.0,0.0,0.0,0.0,0.0,0.0303,0.0472,0.0506,0.0875,0.1042,0.1109,0.1109,0.1109,0.1109,0.1109,0.1109,0.1109,0.1109,0.1009,0.0876,0.1043,0.1009,0.0843,-2.1694,-2.1103,-2.0516,-2.015,-1.9497,-1.8877,-1.8553,-1.8046,-1.7672,-1.7623,-1.7451,-1.7289,-1.7072,-1.7072,-1.7003,-1.6908,-1.6716,-1.6489,-1.6297,-1.5735,-1.5294,-1.5111,-1.4717,-1.4357,-1.404,-1.401,-1.401,-1.401,-1.401,-1.3662,-1.2917,-1.242,-1.1919,-1.1423,-1.0905,-1.0446,-1.0015,-1.0015,-0.983,-0.9516,-0.9516,-0.9516,-0.9516,-0.9516,-0.9516,-0.9516,-0.9516,-0.9145,-0.8597,-0.8133,-0.7419,-0.6697,-0.6397,-0.5973,-0.5518,-0.5089,-0.496,-0.4829,-0.4234,-0.4079,-0.3996,-0.3666,-0.3613,-0.3694,-0.3996,-0.3876,-0.3693,-0.3693,-0.3788,-0.3841,-0.3841,-0.3862,-0.3903,-0.3903,-0.3903,-0.3884,-0.3857,-0.3607,-0.3278,-0.2889,-0.2312,-0.1575,-0.0676,-0.0219,0.0,0.0,0.0,0.0,0.0,0.0,0.0,0.0,0.0,0.0,0.0,0.0,0.0034,0.0135,0.0337,0.0438,0.0506,0.0808,0.1009,0.1109,0.1109,0.1109,0.1109,0.1109,0.1109,0.1109,0.1109,0.1043,0.0942,0.1076,0.0976,0.0809,-2.0933,-2.0387,-1.9737,-1.911,-1.8911,-1.8654,-1.8076,-1.7794,-1.7613,-1.7505,-1.7279,-1.7107,-1.6908,-1.6908,-1.6908,-1.6908,-1.6908,-1.6693,-1.6229,-1.5821,-1.5382,-1.4868,-1.4443,-1.3951,-1.3351,-1.3321,-1.3321,-1.3321,-1.3321,-1.2926,-1.212,-1.1361,-1.0867,-1.0591,-0.9824,-0.9516,-0.9516,-0.9516,-0.9516,-0.9516,-0.9516,-0.9516,-0.9516,-0.9516,-0.9516,-0.9484,-0.9318,-0.8624,-0.7735,-0.7419,-0.6662,-0.5891,-0.5864,-0.5658,-0.5302,-0.4677,-0.449,-0.4351,-0.3812,-0.3629,-0.3641,-0.3641,-0.3627,-0.3613,-0.3613,-0.3687,-0.3753,-0.3753,-0.3806,-0.3843,-0.3843,-0.3843,-0.3843,-0.3843,-0.3753,-0.3664,-0.3619,-0.308,-0.2646,-0.2423,-0.1427,-0.0543,-0.0062,0.0,0.0,0.0,0.0,0.0,0.0,0.0,0.0,0.0,0.0,0.0,0.0067,0.0034,0.0101,0.0337,0.0303,0.0404,0.0573,0.0775,0.0942,0.1109,0.1109,0.1109,0.1109,0.1109,0.1109,0.1109,0.1109,0.1076,0.1043,0.1043,0.0976,0.0876,-2.0237,-1.9639,-1.911,-1.9011,-1.8529,-1.811,-1.8008,-1.7735,-1.7539,-1.7505,-1.7185,-1.6943,-1.6908,-1.6908,-1.6908,-1.6908,-1.6908,-1.6603,-1.5904,-1.548,-1.4824,-1.3859,-1.3421,-1.3018,-1.2642,-1.2634,-1.2634,-1.2634,-1.2634,-1.2212,-1.1421,-1.1149,-1.0622,-0.9926,-0.9644,-0.9516,-0.9516,-0.9516,-0.9516,-0.9516,-0.9516,-0.9516,-0.9516,-0.9516,-0.9516,-0.9414,-0.8662,-0.7739,-0.685,-0.6625,-0.6019,-0.5389,-0.5329,-0.4864,-0.4287,-0.4069,-0.4,-0.3967,-0.3892,-0.3811,-0.3761,-0.3761,-0.3684,-0.3613,-0.3613,-0.3624,-0.3635,-0.3635,-0.3621,-0.3632,-0.3632,-0.3632,-0.3632,-0.3632,-0.3201,-0.2853,-0.2836,-0.2318,-0.1751,-0.1219,-0.0533,-0.0096,0.0,0.0,0.0,0.0,0.0,0.0,0.0,0.0,0.0,0.0,0.0,0.0067,0.027,0.0101,0.0169,0.0472,0.0371,0.0472,0.0776,0.0976,0.1076,0.1109,0.1109,0.1109,0.1109,0.1109,0.1109,0.1109,0.1109,0.101,0.0843,0.0843,0.0943,0.1076,-1.9398,-1.8877,-1.8428,-1.8273,-1.8124,-1.7974,-1.7862,-1.7632,-1.7461,-1.7358,-1.7081,-1.6908,-1.6908,-1.6908,-1.6726,-1.6333,-1.6298,-1.5974,-1.518,-1.4745,-1.4257,-1.3634,-1.3202,-1.2656,-1.1973,-1.1934,-1.1717,-1.1257,-1.1663,-1.1382,-1.0579,-1.0421,-1.0072,-0.9644,-0.9548,-0.9516,-0.9516,-0.9516,-0.9516,-0.9516,-0.9516,-0.9516,-0.9452,-0.9081,-0.8888,-0.8657,-0.7707,-0.6822,-0.6071,-0.5837,-0.5315,-0.4749,-0.4692,-0.448,-0.4194,-0.404,-0.4005,-0.3992,-0.3922,-0.3865,-0.3854,-0.3854,-0.3816,-0.3781,-0.3781,-0.3781,-0.3743,-0.361,-0.3613,-0.3613,-0.3613,-0.3324,-0.3104,-0.3104,-0.2597,-0.2195,-0.2197,-0.1688,-0.1068,-0.0472,-0.0162,0.0,0.0,0.0,0.0,0.0,0.0,0.0,0.0,0.0,0.0,0.0,0.0,0.0101,0.0303,0.0101,0.0169,0.0506,0.0438,0.0539,0.0809,0.0876,0.101,0.1109,0.1109,0.1109,0.1109,0.1109,0.1109,0.1109,0.1109,0.1043,0.0976,0.0976,0.1009,0.1109]},{"header":{"parameterUnit":"m.s-1","parameterCategory":1,"la1":30.6,"la2":28.766,"lo1":-90.7593,"lo2":-88.6598,"dy":0.0162,"dx":0.0183,"nx":116,"ny":114,"refTime":"2023-11-02T00:00:00:Z","depth":0,"parameterNumber":3,"parameterNumberName":"V-component_of_WINDS"},"data":[0.0,0.0,0.0,0.0,0.0,0.0,0.0,0.0,0.0,0.0,0.0,0.0,0.0,0.0,0.0,0.0,0.0,0.0,0.0,0.0,0.0,0.0,0.0,0.0,0.0,0.0,0.0,0.0,0.0,0.0,0.0,0.0,0.0,0.0,0.0,0.0,0.0,0.0,0.0,0.0,0.0,0.0,0.0,0.0,0.0,0.0,0.0,0.0,0.0,0.0,0.0,0.0,0.0,0.0,0.0,0.0,0.0,0.0,0.0,0.0,0.0,0.0,0.0,0.0,0.0,0.0,0.0,0.0,0.0,0.0,0.0,0.0,0.0,0.0,0.0,0.0,0.0,0.0,0.0,0.0,0.0,0.0,0.0,0.0,0.0,0.0,0.0,0.0,0.0,0.0,0.0,0.0,0.0,0.0,0.0,0.0,0.0,0.0,0.0,0.0,0.0,0.0,0.0,0.0,0.0,0.0,0.0,0.0,0.0,0.0,0.0,0.0,0.0,0.0,0.0,0.0,0.0,0.0,0.0,0.0,0.0,0.0,0.0,0.0,0.0,0.0,0.0,0.0,0.0,0.0,0.0,0.0,0.0,0.0,0.0,0.0,0.0,0.0,0.0,0.0,0.0,0.0,0.0,0.0,0.0,0.0,0.0,0.0,0.0,0.0,0.0,0.0,0.0,0.0,0.0,0.0,0.0,0.0,0.0,0.0,0.0,0.0,0.0,0.0,0.0,0.0,0.0,0.0,0.0,0.0,0.0,0.0,0.0,0.0,0.0,0.0,0.0,0.0,0.0,0.0,0.0,0.0,0.0,0.0,0.0,0.0,0.0,0.0,0.0,0.0,0.0,0.0,0.0,0.0,0.0,0.0,0.0,0.0,0.0,0.0,0.0,0.0,0.0,0.0,0.0,0.0,0.0,0.0,0.0,0.0,0.0,0.0,0.0,0.0,0.0,0.0,0.0,0.0,0.0,0.0,0.0,0.0,0.0,0.0,0.0,0.0,0.0,0.0,0.0,0.0,0.0,0.0,0.0,0.0,0.0,0.0,0.0,0.0,0.0,0.0,0.0,0.0,0.0,0.0,0.0,0.0,0.0,0.0,0.0,0.0,0.0,0.0,0.0,0.0,0.0,0.0,0.0,0.0,0.0,0.0,0.0,0.0,0.0,0.0,0.0,0.0,0.0,0.0,0.0,0.0,0.0,0.0,0.0,0.0,0.0,0.0,0.0,0.0,0.0,0.0,0.0,0.0,0.0,0.0,0.0,0.0,0.0,0.0,0.0,0.0,0.0,0.0,0.0,0.0,0.0,0.0,0.0,0.0,0.0,0.0,0.0,0.0,0.0,0.0,0.0,0.0,0.0,0.0,0.0,0.0,0.0,0.0,0.0,0.0,0.0,0.0,0.0,0.0,0.0,0.0,0.0,0.0,0.0,0.0,0.0,0.0,0.0,0.0,0.0,0.0,0.0,0.0,0.0,0.0,0.0,0.0,0.0,0.0,0.0,0.0,0.0,0.0,0.0,0.0,0.0,0.0,0.0,0.0,0.0,0.0,0.0,0.0,0.0,0.0,0.0,0.0,0.0,0.0,0.0,0.0,0.0,0.0,0.0,0.0,0.0,0.0,0.0,0.0,0.0,0.0,0.0,0.0,0.0,0.0,0.0,0.0,0.0,0.0,0.0,0.0,0.0,0.0,0.0,0.0,0.0,0.0,0.0,0.0,0.0,0.0,0.0,0.0,0.0,0.0,0.0,0.0,0.0,0.0,0.0,0.0,0.0,0.0,0.0,0.0,0.0,0.0,0.0,0.0,0.0,0.0,0.0,0.0,0.0,0.0,0.0,0.0,0.0,0.0,0.0,0.0,0.0,0.0,0.0,0.0,0.0,0.0,0.0,0.0,0.0,0.0,0.0,0.0,0.0,0.0,0.0,0.0,0.0,0.0,0.0,0.0,0.0,0.0,0.0,0.0,0.0,0.0,0.0,0.0,0.0,0.0,0.0,0.0,0.0,0.0,0.0,0.0,0.0,0.0,0.0,0.0,0.0,0.0,0.0,0.0,0.0,0.0,0.0,0.0,0.0,0.0,0.0,0.0,0.0,0.0,0.0,0.0,0.0,0.0,0.0,0.0,0.0,0.0,0.0,0.0,0.0,0.0,0.0,0.0,0.0,0.0,0.0,0.0,0.0,0.0,0.0,0.0,0.0,0.0,0.0,0.0,0.0,0.0,0.0,0.0,0.0,0.0,0.0,0.0,0.0,0.0,0.0,0.0,0.0,0.0,0.0,0.0,0.0,0.0,0.0,0.0,0.0,0.0,0.0,0.0,0.0,0.0,0.0,0.0,0.0,0.0,0.0,0.0,0.0,0.0,0.0,0.0,0.0,0.0,0.0,0.0,0.0,0.0,0.0,0.0,0.0,0.0,0.0,0.0,0.0,0.0,0.0,0.0,0.0,0.0,0.0,0.0,0.0,0.0,0.0,0.0,0.0,0.0,0.0,0.0,0.0,0.0,0.0,0.0,0.0,0.0,0.0,0.0,0.0,0.0,0.0,0.0,0.0,0.0,0.0,0.0,0.0,0.0,0.0,0.0,0.0,0.0,0.0,0.0,0.0,0.0,0.0,0.0,0.0,0.0,0.0,0.0,0.0,0.0,0.0,0.0,0.0,0.0,0.0,0.0,0.0,0.0,0.0,0.0,0.0,0.0,0.0,0.0,0.0,0.0,0.0,0.0,0.0,0.0,0.0,0.0,0.0,0.0,0.0,0.0,0.0,0.0,0.0,0.0,0.0,0.0,0.0,0.0,0.0,0.0,0.0,0.0,0.0,0.0,0.0,0.0,0.0,0.0,0.0,0.0,0.0,0.0,0.0,0.0,0.0,0.0,0.0,0.0,0.0,0.0,0.0,0.0,0.0,0.0,0.0,0.0,0.0,0.0,0.0,0.0,0.0,0.0,0.0,0.0,0.0,0.0,0.0,0.0,0.0,0.0,0.0,0.0,0.0,0.0,0.0,0.0,0.0,0.0,0.0,0.0,0.0,0.0,0.0,0.0,0.0,0.0,0.0,0.0,0.0,0.0,0.0,0.0,0.0,0.0,0.0,0.0,0.0,0.0,0.0,0.0,0.0,0.0,0.0,0.0,0.0,0.0,0.0,0.0,0.0,0.0,0.0,0.0,0.0,0.0,0.0,0.0,0.0,0.0,0.0,0.0,0.0,0.0,0.0,0.0,0.0,0.0,0.0,0.0,0.0,0.0,0.0,0.0,0.0,0.0,0.0,0.0,0.0,0.0,0.0,0.0,0.0,0.0,0.0,0.0,0.0,0.0,0.0,0.0,0.0,0.0,0.0,0.0,0.0,0.0,0.0,0.0,0.0,0.0,0.0,0.0,0.0,0.0,0.0,0.0,0.0,0.0,0.0,0.0,0.0,0.0,0.0,0.0,0.0,0.0,0.0,0.0,0.0,0.0,0.0,0.0,0.0,0.0,0.0,0.0,0.0,0.0,0.0,0.0,0.0,0.0,0.0,0.0,0.0,0.0,0.0,0.0,0.0,0.0,0.0,0.0,0.0,0.0,0.0,0.0,0.0,0.0,0.0,0.0,0.0,0.0,0.0,0.0,0.0,0.0,0.0,0.0,0.0,0.0,0.0,0.0,0.0,0.0,0.0,0.0,0.0,0.0,0.0,0.0,0.0,0.0,0.0,0.0,0.0,0.0,0.0,0.0,0.0,0.0,0.0,0.0,0.0,0.0,0.0,0.0,0.0,0.0,0.0,0.0,0.0,0.0,0.0,0.0,0.0,0.0,0.0,0.0,0.0,0.0,0.0,0.0,0.0,0.0,0.0,0.0,0.0,0.0,0.0,0.0,0.0,0.0,0.0,0.0,0.0,0.0,0.0,0.0,0.0,0.0,0.0,0.0,0.0,0.0,0.0,0.0,0.0,0.0,0.0,0.0,0.0,0.0,0.0,0.0,0.0,0.0,0.0,0.0,0.0,0.0,0.0,0.0,0.0,0.0,0.0,0.0,0.0,0.0,0.0,0.0,0.0,0.0,0.0,0.0,0.0,0.0,0.0,0.0,0.0,0.0,0.0,0.0,0.0,0.0,0.0,0.0,0.0,0.0,0.0,0.0,0.0,0.0,0.0,0.0,0.0,0.0,0.0,0.0,0.0,0.0,0.0,0.0,0.0,0.0,0.0,0.0,0.0,0.0,0.0,0.0,0.0,0.0,0.0,0.0,0.0,0.0,0.0,0.0,0.0,0.0,0.0,0.0,0.0,0.0,0.0,0.0,0.0,0.0,0.0,0.0,0.0,0.0,0.0,0.0,0.0,0.0,0.0,0.0,0.0,0.0,0.0,0.0,0.0,0.0,0.0,0.0,0.0,0.0,0.0,0.0,0.0,0.0,0.0,0.0,0.0,0.0,0.0,0.0,0.0,0.0,0.0,0.0,0.0,0.0,0.0,0.0,0.0,0.0,0.0,0.0,0.0,0.0,0.0,0.0,0.0,0.0,0.0,0.0,0.0,0.0,0.0,0.0,0.0,0.0,0.0,0.0,0.0,0.0,0.0,0.0,0.0,0.0,0.0,0.0,0.0,0.0,0.0,0.0,0.0,0.0,0.0,0.0,0.0,0.0,0.0,0.0,0.0,0.0,0.0,0.0,0.0,0.0,0.0,0.0,0.0,0.0,0.0,0.0,0.0,0.0,0.0,0.0,0.0,0.0,0.0,0.0,0.0,0.0,0.0,0.0,0.0,0.0,0.0,0.0,0.0,0.0,0.0,0.0,0.0,0.0,0.0,0.0,0.0,0.0,0.0,0.0,0.0,0.0,0.0,0.0,0.0,0.0,0.0,0.0,0.0,0.0,0.0,0.0,0.0,0.0,0.0,0.0,0.0,0.0,0.0,0.0,0.0,0.0,0.0,0.0,0.0,0.0,0.0,0.0,0.0,0.0,0.0,0.0,0.0,0.0,0.0,0.0,0.0,0.0,0.0,0.0,0.0,0.0,0.0,0.0,0.0,0.0,0.0,0.0,0.0,0.0,0.0,0.0,0.0,0.0,0.0,0.0,0.0,0.0,0.0,0.0,0.0,0.0,0.0,0.0,0.0,0.0,0.0,0.0,0.0,0.0,0.0,0.0,0.0,0.0,0.0,0.0,0.0,0.0,0.0,0.0,0.0,0.0,0.0,0.0,0.0,0.0,0.0,0.0,0.0,0.0,0.0,0.0,0.0,0.0,0.0,0.0,0.0,0.0,0.0,0.0,0.0,0.0,0.0,0.0,0.0,0.0,0.0,0.0,0.0,0.0,0.0,0.0,0.0,0.0,0.0,0.0,0.0,0.0,0.0,0.0,0.0,0.0,0.0,0.0,0.0,0.0,0.0,0.0,0.0,0.0,0.0,0.0,0.0,0.0,0.0,0.0,0.0,0.0,0.0,0.0,0.0,0.0,0.0,0.0,0.0,0.0,0.0,0.0,0.0,0.0,0.0,0.0,0.0,0.0,0.0,0.0,0.0,0.0,0.0,0.0,0.0,0.0,0.0,0.0,0.0,0.0,0.0,0.0,0.0,0.0,0.0,0.0,0.0,0.0,0.0,0.0,0.0,0.0,0.0,0.0,0.0,0.0,0.0,0.0,0.0,0.0,0.0,0.0,0.0,0.0,0.0,0.0,0.0,0.0,0.0,0.0,0.0,0.0,0.0,0.0,0.0,0.0,0.0,0.0,0.0,0.0,0.0,0.0,0.0,0.0,0.0,0.0,0.0,0.0,0.0,0.0,0.0,0.0,0.0,0.0,0.0,0.0,0.0,0.0,0.0,0.0,0.0,0.0,0.0,0.0,0.0,0.0,0.0,0.0,0.0,0.0,0.0,0.0,0.0,0.0,0.0,0.0,0.0,0.0,0.0,0.0,0.0,0.0,0.0,0.0,0.0,0.0,0.0,0.0,0.0,0.0,0.0,0.0,0.0,0.0,0.0,0.0,0.0,0.0,0.0,0.0,0.0,0.0,0.0,0.0,0.0,0.0,0.0,0.0,0.0,0.0,0.0,0.0,0.0,0.0,0.0,0.0,0.0,0.0,0.0,0.0,0.0,0.0,0.0,0.0,0.0,0.0,1.0974,0.0,0.0,0.0,0.0,0.0,0.0,0.0,0.0,0.0,0.0,0.0,0.0,0.0,0.0,0.0,0.0,0.0,0.0,0.0,0.0,0.0,0.0,0.0,0.0,0.0,0.0,0.0,0.0,0.0,0.0,0.0,0.0,0.0,0.0,0.0,0.0,0.0,0.0,0.0,1.9365,1.9149,1.8815,1.804,1.6448,1.426,0.0,0.0,0.0,0.0,0.0,0.0,0.0,0.0,0.0,0.0,0.0,0.0,0.0,0.0,0.0,0.0,0.0,0.0,0.0,0.0,0.0,0.0,0.0,0.0,0.0,0.0,0.0,0.0,0.0,0.0,0.0,0.0,0.0,0.0,0.0,0.0,0.0,0.0,0.0,0.0,0.0,0.0,0.0,0.0,0.0,0.0,0.0,0.0,0.0,0.0,0.0,0.0,0.0,0.0,0.0,0.0,0.0,0.0,0.0,0.0,0.0,0.0,0.0,0.0,0.0,0.0,0.0,0.0,0.0,0.0,0.0,1.1154,0.0,0.0,0.0,0.0,0.0,0.0,0.0,0.0,0.0,0.0,0.0,0.0,0.0,0.0,0.0,0.0,0.0,0.0,0.0,0.0,0.0,0.0,0.0,0.0,2.1326,2.1392,2.2027,0.0,0.0,0.0,0.0,0.0,0.0,0.0,0.0,0.0,2.1364,2.1364,2.1392,2.1392,2.1354,2.0449,1.8897,1.6724,1.5384,0.0,0.0,0.0,0.0,0.0,0.0,0.0,0.0,0.0,0.0,0.0,0.0,0.0,0.0,0.0,0.0,0.0,0.0,0.0,0.0,0.0,0.0,0.0,0.0,0.0,0.0,0.0,0.0,0.0,0.0,0.0,0.0,0.0,0.0,0.0,0.0,0.0,0.0,0.0,0.0,0.0,0.0,0.0,0.0,0.0,0.0,0.0,0.0,0.0,0.0,0.0,0.0,0.0,0.0,0.0,0.0,0.0,0.0,0.0,0.0,0.0,0.0,0.0,1.351,1.3685,1.3545,1.3389,1.3651,1.4233,1.3168,1.3074,1.3439,0.0,0.0,0.0,0.0,0.0,0.0,0.0,0.0,0.0,0.0,0.0,0.0,0.0,0.0,0.0,0.0,0.0,0.0,0.0,0.0,0.0,0.0,2.2178,2.2291,2.2627,2.2776,2.2888,0.0,0.0,0.0,0.0,0.0,0.0,0.0,2.244,2.2403,2.2403,2.259,2.259,2.2403,2.228,2.1834,2.1034,1.7774,1.6119,1.5756,0.0,0.0,0.0,0.0,0.0,0.0,0.0,0.0,0.0,0.0,0.0,0.0,0.0,0.0,0.0,0.0,0.0,0.0,0.0,0.0,0.0,0.0,0.0,0.0,0.0,0.0,0.0,0.0,0.0,0.0,0.0,0.0,0.0,0.0,0.0,0.0,0.0,0.0,0.0,0.0,0.0,1.5773,1.5711,0.0,0.0,0.0,0.0,0.0,0.0,0.0,0.0,0.0,0.0,0.0,0.0,0.0,1.2972,1.3184,1.4028,1.4448,1.4441,1.5311,1.5699,1.5699,1.5658,1.5718,1.5812,1.5643,0.0,1.3225,1.2772,0.0,0.0,0.0,0.0,0.0,0.0,0.0,0.0,0.0,0.0,0.0,0.0,0.0,0.0,0.0,0.0,0.0,0.0,0.0,0.0,0.0,2.3441,2.3708,2.3891,2.466,2.5016,2.4743,0.0,0.0,0.0,0.0,2.4564,2.4445,2.4,2.3781,2.3781,2.3854,2.3854,2.3781,2.3661,2.3283,2.2595,2.0631,1.8992,1.7631,1.6487,0.0,0.0,0.0,0.0,0.0,0.0,0.0,0.0,0.0,0.0,0.0,0.0,0.0,0.0,0.0,0.0,0.0,0.0,0.0,0.0,0.0,0.0,0.0,0.0,0.0,0.0,0.0,0.0,0.0,0.0,0.0,0.0,0.0,0.0,0.0,0.0,0.0,0.0,0.0,1.5693,1.5541,1.5499,1.5157,1.4664,0.0,0.0,0.0,0.0,0.0,0.0,0.0,0.0,0.0,1.472,1.472,1.4845,1.5039,1.5462,1.5711,1.5842,1.6237,1.6451,1.6451,1.6327,1.6286,1.6237,1.617,1.5625,1.4791,1.3965,1.3178,1.2386,0.0,0.0,0.0,0.0,1.061,1.0303,0.0,0.0,0.0,0.0,0.0,0.0,0.0,0.0,0.0,0.0,0.0,0.0,2.4434,2.5168,2.5671,2.5706,2.6714,2.7144,2.6641,2.7056,0.0,0.0,0.0,2.6427,2.6427,2.5732,2.5299,2.5264,2.5146,2.498,2.4814,2.4661,2.4153,2.3385,2.2668,2.134,1.9504,1.7979,1.6996,1.6389,0.0,0.0,0.0,0.0,0.0,0.0,0.0,0.0,0.0,0.0,0.0,0.0,0.0,0.0,0.0,0.0,0.0,0.0,0.0,0.0,0.0,0.0,0.0,0.0,0.0,0.0,0.0,0.0,0.0,0.0,0.0,0.0,0.0,0.0,0.0,0.0,0.0,1.6252,1.6128,1.5851,1.5963,1.5679,0.0,0.0,0.0,0.0,0.0,0.0,1.5754,1.595,1.6128,1.617,1.617,1.6286,1.6476,1.6476,1.6566,1.6689,1.6689,1.6689,1.6689,1.6566,1.6476,1.6476,1.6327,1.6252,1.6188,1.5082,1.4478,1.4151,1.312,1.2397,1.2,1.2261,1.2119,1.1807,0.0,0.0,0.0,0.0,0.0,0.0,0.0,0.0,0.0,0.0,0.0,2.6997,2.6997,2.7742,2.8268,2.8488,2.8566,2.8598,2.8566,2.8478,2.8317,2.8096,2.7973,2.7887,2.7887,2.7351,2.6981,2.6786,2.6336,2.5756,2.5068,2.5068,2.4685,2.392,2.3125,2.2372,2.1684,2.0632,1.9525,1.8348,1.7098,0.0,0.0,0.0,0.0,0.0,0.0,0.0,0.0,0.0,0.0,0.0,0.0,0.0,0.0,0.0,0.0,0.0,0.0,0.0,0.0,0.0,0.0,0.0,0.0,0.0,0.0,0.0,0.0,0.0,0.0,0.0,0.0,0.0,0.0,0.0,0.0,0.0,0.0,1.7396,1.7569,0.0,0.0,0.0,0.0,1.6859,1.7071,1.6879,1.6105,1.6079,1.6203,1.6394,1.6394,1.6484,1.6697,1.6697,1.6689,1.6689,1.6689,1.6689,1.6689,1.6689,1.6697,1.6697,1.6648,1.6656,1.6607,1.6188,1.5455,1.465,1.4389,1.3723,1.2975,1.3421,1.3244,1.2804,0.0,0.0,0.0,0.0,0.0,0.0,0.0,0.0,0.0,2.6286,2.7425,2.8228,2.8228,2.8575,2.8803,2.8894,2.9303,2.9366,2.8911,2.924,2.9254,2.8734,2.8684,2.8652,2.8652,2.8357,2.7975,2.7477,2.7227,2.6744,2.6059,2.592,2.574,2.5456,2.4721,2.3983,2.3194,2.1556,2.0464,1.9768,1.8899,1.7572,0.0,0.0,0.0,0.0,0.0,0.0,0.0,0.0,0.0,0.0,0.0,0.0,0.0,0.0,0.0,0.0,0.0,0.0,0.0,0.0,0.0,0.0,0.0,0.0,0.0,0.0,0.0,0.0,0.0,0.0,0.0,0.0,0.0,0.0,0.0,0.0,0.0,1.7606,1.836,0.0,1.7708,1.8216,1.8487,1.8219,1.8422,1.8461,1.8149,1.8158,1.8078,1.7893,1.7893,1.7772,1.7546,1.7264,1.714,1.714,1.6907,1.676,1.676,1.676,1.676,1.676,1.676,1.676,1.676,1.6604,1.6309,1.5977,1.5683,1.5217,1.4727,1.4691,1.4386,1.3983,0.0,0.0,0.0,0.0,0.0,0.0,0.0,0.0,2.733,2.7683,2.8583,2.93,2.9552,2.9752,2.9936,3.012,3.0435,3.048,3.0151,3.0556,3.06,3.006,2.9813,2.9619,2.9377,2.9038,2.8546,2.7892,2.7557,2.7074,2.6459,2.6283,2.6085,2.581,2.5317,2.479,2.4145,2.2803,2.1727,2.0842,2.0256,1.914,1.7755,0.0,0.0,0.0,0.0,0.0,0.0,0.0,0.0,0.0,0.0,0.0,0.0,0.0,0.0,0.0,0.0,0.0,0.0,0.0,0.0,0.0,0.0,0.0,0.0,0.0,0.0,0.0,0.0,0.0,0.0,0.0,0.0,0.0,0.0,0.0,1.9157,1.8471,1.9552,2.0002,1.9113,1.9675,1.9953,1.964,1.9806,1.9806,1.9541,1.9502,1.9328,1.8885,1.8885,1.8626,1.814,1.7867,1.7734,1.7734,1.7261,1.7139,1.7327,1.7148,1.7073,1.7073,1.7073,1.6968,1.6826,1.7006,1.7021,1.6979,1.6544,1.6268,1.6016,1.5711,1.5389,1.5153,0.0,0.0,0.0,0.0,0.0,0.0,0.0,2.6739,2.7617,2.8693,2.9532,3.0316,3.1071,3.1378,3.1768,3.2382,3.2066,3.201,3.2394,3.2394,3.2324,3.2127,3.1508,3.0836,3.0172,2.9435,2.8769,2.814,2.7432,2.6777,2.624,2.6125,2.5668,2.4926,2.4799,2.4658,2.4517,2.4515,2.3441,2.1721,2.1195,2.0547,1.9781,0.0,0.0,0.0,0.0,0.0,0.0,0.0,0.0,0.0,0.0,0.0,0.0,0.0,0.0,0.0,0.0,0.0,0.0,0.0,0.0,0.0,0.0,0.0,0.0,0.0,0.0,0.0,0.0,0.0,0.0,0.0,0.0,0.0,1.9765,2.0663,2.104,2.0082,2.1254,2.1787,2.0914,2.1776,2.2042,2.1191,2.1115,2.0759,1.9983,1.9934,1.9715,1.926,1.925,1.8976,1.8442,1.846,1.845,1.8414,1.7898,1.7935,1.8395,1.7861,1.7647,1.7647,1.7647,1.7358,1.6934,1.7432,1.7647,1.761,1.7018,1.6809,1.6757,1.6419,1.6274,1.6259,0.0,0.0,0.0,0.0,0.0,0.0,0.0,2.7736,2.8629,2.9421,3.0419,3.1305,3.1916,3.2253,3.268,3.3209,3.3172,3.294,3.2487,3.2481,3.2455,3.2388,3.2207,3.1982,3.1701,3.0891,3.0098,2.9332,2.902,2.8318,2.7203,2.7178,2.6768,2.6036,2.5682,2.5177,2.4663,2.4713,2.4108,2.315,2.3153,2.2639,2.1815,0.0,0.0,0.0,0.0,0.0,0.0,0.0,0.0,0.0,0.0,0.0,0.0,0.0,0.0,0.0,0.0,0.0,0.0,0.0,0.0,0.0,0.0,0.0,0.0,0.0,0.0,0.0,0.0,0.0,0.0,0.0,0.0,2.3132,2.209,2.1772,2.1634,2.172,2.2054,2.2214,2.1966,2.2252,2.2141,2.157,2.1539,2.1292,2.0715,2.0694,2.0487,2.0091,2.0054,1.9839,1.9357,1.9308,1.9279,1.9279,1.9085,1.8933,1.8817,1.868,1.8611,1.8611,1.8611,1.867,1.8753,1.8923,1.8992,1.8851,1.7531,1.7015,1.6925,1.6197,1.6165,1.6545,0.0,0.0,0.0,0.0,0.0,0.0,0.0,2.8371,2.9202,3.0297,3.1043,3.1821,3.2756,3.2826,3.3093,3.3878,3.3503,3.3115,3.2861,3.2555,3.237,3.237,3.2175,3.1884,3.1516,3.0703,2.9911,2.9161,2.8778,2.8205,2.7419,2.7359,2.7074,2.6611,2.6286,2.5887,2.5457,2.5534,2.5475,2.5331,2.5388,2.4626,2.3377,2.282,2.2262,2.1673,2.0882,2.0512,2.0384,1.9998,0.0,0.0,0.0,0.0,0.0,0.0,0.0,0.0,0.0,0.0,0.0,0.0,0.0,0.0,0.0,0.0,0.0,0.0,0.0,0.0,0.0,0.0,0.0,0.0,2.4341,2.4691,2.4423,2.3637,2.3042,2.2898,2.2931,2.2792,2.2274,2.2301,2.2144,2.1697,2.1664,2.1617,2.1487,2.1466,2.1333,2.1047,2.1047,2.0801,2.0323,2.0273,2.0267,2.0267,1.9965,1.9879,1.9901,1.9661,1.9552,0.0,1.9552,1.9519,1.953,1.9738,1.9835,0.0,0.0,0.0,0.0,0.0,1.7326,1.7335,0.0,0.0,0.0,0.0,0.0,0.0,0.0,2.8648,2.9421,3.0999,3.1451,3.2142,3.3479,3.3198,3.3306,3.4325,3.3429,3.2901,3.3198,3.2607,3.219,3.2108,3.1632,3.1044,3.036,2.9618,2.8944,2.833,2.7677,2.732,2.724,2.7166,2.6993,2.6762,2.663,2.6518,2.642,2.6504,2.692,2.7531,2.741,2.6346,2.4784,2.4416,2.4229,2.3984,2.2577,2.2067,2.1908,2.0903,0.0,0.0,0.0,0.0,0.0,0.0,0.0,0.0,0.0,0.0,0.0,0.0,0.0,0.0,0.0,0.0,0.0,0.0,0.0,0.0,0.0,0.0,0.0,0.0,2.5711,2.5971,2.6523,2.5859,2.4921,2.3806,2.3797,2.3424,2.2338,2.2308,2.2171,2.1677,2.1644,2.1749,2.1991,0.0,0.0,0.0,0.0,2.1617,2.1201,2.1221,2.1253,2.1253,2.0741,2.0773,2.1253,2.0698,2.0462,2.0462,2.0462,2.0193,1.9835,2.0333,2.0526,2.0462,1.9835,1.953,1.9498,1.9498,1.9036,1.8536,0.0,0.0,0.0,0.0,0.0,0.0,0.0,2.8519,2.9362,3.0524,3.1749,3.2853,3.3659,3.3632,3.3782,3.441,3.3733,3.3084,3.2697,3.2529,3.2158,3.15,3.1321,3.0844,3.0012,2.9276,2.8785,2.8542,2.8409,2.8009,2.7448,2.7747,2.7409,2.6566,2.6471,2.6255,2.5937,2.605,2.6519,2.7242,2.7621,2.7437,2.6842,2.6126,2.5629,2.5218,2.4644,2.4288,2.4087,2.3987,2.3081,2.2017,2.2017,2.1365,0.0,0.0,0.0,0.0,0.0,0.0,0.0,0.0,0.0,0.0,0.0,0.0,0.0,0.0,0.0,0.0,0.0,0.0,0.0,2.6692,2.7268,2.7637,2.7756,2.7623,2.6892,2.5146,2.4554,2.4072,2.356,2.319,2.2649,2.1911,2.1844,2.1695,2.1383,2.138,2.1378,2.1351,2.1339,2.1293,2.119,2.1474,2.1588,2.16,0.0,0.0,2.1588,2.1482,2.142,2.142,2.142,2.1526,2.1694,2.1788,2.1819,2.1726,2.0602,1.9868,1.9498,1.9498,1.9661,1.9933,0.0,0.0,0.0,0.0,0.0,0.0,0.0,2.8487,2.9268,3.0,3.1362,3.241,3.2812,3.3046,3.3367,3.3905,3.333,3.2646,3.1958,3.1964,3.166,3.0876,3.0821,3.0502,2.9811,2.9041,2.8699,2.8801,2.8439,2.806,2.7698,2.7921,2.7681,2.7114,2.7075,2.6915,2.6707,2.6809,2.7387,2.8284,2.8755,2.894,2.8856,2.7981,2.7465,2.7102,2.6419,2.6035,2.578,2.5301,2.4614,2.3955,2.3955,2.3432,2.2887,0.0,0.0,0.0,0.0,0.0,0.0,0.0,0.0,0.0,0.0,0.0,0.0,0.0,0.0,2.5612,0.0,0.0,2.6778,2.7541,2.7912,2.7973,2.7693,2.7653,2.7171,2.5818,2.5388,2.4771,2.3679,2.337,2.2946,2.2317,2.2027,2.1858,2.1808,2.1588,2.1537,2.1706,2.1706,2.1706,2.1706,2.1862,2.1956,2.1956,2.2123,2.2123,2.1956,2.1956,2.1956,2.1956,2.1956,2.2061,2.2197,2.2197,2.2247,2.2235,2.1608,2.0878,2.0257,2.0698,2.0751,2.0655,0.0,0.0,0.0,0.0,0.0,0.0,0.0,0.0,2.8954,2.9406,3.0658,3.1624,3.1845,3.2177,3.2552,3.2963,3.2564,3.2049,3.1404,3.1464,3.1126,3.0237,3.0239,2.9954,2.9275,2.8694,2.8515,2.8803,2.8198,2.7897,2.7897,2.7968,2.7904,2.7741,2.7809,2.7798,2.7689,2.79,2.8601,2.9622,3.0101,3.0508,3.0707,2.9902,2.931,2.8825,2.7939,2.7545,2.7309,2.6421,2.6024,2.5862,2.5768,2.5563,2.5301,2.519,2.5106,0.0,0.0,0.0,0.0,0.0,0.0,0.0,0.0,0.0,2.7657,2.7933,2.7762,2.7596,2.7754,2.7813,2.7958,2.8298,2.8285,2.7991,2.7375,2.7215,2.6847,2.6084,2.5929,2.5269,2.3766,2.353,2.3263,2.2841,2.2372,2.2199,2.2463,2.2056,2.1925,2.2197,2.2328,2.2359,2.2247,2.2389,2.2402,2.229,2.229,2.229,2.229,2.229,2.229,2.229,2.229,2.223,2.2133,2.2242,2.2371,2.2451,2.2451,2.1963,2.1333,2.2049,2.1851,2.1333,0.0,0.0,0.0,0.0,0.0,0.0,0.0,0.0,0.0,2.8579,2.9961,3.1099,3.1662,3.1712,3.1671,3.156,3.1575,3.1585,3.156,3.1579,3.098,2.9574,2.9678,2.9119,2.7689,2.7853,2.7993,2.8021,2.7933,2.7897,2.7911,2.821,2.8183,2.7894,2.8241,2.8241,2.8014,2.8721,2.9473,3.0264,3.1031,3.1703,3.223,3.1881,3.0777,2.9409,2.9216,2.908,2.8933,2.8818,2.8261,2.7544,2.7128,2.6625,2.6073,2.5522,0.0,2.5494,2.5384,2.5577,2.5825,2.5923,2.6608,2.7284,0.0,0.0,2.834,2.8852,2.9041,2.9287,2.9784,3.0018,2.997,2.9442,2.8929,2.8396,2.775,2.7195,2.6624,2.5997,2.5645,2.5261,2.4771,2.4303,2.3861,2.3518,2.3065,2.2818,2.2848,2.2389,2.2154,2.2197,2.2841,2.2919,2.2389,2.3083,2.3185,2.2647,2.2647,2.2647,2.2647,2.2647,2.2647,2.2647,2.2647,2.2335,2.1888,2.242,2.2659,2.2678,2.2678,2.2586,2.2525,2.2616,2.2586,2.2451,0.0,0.0,0.0,0.0,0.0,0.0,0.0,0.0,0.0,0.0,2.851,2.9604,2.9545,3.0405,3.1033,3.1247,3.1404,3.15,3.1538,3.1653,3.1336,3.0489,3.052,3.0011,2.882,2.8963,2.8907,2.8596,2.8645,2.8652,2.8652,2.8803,2.8791,2.8652,2.882,2.9094,2.9423,2.9719,3.0468,3.1516,3.2,3.2426,3.2791,3.2807,3.2108,3.1046,3.0252,2.9924,0.0,2.9435,2.9071,2.874,2.8545,2.83,2.8054,2.7792,2.7783,0.0,2.7743,2.7807,0.0,0.0,2.8091,2.8733,2.8851,2.9446,3.0043,3.0279,3.0484,3.0558,3.0422,3.045,3.0274,0.0,2.9043,2.8394,2.7517,2.6742,2.6167,2.5923,2.5457,2.5112,2.4954,2.4769,2.4565,2.4436,2.3972,2.3767,2.3943,2.3488,2.3339,2.3535,2.3833,2.3891,2.361,2.3962,2.3992,2.3741,2.3741,2.3544,2.3148,2.2857,2.2343,2.1743,2.2021,2.2033,2.1849,2.2444,2.2739,2.283,2.283,2.2662,2.2504,2.2658,2.2481,2.2132,0.0,0.0,0.0,0.0,0.0,0.0,0.0,0.0,0.0,0.0,0.0,2.801,2.7991,2.9498,3.0642,3.0998,3.1291,3.1462,3.1519,3.1653,3.1582,3.1213,3.1259,3.0955,3.0173,3.0279,3.0167,2.9786,2.9843,2.9898,2.9938,2.9938,2.997,3.0033,2.9999,3.0301,3.0858,3.0974,3.1587,3.2507,3.2919,3.3153,3.3277,3.3354,3.3072,3.2466,3.1255,3.0754,3.0559,3.0128,2.994,2.9897,2.9767,2.9723,2.9673,2.948,2.9435,2.9435,2.9435,0.0,0.0,2.9065,2.9415,2.9951,3.0279,3.0878,3.142,3.163,3.1766,3.1692,3.0981,3.1012,3.0806,2.9737,2.929,2.8685,2.759,2.6638,2.6077,2.6072,2.5578,2.5258,2.5258,2.509,2.5061,2.523,2.4723,2.4538,2.4823,2.4397,2.4239,2.4498,2.4697,2.4726,2.4542,2.4592,2.454,2.4343,2.4169,2.3819,2.3323,2.2839,2.2125,2.1365,2.1942,2.2196,2.2223,2.2849,2.3138,2.3215,2.3034,2.2791,2.2521,2.2569,2.223,2.1683,0.0,0.0,0.0,0.0,0.0,0.0,0.0,0.0,0.0,0.0,0.0,0.0,0.0,2.9498,3.0539,3.0605,3.1044,3.1389,3.1579,3.1598,3.1475,3.1213,3.1452,3.1425,3.1078,3.1317,3.1494,3.1528,3.1528,3.1618,3.1821,3.1821,3.1926,3.21,3.1964,3.194,3.1994,3.2574,3.2827,3.2957,3.3735,3.4012,3.3941,3.368,3.3542,3.3325,3.2333,3.1748,3.146,3.144,3.1349,3.1162,3.0714,3.0526,0.0,2.9691,2.9498,2.9498,2.9498,0.0,2.9685,2.9663,2.9973,3.0442,3.1108,3.152,3.1997,3.2687,3.2843,3.2625,3.1898,3.2333,3.2145,3.0118,2.9906,2.9505,2.8169,2.7101,2.6472,2.6484,2.6123,2.5866,0.0,2.5342,2.523,2.5839,2.5147,2.4823,2.5175,2.4739,2.4498,2.4498,2.5189,2.5301,2.4684,2.4831,2.4581,2.4014,2.3352,2.3029,2.2989,2.2523,2.226,2.2194,2.2866,2.3161,2.3203,2.3817,2.4073,2.4008,2.3345,2.3095,2.3018,2.2499,2.1963,2.143,0.0,0.0,0.0,0.0,0.0,0.0,0.0,0.0,0.0,0.0,0.0,0.0,0.0,0.0,0.0,0.0,3.0707,3.1024,3.1483,3.182,3.2091,3.2325,3.2619,3.2689,3.2425,3.2553,3.2446,3.2059,3.2117,3.2175,3.2222,3.2278,3.2332,3.2393,3.2357,3.259,3.3003,3.3154,3.3452,3.3861,3.4074,3.4161,3.4124,3.3979,3.3792,3.351,0.0,3.2729,3.2351,3.2214,3.2127,3.2074,3.1916,3.1681,3.1416,3.0968,3.0828,3.0828,3.0828,0.0,3.0825,3.0506,3.0879,3.1276,3.1174,3.1358,3.1605,3.1858,3.2044,3.2075,3.1841,3.2413,3.2376,3.0737,3.0206,2.959,2.8435,2.7486,2.6953,2.7089,2.663,0.0,0.0,0.0,0.0,2.5866,2.566,2.5619,2.5906,2.5418,2.5194,2.5351,2.5177,2.5003,2.4824,2.4829,2.474,2.4578,2.3925,2.3417,2.3056,2.2482,2.2032,2.1735,2.2734,2.3204,2.3241,2.3796,2.4048,2.3954,2.3298,2.2831,2.2484,2.2297,2.1886,2.1402,0.0,0.0,0.0,0.0,0.0,0.0,0.0,0.0,0.0,0.0,0.0,0.0,0.0,0.0,0.0,0.0,0.0,3.0845,3.146,3.1948,3.2385,3.284,3.3292,3.3519,3.3534,3.3687,3.3579,3.3241,3.3267,3.3329,3.3396,3.3476,3.3379,3.3146,3.307,3.3097,3.3209,3.3034,3.3354,3.3911,3.3559,3.3557,3.3733,3.343,3.3334,0.0,3.3298,3.3291,3.3207,3.2807,3.2679,3.2679,3.2679,3.25,3.2265,3.1859,3.1785,3.1802,3.1671,3.1634,3.1578,3.1278,3.1418,3.1599,3.1544,3.1544,3.1612,3.1848,3.1878,3.1795,3.1557,3.1949,3.1904,3.077,3.0493,3.0186,2.9499,2.8595,2.8026,2.8162,2.7476,2.6993,0.0,0.0,0.0,2.6233,2.6111,2.6078,2.6127,2.5753,2.5513,2.5473,2.5027,2.4824,2.4863,2.4655,2.4495,2.4323,2.3885,2.3519,2.315,2.2564,2.2203,2.2058,2.2942,2.3386,2.3554,2.3946,2.4102,2.4047,2.3375,2.2894,2.2572,2.239,2.2203,2.202,0.0,0.0,0.0,0.0,0.0,0.0,0.0,0.0,0.0,0.0,0.0,0.0,0.0,0.0,0.0,0.0,0.0,0.0,3.1423,3.193,3.2386,3.2779,3.3377,3.3895,3.4323,3.4586,3.4775,3.486,3.4812,3.4907,3.509,3.5166,3.4857,3.4223,3.4037,3.348,3.267,3.236,3.2608,3.3148,3.2329,3.2367,3.2853,3.2154,3.2329,3.2934,3.2912,3.3407,3.3949,3.3274,3.3051,3.3054,3.3021,3.2978,3.2838,3.2364,3.2332,3.2368,3.2038,3.193,3.193,3.1912,3.1618,3.1504,3.2145,3.2019,3.1955,3.2593,3.2341,3.1785,0.0,0.0,3.1051,3.041,3.0829,3.1248,3.1207,3.0344,2.9692,0.0,0.0,0.0,0.0,0.0,0.0,2.6841,0.0,2.6141,2.5821,2.5745,2.5454,2.4863,2.4752,2.4708,2.4708,2.427,2.3803,2.3297,2.3297,2.3297,2.3275,2.2777,2.2746,2.3126,2.3414,2.3759,2.4098,2.4244,2.4301,2.4244,2.3568,2.3302,2.3255,2.2726,2.2867,2.315,0.0,0.0,0.0,0.0,0.0,0.0,0.0,0.0,0.0,0.0,0.0,0.0,0.0,0.0,0.0,0.0,0.0,0.0,3.0942,3.1658,3.2299,3.2856,3.3263,3.3849,3.4653,3.412,3.4023,3.4376,3.3779,3.3506,3.3564,3.3634,3.3529,3.3334,3.3329,3.3044,3.2561,3.2463,3.2355,3.2238,3.2008,3.2009,3.2091,3.1898,3.1935,3.2184,3.2774,3.3096,3.332,3.3642,3.3752,3.3693,3.3439,3.3354,3.3281,3.2898,3.282,3.2775,3.2504,3.242,3.2352,3.2109,3.1966,3.1945,3.2117,3.1819,3.1548,3.1715,3.1804,3.1735,0.0,0.0,0.0,3.1612,3.1693,0.0,3.1526,3.1269,0.0,3.041,0.0,2.9567,2.8687,2.8591,0.0,0.0,2.6304,2.5901,2.5792,2.4902,2.4297,2.4152,2.3743,2.3518,2.3518,2.3502,2.3452,2.3297,2.3297,2.3297,2.3297,2.315,2.315,2.3275,2.3793,2.4072,2.4179,2.4209,2.4236,2.4163,2.3543,2.3295,2.328,2.3142,2.3172,2.3201,0.0,0.0,0.0,0.0,0.0,0.0,0.0,0.0,0.0,0.0,0.0,0.0,0.0,0.0,0.0,0.0,0.0,0.0,0.0,3.1138,3.1933,3.2263,3.2751,3.3276,3.381,3.3269,3.3166,3.3534,3.3095,3.2904,3.3003,3.3037,3.2855,3.2469,3.2424,3.2052,3.1474,3.1333,3.1345,0.0,0.0,3.1014,3.1236,3.0886,3.0895,3.1212,3.215,3.2845,0.0,0.0,0.0,3.3689,3.363,3.3532,3.339,3.3196,0.0,3.284,3.2589,3.2506,3.2456,3.2284,3.2232,3.2232,3.2232,3.202,3.184,3.184,3.1777,0.0,3.1472,0.0,0.0,0.0,0.0,0.0,3.2627,3.2434,3.2119,0.0,3.1315,0.0,2.9537,2.941,2.8741,0.0,2.6484,2.5869,2.5223,2.4458,2.3885,2.3554,2.3302,2.3223,2.3268,2.3356,2.3407,2.3436,2.3436,2.3436,2.3436,2.3436,2.3429,2.3415,0.0,2.3918,2.3911,2.3918,2.3941,2.3896,2.3562,2.3436,2.3436,2.3436,2.3273,2.2975,0.0,0.0,0.0,0.0,0.0,0.0,0.0,0.0,0.0,0.0,0.0,0.0,0.0,0.0,0.0,0.0,0.0,0.0,0.0,0.0,3.1185,3.1268,3.187,3.2243,3.2305,3.2106,3.2142,3.2424,3.2359,3.2415,3.2594,3.2594,3.2226,3.1549,3.1367,3.0859,3.0103,2.9804,3.0085,3.0631,2.9782,2.9828,3.0301,0.0,0.0,3.0118,3.127,0.0,0.0,0.0,3.3258,3.335,3.3652,3.3522,3.3306,3.3306,3.3093,3.2797,3.2523,3.2439,3.244,3.2405,3.2406,3.2406,3.2406,3.2406,3.2406,3.2406,0.0,3.1694,3.1657,3.101,3.0945,3.2293,0.0,3.264,3.3981,3.364,3.3275,3.3226,3.2378,3.1406,3.0354,3.0116,2.9257,2.7419,2.6923,2.6064,2.4612,2.435,2.394,2.3253,2.3275,2.3407,2.3596,2.3553,2.3581,2.3681,2.3616,2.3595,2.3595,2.3595,2.3566,2.3531,0.0,0.0,2.3516,2.3588,2.3595,2.3595,2.3595,2.3595,2.3595,2.3505,2.3152,2.2673,0.0,0.0,0.0,0.0,0.0,0.0,0.0,0.0,0.0,0.0,1.815,0.0,0.0,0.0,0.0,0.0,0.0,0.0,0.0,0.0,0.0,2.9983,3.0437,3.0709,3.0785,3.0582,3.065,3.097,3.0513,3.035,3.043,3.0486,3.0409,3.0228,3.019,2.9997,2.9706,2.9635,2.9626,2.9634,2.9237,2.9156,2.9221,2.8821,0.0,0.0,0.0,0.0,0.0,0.0,3.3078,3.3306,3.3364,3.335,3.3306,3.3306,3.3262,3.3139,3.2813,3.2716,3.2669,3.2474,3.2406,3.2406,3.2406,3.2406,0.0,0.0,3.2336,3.2179,3.1894,3.1712,3.1946,3.2908,0.0,0.0,0.0,0.0,3.4154,0.0,0.0,0.0,0.0,0.0,0.0,0.0,0.0,2.6686,2.5388,2.4817,2.4337,2.3931,2.3625,2.3689,2.4156,2.3782,2.3782,2.4177,2.3782,2.3595,2.3595,2.3595,2.3595,2.3573,2.3595,0.0,2.3573,2.361,2.3595,2.3595,2.3595,2.3595,2.3535,2.3047,2.2793,2.2538,0.0,0.0,0.0,0.0,0.0,0.0,0.0,0.0,0.0,0.0,1.6044,1.7823,0.0,0.0,0.0,0.0,0.0,0.0,0.0,0.0,0.0,0.0,0.0,0.0,2.9248,2.8953,2.9058,2.9565,0.0,2.9248,2.9383,2.9392,2.9392,2.9373,2.9258,2.9165,2.9066,2.8964,2.8888,2.882,2.8743,2.8694,0.0,0.0,0.0,0.0,0.0,0.0,0.0,0.0,3.2705,3.2848,3.2986,3.2941,3.2848,3.2986,3.2941,3.2802,3.2639,3.2589,3.2556,3.244,3.2406,3.2406,3.2406,0.0,0.0,0.0,3.2406,3.2301,3.1966,3.1802,0.0,0.0,0.0,0.0,0.0,0.0,0.0,0.0,0.0,0.0,0.0,0.0,0.0,0.0,0.0,2.7143,2.539,2.4896,2.4608,2.4522,2.4333,2.4354,2.4599,2.4379,2.4379,2.4599,2.4379,2.4168,2.3973,2.3973,2.3824,2.3595,2.3595,0.0,2.3595,2.3595,2.3595,2.3565,2.3236,2.3137,2.3041,2.2418,2.1949,2.156,0.0,0.0,0.0,0.0,0.0,0.0,0.0,1.1111,1.2358,1.3324,1.4271,1.5755,1.8083,1.9334,2.061,0.0,0.0,0.0,0.0,0.0,0.0,0.0,0.0,0.0,0.0,0.0,0.0,2.8149,2.8201,0.0,0.0,0.0,0.0,0.0,2.8366,2.8296,2.8283,2.8129,2.8112,0.0,0.0,2.8214,0.0,0.0,0.0,0.0,0.0,0.0,0.0,0.0,3.2406,3.244,3.2654,3.2573,3.244,3.2654,3.2556,3.2406,3.2406,3.2406,3.2406,3.2406,3.2406,3.2406,3.2406,3.2406,0.0,0.0,3.2406,3.2301,3.1966,0.0,3.1942,0.0,3.2966,0.0,0.0,0.0,0.0,0.0,0.0,0.0,0.0,0.0,0.0,0.0,0.0,0.0,2.5442,2.504,2.4926,2.504,2.4942,2.4942,2.504,2.4942,2.4942,2.504,2.4942,2.4739,2.4426,2.4426,2.4224,2.3894,2.3894,0.0,0.0,2.3707,2.3646,2.3564,2.2862,2.2601,2.2511,2.1848,2.1257,2.0809,0.0,0.0,0.0,0.0,0.0,0.0,0.0,1.003,1.0775,1.2482,1.3368,1.4291,1.5428,1.7644,1.9171,0.0,0.0,0.0,0.0,0.0,0.0,0.0,0.0,0.0,0.0,0.0,0.0,2.6685,2.6935,0.0,0.0,0.0,0.0,0.0,0.0,2.7332,2.7332,2.7302,0.0,0.0,0.0,0.0,0.0,0.0,0.0,0.0,0.0,0.0,0.0,0.0,0.0,3.2388,3.2422,3.2422,3.2388,3.2422,0.0,0.0,3.2406,3.2406,3.2406,3.2406,3.2406,3.2406,3.2406,0.0,3.2406,3.2406,3.2406,3.2301,3.1966,3.1876,3.2154,0.0,0.0,3.3567,0.0,0.0,0.0,0.0,0.0,0.0,0.0,0.0,0.0,0.0,0.0,0.0,2.6145,2.5666,2.5427,2.5446,2.5082,2.5079,2.5446,2.5079,2.5082,2.5446,2.5063,2.4883,2.4843,2.4843,2.4823,2.4784,2.4784,0.0,0.0,2.4053,2.3767,2.3685,2.2663,2.2244,2.2152,2.1486,2.1213,2.1114,0.0,0.0,0.0,0.0,0.0,0.0,0.0,0.9576,1.0143,1.0887,1.2063,1.3055,1.3571,1.5342,1.7157,0.0,0.0,0.0,0.0,0.0,0.0,0.0,0.0,0.0,0.0,0.0,0.0,2.5188,2.5271,0.0,0.0,0.0,0.0,0.0,0.0,2.5805,2.6013,0.0,0.0,0.0,0.0,0.0,0.0,0.0,0.0,0.0,0.0,0.0,0.0,0.0,0.0,0.0,3.2319,3.2336,0.0,0.0,3.2406,3.2406,3.2406,3.2406,3.2406,3.2406,3.2406,3.2406,3.2406,0.0,3.2406,3.2406,3.2406,3.2301,3.1966,3.1766,3.2,0.0,0.0,0.0,3.4707,0.0,0.0,0.0,0.0,0.0,0.0,0.0,0.0,0.0,0.0,0.0,2.6235,2.6008,2.5919,2.5919,2.5772,2.5754,2.5919,2.5754,2.5754,2.5919,2.5754,2.5532,2.5256,2.5256,2.5137,2.4887,2.4441,0.0,0.0,2.3437,2.3154,2.3057,2.2217,2.1898,2.182,2.1186,2.0969,2.0939,0.0,0.0,0.0,0.0,0.0,0.0,0.8703,0.9198,0.9728,1.018,1.1223,1.2187,1.2783,1.3905,1.5438,1.7634,0.0,0.0,0.0,0.0,0.0,0.0,0.0,0.0,0.0,0.0,0.0,2.3612,2.3783,2.3824,0.0,0.0,0.0,2.3824,0.0,0.0,0.0,0.0,0.0,0.0,0.0,0.0,0.0,0.0,0.0,0.0,0.0,0.0,0.0,0.0,0.0,0.0,0.0,0.0,0.0,0.0,3.2406,3.2406,3.2406,3.2406,3.2406,3.2406,3.2406,3.2406,0.0,0.0,3.2406,3.2406,3.2406,3.2301,3.1966,3.1747,3.1961,3.3031,3.3004,3.3322,3.4724,0.0,0.0,0.0,0.0,0.0,0.0,0.0,0.0,0.0,0.0,0.0,0.0,2.6202,2.6202,2.6202,2.6202,2.6202,2.6202,2.6202,2.6202,2.6202,2.6202,2.6043,2.5703,2.5475,2.523,2.4916,0.0,0.0,0.0,2.3053,2.2765,2.2684,2.1879,2.1575,2.1544,2.1101,2.0958,2.0958,0.0,0.0,0.0,0.0,0.0,0.0,0.0,0.8703,0.9268,1.0881,1.1111,1.1706,1.3309,1.3681,1.4217,1.5161,0.0,0.0,0.0,0.0,0.0,0.0,0.0,0.0,0.0,0.0,2.1414,2.202,2.2563,2.2667,2.2435,2.2839,2.2862,2.2639,0.0,0.0,0.0,0.0,0.0,0.0,0.0,0.0,0.0,0.0,0.0,0.0,0.0,0.0,0.0,0.0,0.0,0.0,0.0,3.2144,3.2126,3.2336,3.2406,3.2406,3.2406,3.2406,3.2406,3.2406,3.2406,3.2406,0.0,0.0,3.2406,3.2406,3.2406,3.2301,3.1966,3.1894,3.2192,3.3052,3.3198,0.0,3.4731,0.0,0.0,0.0,0.0,0.0,0.0,0.0,0.0,0.0,0.0,0.0,0.0,2.6202,2.6202,2.6202,2.6202,2.6202,2.6202,2.6202,2.6202,2.6202,2.6202,2.6202,2.6169,2.5441,2.5093,0.0,0.0,0.0,0.0,2.3189,2.2907,2.2778,2.1727,2.1294,2.1309,2.1309,2.1293,2.134,0.0,0.0,0.0,0.0,0.0,0.0,0.0,0.8703,0.9079,1.0143,1.0775,1.1484,1.2562,1.3346,1.3964,1.4418,0.0,0.0,0.0,0.0,0.0,0.0,0.0,0.0,0.0,0.0,2.0042,2.0218,2.0407,2.0432,2.0344,2.0481,2.0506,2.0419,2.069,0.0,0.0,0.0,0.0,0.0,0.0,0.0,0.0,0.0,0.0,0.0,0.0,0.0,0.0,0.0,0.0,0.0,0.0,0.0,0.0,3.1298,3.1748,3.2284,3.2388,3.2406,3.2406,3.2406,3.2406,3.2388,3.2284,3.2267,3.2249,3.2214,3.2196,3.2179,3.2126,3.2179,3.2502,3.3349,3.3537,3.391,0.0,0.0,0.0,0.0,0.0,0.0,0.0,0.0,0.0,0.0,0.0,0.0,0.0,2.6202,2.6202,2.6202,2.6202,2.6202,2.6202,2.6202,2.6202,2.6185,2.569,2.5458,2.5407,2.4696,0.0,0.0,0.0,0.0,0.0,2.2443,2.216,2.2112,2.1775,2.1631,2.1631,2.1631,2.1631,2.1646,0.0,0.0,0.0,0.0,0.0,0.0,0.0,0.8703,0.9008,0.9809,1.0331,1.1074,1.2187,1.2856,1.3484,1.4057,0.0,0.0,0.0,0.0,0.0,0.0,0.0,0.0,0.0,1.8224,1.8584,1.8833,1.9264,1.9415,1.9335,1.9687,1.9702,1.9439,1.9733,0.0,0.0,0.0,0.0,0.0,0.0,0.0,2.2823,0.0,0.0,0.0,0.0,0.0,0.0,0.0,0.0,0.0,0.0,0.0,0.0,0.0,3.1147,3.162,3.1748,3.1785,3.1804,3.1984,3.1912,0.0,0.0,3.1894,3.1894,3.184,3.2002,3.2231,3.2581,3.2632,3.2938,3.3902,3.4011,3.4262,0.0,0.0,0.0,0.0,0.0,0.0,0.0,0.0,0.0,0.0,0.0,0.0,0.0,2.6345,2.6398,2.6503,2.631,2.6202,2.6202,2.6202,2.6053,2.5772,2.5325,2.4944,2.4663,2.3918,0.0,0.0,0.0,0.0,0.0,2.1995,2.1812,2.1812,2.1812,2.1812,2.1812,2.1812,2.1812,2.1796,0.0,0.0,0.0,0.0,0.0,0.0,0.0,0.0,0.0,0.0,0.9884,1.0519,1.2114,1.2305,1.2813,0.0,0.0,0.0,0.0,0.0,0.0,0.0,0.0,0.0,0.0,1.6472,1.7096,1.7705,1.8804,1.9216,1.9003,1.9863,1.9949,1.9343,1.9709,0.0,0.0,0.0,0.0,0.0,0.0,0.0,0.0,0.0,0.0,0.0,0.0,0.0,0.0,0.0,0.0,0.0,0.0,0.0,0.0,0.0,0.0,0.0,0.0,3.0694,3.0818,3.1264,0.0,0.0,0.0,0.0,0.0,3.1378,3.1819,3.2422,3.3209,3.3198,3.3466,3.4609,3.4556,0.0,0.0,0.0,0.0,0.0,0.0,0.0,0.0,0.0,0.0,0.0,0.0,0.0,0.0,2.6623,2.6725,2.6957,2.652,2.6239,2.6238,2.6154,2.5772,2.511,2.4994,2.458,2.3901,2.3156,0.0,0.0,0.0,0.0,0.0,2.1812,2.1796,2.1811,2.1812,2.1796,2.1811,2.1812,2.1796,2.1811,0.0,0.0,0.0,0.0,0.0,0.0,0.0,0.0,0.0,0.0,0.0,1.0519,1.2114,1.2452,0.0,0.0,0.0,0.0,0.0,0.0,0.0,0.0,0.0,0.0,0.0,1.5609,1.584,1.5999,1.6566,1.6806,1.6754,1.6968,1.7297,1.7675,1.7756,0.0,0.0,0.0,0.0,0.0,0.0,0.0,0.0,0.0,0.0,0.0,2.2381,2.2566,0.0,0.0,0.0,0.0,0.0,0.0,0.0,0.0,2.9065,2.9454,2.9477,0.0,3.0808,3.0908,3.0868,3.0788,0.0,0.0,0.0,0.0,0.0,3.2156,3.2754,3.341,3.4061,3.4712,3.5001,3.5273,0.0,0.0,0.0,0.0,0.0,0.0,0.0,0.0,0.0,0.0,0.0,0.0,0.0,2.6908,2.6842,2.6708,2.6775,2.6708,2.652,2.5744,2.5259,2.5094,2.3967,2.3321,2.3123,2.2377,0.0,0.0,0.0,0.0,2.1812,2.1812,2.1899,2.201,2.1855,2.1882,2.2013,2.1855,2.1825,2.1928,0.0,0.0,0.0,0.0,0.0,0.0,0.0,0.0,0.0,0.0,0.0,0.0,0.0,0.0,0.0,0.0,0.0,0.0,0.0,0.0,0.0,0.0,0.0,0.0,1.4912,1.5007,1.5165,1.5448,1.5951,1.6179,1.6179,1.6506,1.6725,1.6899,1.6704,0.0,0.0,0.0,0.0,0.0,2.0388,0.0,0.0,0.0,0.0,0.0,2.2024,2.211,0.0,2.2864,2.3798,2.482,0.0,0.0,0.0,0.0,2.8271,2.8622,2.8881,2.9477,3.0059,3.0293,3.0166,3.0075,3.0187,0.0,0.0,0.0,0.0,3.2555,3.3489,3.3973,3.4525,3.5437,3.562,0.0,0.0,0.0,0.0,0.0,0.0,0.0,0.0,0.0,0.0,0.0,0.0,0.0,0.0,2.7182,2.7166,2.7119,2.7151,2.6819,2.6051,2.5548,2.4929,2.4229,2.3412,2.286,2.251,2.2109,2.194,0.0,0.0,0.0,2.194,2.2075,2.2189,2.2271,2.2161,2.2189,2.2271,2.2195,2.2192,2.2261,0.0,0.0,0.0,0.0,0.0,0.0,0.0,0.0,0.0,0.0,0.0,0.0,0.0,0.0,0.0,0.0,0.0,0.0,0.0,0.0,0.0,0.0,0.0,1.4239,1.452,1.4512,1.4775,1.529,1.5848,1.6114,1.6156,1.6697,1.6841,1.6555,1.6267,1.6578,0.0,0.0,0.0,0.0,1.9899,0.0,0.0,0.0,0.0,0.0,0.0,0.0,0.0,2.2484,2.3431,2.4275,2.5293,0.0,0.0,0.0,0.0,0.0,2.8525,2.8936,2.9294,2.9582,2.946,2.9372,2.9772,0.0,0.0,0.0,0.0,0.0,0.0,3.4648,0.0,0.0,0.0,0.0,0.0,0.0,0.0,0.0,0.0,0.0,0.0,0.0,0.0,0.0,0.0,0.0,0.0,2.745,2.7509,2.7642,2.742,2.6649,2.5358,2.5358,2.4683,2.3268,2.315,2.2762,2.2153,2.2153,2.2153,0.0,0.0,0.0,2.2184,2.2415,2.2528,2.2538,2.2515,2.2542,2.2579,2.2599,2.2617,2.2682,0.0,0.0,0.0,0.0,0.0,0.0,0.0,0.0,0.0,0.0,0.0,0.0,0.0,0.0,0.0,0.0,0.0,0.0,0.0,0.0,0.0,0.0,1.4093,1.4119,1.4167,1.4167,1.4227,1.4296,1.4695,1.4874,1.4874,1.4994,1.534,1.5939,1.6535,1.7224,1.8051,0.0,0.0,0.0,0.0,0.0,0.0,0.0,0.0,0.0,0.0,0.0,0.0,2.1685,2.257,2.3322,2.3987,0.0,0.0,0.0,0.0,0.0,2.8012,2.8936,2.9737,2.9178,2.954,3.0046,3.0125,0.0,0.0,0.0,0.0,0.0,0.0,0.0,0.0,0.0,0.0,0.0,0.0,0.0,0.0,0.0,0.0,0.0,0.0,0.0,0.0,0.0,0.0,0.0,0.0,2.7657,2.76,2.7465,2.6991,2.6185,2.508,2.4902,2.4386,2.3533,2.2906,2.2548,2.2443,2.2443,2.2443,2.2443,0.0,2.2443,2.2443,2.247,2.2592,2.2738,2.2569,2.2672,2.2902,2.2691,2.2708,2.291,0.0,0.0,0.0,0.0,0.0,0.0,0.0,0.0,0.0,0.0,0.0,0.0,0.0,0.0,0.0,0.0,0.0,0.0,0.0,0.0,0.0,1.4093,1.4091,1.4183,1.4359,1.4359,1.4359,1.4359,1.4526,1.4605,1.4605,1.4605,1.4812,1.5169,1.5515,1.614,1.6941,0.0,0.0,0.0,0.0,0.0,0.0,0.0,0.0,0.0,0.0,0.0,0.0,0.0,2.2349,2.3007,2.4075,0.0,0.0,0.0,0.0,0.0,2.8015,2.8869,2.9531,2.9848,3.0335,3.0806,0.0,0.0,0.0,0.0,0.0,0.0,0.0,0.0,0.0,0.0,0.0,0.0,0.0,0.0,0.0,0.0,0.0,0.0,0.0,0.0,0.0,0.0,0.0,0.0,0.0,0.0,2.7657,2.7569,2.6941,2.6153,2.5237,2.4722,2.404,2.3158,2.2814,2.2659,2.2659,2.2659,2.2659,2.2659,0.0,2.2659,2.2672,2.2777,2.2881,2.297,2.2944,2.3033,2.3163,2.32,2.3283,2.3403,0.0,0.0,0.0,0.0,0.0,0.0,0.0,0.0,0.0,0.0,0.0,0.0,0.0,0.0,0.0,0.0,0.0,0.0,0.0,0.0,1.3819,1.4093,1.4057,1.4173,1.4497,1.4497,1.4497,1.4497,1.4497,1.4497,1.4569,1.4605,1.4605,1.4605,1.4605,1.5062,1.5833,1.642,1.7139,0.0,0.0,0.0,0.0,0.0,0.0,0.0,0.0,0.0,0.0,0.0,0.0,0.0,0.0,0.0,0.0,2.5481,2.5757,2.6238,2.7732,2.8663,2.9444,3.0505,0.0,0.0,0.0,0.0,0.0,0.0,0.0,0.0,0.0,0.0,0.0,0.0,0.0,0.0,0.0,0.0,0.0,0.0,0.0,0.0,0.0,0.0,0.0,0.0,0.0,0.0,0.0,0.0,2.7613,2.7455,2.6718,2.5932,2.5156,2.4396,2.3622,2.2881,2.2906,2.2906,2.2881,2.2889,2.2906,2.2881,2.2881,2.2881,2.2881,2.3045,2.3107,2.3102,2.3253,2.3336,2.3418,2.3638,2.375,2.3806,0.0,0.0,0.0,0.0,0.0,0.0,0.0,0.0,0.0,0.0,0.0,0.0,0.0,0.0,0.0,0.0,0.0,0.0,0.0,0.0,1.3674,1.4093,1.3928,1.3928,1.4129,1.4129,1.4129,1.4129,1.4129,1.4238,1.4425,1.4533,1.4605,1.4605,1.4605,1.5062,1.5798,1.5868,1.6315,1.707,0.0,0.0,0.0,0.0,0.0,0.0,0.0,0.0,0.0,0.0,0.0,0.0,0.0,0.0,2.4806,2.4863,2.537,2.6047,2.6652,2.8263,2.989,3.054,3.1464,0.0,3.2263,3.3168,0.0,3.402,0.0,0.0,0.0,0.0,0.0,0.0,0.0,0.0,0.0,0.0,0.0,0.0,0.0,0.0,0.0,0.0,0.0,0.0,0.0,0.0,0.0,0.0,0.0,2.6704,2.5897,2.5121,2.4379,2.3593,2.3147,2.3082,2.3205,2.3205,2.3077,2.3205,2.3205,2.3082,2.3082,2.3082,2.3082,2.3077,2.3107,2.3102,2.3253,2.3453,2.3689,2.3761,2.3795,2.3806,0.0,0.0,0.0,0.0,0.0,0.0,0.0,0.0,0.0,0.0,0.0,0.0,0.0,0.0,0.0,0.0,0.0,0.0,0.0,0.0,1.3564,1.371,1.3754,1.3826,1.3891,1.4173,1.4317,1.4425,1.4425,1.4461,1.4533,1.4569,1.4605,1.4605,1.4605,1.4784,1.5098,1.5586,1.621,1.6966,1.7687,0.0,0.0,0.0,0.0,0.0,0.0,0.0,0.0,0.0,2.1955,2.2484,2.3865,2.4478,2.4706,2.4778,2.5061,2.573,2.7483,2.8585,2.966,3.1448,3.2326,0.0,0.0,3.3924,3.4537,3.4537,3.5351,0.0,0.0,0.0,0.0,0.0,0.0,0.0,0.0,0.0,0.0,0.0,0.0,0.0,0.0,0.0,0.0,0.0,0.0,0.0,0.0,0.0,0.0,2.6616,2.5891,2.5169,2.4436,2.3702,2.3348,2.3348,2.3313,2.3277,2.3229,2.336,2.3413,2.3336,2.3265,2.3229,2.3229,2.3229,2.318,2.3132,2.3336,2.356,2.3771,2.3785,2.3806,2.3816,0.0,0.0,0.0,0.0,0.0,0.0,0.0,0.0,0.0,0.0,0.0,0.0,0.0,0.0,0.0,0.0,0.0,0.0,0.0,1.3492,1.3535,1.3608,1.3681,1.3754,1.3899,1.4109,1.4289,1.4453,1.4497,1.4533,1.4533,1.4569,1.4605,1.4605,1.4605,1.4605,1.4641,1.5204,1.5868,1.662,1.7345,1.8104,0.0,0.0,0.0,0.0,0.0,0.0,0.0,0.0,2.1648,2.2317,2.3594,2.4263,2.462,2.475,2.5033,2.573,2.784,2.8803,2.9692,3.1796,0.0,0.0,3.3697,3.4333,3.4793,3.4793,3.5661,0.0,0.0,0.0,0.0,0.0,0.0,0.0,0.0,0.0,0.0,0.0,0.0,0.0,0.0,0.0,0.0,0.0,0.0,0.0,0.0,0.0,0.0,0.0,2.5667,2.4938,2.4188,2.3726,2.3505,2.3505,2.3441,2.3407,2.336,2.3499,2.3551,2.3494,2.3395,2.336,2.336,2.336,2.3336,2.3307,2.3487,2.366,2.3806,2.3876,2.3896,2.3917,0.0,0.0,0.0,0.0,0.0,0.0,0.0,0.0,0.0,0.0,0.0,0.0,0.0,0.0,0.0,0.0,0.0,0.0,1.3492,1.3492,1.3608,1.379,1.3608,1.3674,1.4093,1.3891,1.3891,1.4093,1.4317,1.4389,1.4389,1.4533,1.4605,1.4605,1.4605,1.4605,1.4605,1.4605,1.5062,1.5868,1.6585,1.7345,1.807,0.0,0.0,0.0,0.0,0.0,0.0,0.0,2.1553,2.2224,2.3045,2.3901,2.462,2.475,2.5314,2.6188,2.7454,2.8776,3.0117,0.0,0.0,0.0,3.3697,3.4333,3.4793,3.4793,0.0,0.0,0.0,0.0,0.0,0.0,0.0,0.0,0.0,0.0,0.0,0.0,0.0,0.0,0.0,0.0,0.0,0.0,0.0,0.0,0.0,0.0,0.0,0.0,2.5021,2.4254,2.3505,2.3505,2.3505,2.3505,2.3634,2.3623,2.3517,2.3634,2.3623,2.3505,2.3505,2.3505,2.3505,2.3505,2.3578,2.37,2.37,2.3747,2.3827,2.4026,2.4103,2.4123,0.0,0.0,0.0,0.0,0.0,0.0,0.0,0.0,0.0,0.0,0.0,0.0,0.0,0.0,0.0,0.0,0.0,0.0,1.3492,1.3492,1.3535,1.3608,1.3681,1.3754,1.3899,1.3964,1.4029,1.4093,1.4165,1.4201,1.4201,1.4353,1.4461,1.4461,1.4569,1.4605,1.4605,1.4605,1.5062,1.5868,1.6585,1.7345,1.807,0.0,0.0,0.0,0.0,0.0,0.0,0.0,0.0,0.0,2.3594,2.4276,2.462,2.475,2.5314,2.627,2.7981,2.9094,0.0,3.1922,0.0,0.0,0.0,3.4333,0.0,0.0,0.0,0.0,0.0,0.0,0.0,0.0,0.0,0.0,0.0,0.0,0.0,0.0,0.0,0.0,0.0,0.0,0.0,0.0,0.0,0.0,0.0,0.0,0.0,0.0,2.5106,2.4382,2.3652,2.3693,2.3707,2.3718,2.375,2.3718,2.3645,2.3718,2.375,2.3718,2.375,2.3771,2.3761,2.3685,2.3771,2.3974,2.3884,2.3968,2.4154,2.421,2.4247,2.4257,0.0,0.0,0.0,0.0,0.0,0.0,0.0,0.0,0.0,0.0,0.9458,0.9949,0.0,0.0,0.0,0.0,0.0,0.0,0.0,0.0,1.3492,1.3492,1.3608,1.3681,1.3681,1.3819,1.3848,1.3848,1.4021,1.4093,1.4093,1.4209,1.4281,1.4281,1.4353,1.4461,1.4533,1.4533,1.5026,1.5868,1.6585,1.7345,1.807,0.0,0.0,0.0,0.0,0.0,0.0,0.0,0.0,0.0,2.3623,2.4276,2.4677,2.5118,2.5701,2.6635,2.8603,2.9651,0.0,3.2346,3.3351,3.4027,3.4415,0.0,0.0,0.0,0.0,0.0,0.0,0.0,0.0,0.0,0.0,0.0,0.0,0.0,0.0,0.0,0.0,0.0,0.0,0.0,0.0,0.0,0.0,0.0,0.0,0.0,0.0,0.0,2.4954,2.4387,2.3935,2.3935,2.3947,2.4008,2.3947,2.3935,2.3935,2.3935,2.3947,2.4008,2.4037,2.4057,2.4047,2.3969,2.4037,2.4181,2.4095,2.4163,2.4303,2.4366,2.4384,2.441,0.0,0.0,0.0,0.0,0.0,0.0,0.0,0.0,0.0,0.0,1.0457,1.1253,0.0,0.0,0.0,0.0,0.0,0.0,0.0,0.0,1.3528,1.3492,1.3492,1.3492,1.3492,1.3492,1.3492,1.3492,1.3884,1.4057,1.4057,1.4057,1.4093,1.4093,1.4129,1.4245,1.4425,1.4425,1.4919,1.5762,1.6559,1.731,1.8003,1.8798,0.0,0.0,0.0,0.0,0.0,0.0,0.0,0.0,2.3267,2.406,2.475,2.5591,2.6244,2.7164,2.9184,0.0,0.0,3.2724,3.3658,0.0,3.5436,0.0,0.0,0.0,0.0,0.0,0.0,0.0,0.0,0.0,0.0,0.0,0.0,0.0,0.0,0.0,0.0,0.0,0.0,0.0,0.0,0.0,0.0,0.0,0.0,0.0,0.0,2.5348,2.4661,2.4294,2.4294,2.4181,2.4181,2.4294,2.4181,2.419,2.4312,2.4181,2.42,2.4312,2.4312,2.4312,2.4312,2.4312,2.4312,2.4312,2.4312,2.4321,2.4348,2.4469,2.452,2.4537,0.0,0.0,0.0,0.0,0.0,0.0,0.0,0.0,0.0,0.0,0.0,0.0,0.0,0.0,0.0,0.0,0.0,0.0,0.0,0.0,1.3762,1.3506,1.3492,1.3492,1.3492,1.3492,1.3492,1.3492,1.3601,1.3637,1.3637,1.3783,1.3964,1.4093,1.4281,1.4425,1.4569,1.4569,1.4669,1.4991,1.6341,1.7001,1.7276,1.8586,1.9175,0.0,0.0,0.0,0.0,0.0,0.0,0.0,2.3267,2.406,2.4677,2.509,2.5987,2.7179,2.8682,2.9992,0.0,0.0,3.3866,3.4911,3.5902,0.0,0.0,0.0,0.0,0.0,0.0,0.0,0.0,0.0,0.0,0.0,0.0,0.0,0.0,0.0,0.0,0.0,0.0,0.0,0.0,0.0,0.0,0.0,0.0,0.0,0.0,2.5482,2.4699,2.4294,2.4294,2.4266,2.4266,0.0,2.4266,2.433,2.4452,2.4321,2.433,2.4452,2.4452,2.4452,2.4452,2.4452,2.4452,2.4452,2.4452,2.4512,2.4621,2.4653,2.4668,2.4668,0.0,0.0,0.0,0.0,0.0,0.0,0.0,0.0,0.0,0.0,0.0,0.0,0.0,0.0,0.0,0.0,0.0,0.0,0.0,0.0,0.0,1.374,1.3579,1.3492,1.3492,1.3492,1.3492,1.3492,1.3492,1.3492,1.3492,1.3608,1.371,1.3811,1.3928,1.4101,1.4353,1.4353,1.4461,1.474,1.6271,1.6897,1.707,1.8553,1.9175,1.9318,1.955,0.0,0.0,0.0,0.0,0.0,0.0,0.0,2.4706,2.5286,2.6095,2.7106,2.8568,0.0,0.0,3.3411,0.0,3.5413,0.0,0.0,0.0,0.0,0.0,0.0,0.0,0.0,0.0,0.0,0.0,0.0,0.0,0.0,0.0,0.0,0.0,0.0,0.0,0.0,0.0,0.0,0.0,0.0,0.0,2.7043,2.6246,2.505,2.4685,2.4497,2.4497,2.4436,2.4436,2.4497,2.4436,2.4479,2.4586,2.4512,2.4539,2.4594,2.4594,2.4594,2.4594,2.4594,2.4594,2.4594,2.4594,2.4645,2.47,2.47,2.47,2.47,0.0,0.0,0.0,0.0,0.0,0.0,0.0,0.0,0.0,0.0,0.0,0.0,0.0,0.0,0.0,0.0,0.0,0.0,0.0,0.0,0.0,0.0,1.3755,1.3579,1.3579,1.3521,1.3492,1.3492,1.3492,1.3492,0.0,1.3492,1.3528,1.3564,1.3601,1.3811,1.4165,1.4165,1.4418,1.4919,1.635,1.6966,1.7242,1.8586,1.9175,1.9274,1.9506,1.9704,1.9966,2.0688,0.0,0.0,0.0,0.0,2.475,2.5536,2.6203,2.7033,2.8467,0.0,3.1575,3.4019,3.5029,0.0,0.0,0.0,0.0,0.0,0.0,0.0,0.0,0.0,0.0,0.0,0.0,0.0,0.0,0.0,0.0,0.0,0.0,0.0,0.0,0.0,0.0,0.0,0.0,0.0,2.7111,2.6851,2.6059,2.4574,2.4634,2.47,2.47,2.4586,2.4586,2.47,2.4586,2.4586,2.47,2.47,2.47,2.47,2.47,2.47,2.47,2.47,2.47,2.47,2.47,2.47,2.47,2.47,2.47,2.47,0.0,0.0,0.0,0.0,0.0,0.0,0.0,0.0,0.0,0.0,1.0013,1.0211,0.0,0.0,0.0,0.0,0.0,0.0,0.0,0.0,0.0,0.0,1.4092,1.3916,1.3916,1.3638,1.3492,1.3492,1.3492,0.0,0.0,0.0,0.0,1.3754,0.0,1.4137,1.4353,1.4497,1.4955,1.5727,1.655,1.7276,1.7935,1.8787,1.9098,1.9175,1.9473,1.9605,1.9704,2.0107,2.1071,0.0,0.0,0.0,2.4677,2.5033,2.596,2.7059,0.0,0.0,3.2101,0.0,3.4326,3.504,0.0,0.0,0.0,0.0,0.0,0.0,0.0,0.0,0.0,0.0,0.0,0.0,0.0,0.0,0.0,0.0,0.0,0.0,0.0,0.0,0.0,0.0,2.8951,2.8136,2.7216,2.6512,2.5678,2.4695,2.4692,2.47,2.47,2.4684,2.4684,2.47,2.4684,2.4684,2.47,2.47,2.47,2.47,2.47,2.47,2.47,2.47,2.47,2.47,2.47,2.47,2.47,2.47,2.47,2.47,0.0,0.0,0.0,0.0,0.0,0.0,0.0,0.0,0.0,0.0,0.0,0.9994,0.0,0.0,0.0,0.0,0.0,0.0,0.0,0.0,0.0,0.0,1.4428,1.421,1.3989,1.388,1.3675,1.3492,0.0,0.0,0.0,1.3681,1.3717,0.0,0.0,0.0,0.0,1.4461,1.4991,1.5868,1.6585,1.7345,1.807,0.0,0.0,0.0,0.0,0.0,1.9648,1.9911,2.073,2.1692,2.1897,0.0,0.0,0.0,2.5024,2.6707,2.8551,3.0347,3.1978,0.0,3.3812,3.4553,0.0,0.0,0.0,0.0,0.0,0.0,0.0,0.0,0.0,0.0,0.0,0.0,0.0,0.0,0.0,0.0,0.0,0.0,0.0,0.0,0.0,0.0,2.8885,2.8059,2.7242,2.6443,2.5598,2.4718,2.47,2.47,2.47,2.47,2.47,2.47,2.47,2.47,2.47,2.47,2.47,2.47,2.47,2.47,2.47,2.47,2.47,2.47,2.47,2.47,2.47,2.47,2.47,2.47,0.0,0.0,0.0,0.0,0.0,0.0,0.0,0.0,0.0,0.0,0.0,0.0,0.0,0.0,0.0,0.0,0.0,0.0,0.0,0.0,0.0,0.0,0.0,1.4435,1.4114,1.4026,1.3858,1.3572,0.0,0.0,1.3899,1.3899,1.3899,0.0,1.4101,1.4245,0.0,0.0,0.0,1.614,1.6689,0.0,0.0,0.0,0.0,0.0,0.0,0.0,0.0,0.0,0.0,0.0,2.1456,2.2109,0.0,0.0,0.0,0.0,0.0,0.0,3.1332,3.229,3.3257,3.4107,0.0,0.0,0.0,0.0,0.0,0.0,0.0,0.0,0.0,0.0,0.0,0.0,0.0,0.0,0.0,0.0,0.0,0.0,0.0,0.0,0.0,0.0,2.8697,2.7834,2.7223,2.6236,2.5372,2.4718,2.47,2.47,2.47,2.47,2.47,2.47,2.47,2.47,2.47,2.47,2.47,2.47,2.47,2.47,2.4707,2.4746,2.4719,2.4707,2.4734,2.4719,2.47,2.47,2.47,2.4707,0.0,0.0,0.0,0.0,0.0,0.0,0.0,0.0,0.0,0.0,0.0,0.0,0.0,0.0,1.0381,1.1278,0.0,0.0,0.0,0.0,0.0,0.0,0.0,0.0,0.0,1.4181,1.3933,0.0,0.0,0.0,1.4093,1.4093,1.4173,1.4361,1.4397,1.4389,1.4397,0.0,0.0,0.0,0.0,0.0,0.0,0.0,0.0,0.0,0.0,0.0,0.0,0.0,0.0,0.0,0.0,0.0,0.0,0.0,0.0,0.0,0.0,2.8737,0.0,3.1412,0.0,0.0,0.0,0.0,0.0,0.0,0.0,0.0,0.0,0.0,0.0,0.0,0.0,0.0,0.0,0.0,0.0,0.0,0.0,0.0,0.0,0.0,0.0,0.0,2.8181,2.7242,2.7204,2.5646,2.4745,2.47,2.47,2.47,2.47,2.47,2.47,2.47,2.47,2.47,2.47,2.47,2.47,2.47,2.47,2.47,2.4715,2.4832,2.4804,2.4715,2.4832,2.4804,2.47,2.47,2.47,2.4723,0.0,0.0,0.0,0.0,0.0,0.0,0.0,0.0,0.0,0.0,0.0,0.0,0.0,1.0511,1.1192,1.2126,1.3578,0.0,0.0,0.0,0.0,0.0,0.0,0.0,0.0,1.4457,0.0,0.0,0.0,1.3819,1.4093,1.4245,1.4389,1.4533,1.4533,1.4533,1.4533,1.4569,0.0,0.0,0.0,0.0,0.0,0.0,0.0,0.0,0.0,0.0,0.0,0.0,0.0,0.0,0.0,0.0,0.0,0.0,0.0,0.0,0.0,0.0,0.0,3.0145,3.111,0.0,0.0,0.0,0.0,0.0,0.0,0.0,0.0,0.0,0.0,0.0,0.0,0.0,0.0,0.0,0.0,0.0,0.0,0.0,0.0,0.0,0.0,0.0,0.0,2.696,2.6462,2.5327,2.47,2.47,2.47,2.47,2.47,2.47,2.47,2.47,2.47,2.47,2.4707,2.4794,2.4825,2.4825,2.4922,2.4915,2.4832,2.4962,2.4993,2.4949,2.5,2.4955,2.4825,2.4825,2.4825,2.4851,0.0,0.0,0.0,0.0,0.0,0.0,0.0,0.0,0.0,0.0,0.0,0.0,0.0,0.0,1.1789,1.3063,1.4524,1.5257,1.4999,1.5257,0.0,0.0,0.0,0.0,0.0,1.4847,1.4608,1.4321,0.0,0.0,0.0,1.4353,1.4461,1.4605,1.4605,1.4605,0.0,0.0,0.0,1.695,0.0,0.0,1.9357,0.0,0.0,0.0,0.0,0.0,0.0,0.0,0.0,0.0,0.0,0.0,0.0,0.0,0.0,0.0,2.5911,0.0,0.0,0.0,0.0,3.0612,0.0,0.0,0.0,0.0,0.0,0.0,0.0,0.0,0.0,0.0,0.0,0.0,0.0,0.0,0.0,0.0,0.0,0.0,0.0,0.0,0.0,0.0,0.0,0.0,2.6148,2.522,2.47,2.47,2.473,2.473,2.47,2.473,2.473,2.47,2.4742,2.4764,2.4772,2.4908,2.4974,2.4962,2.5115,2.5097,2.4987,2.5115,2.5143,2.5096,2.5154,2.5091,2.4974,2.4974,2.4974,2.4962,0.0,0.0,0.0,0.0,0.0,0.0,0.0,0.0,0.0,1.2717,0.0,0.0,0.0,0.0,0.0,1.3971,1.4915,1.5041,1.4181,1.4915,0.0,0.0,0.0,0.0,0.0,1.5288,1.5162,1.4891,1.471,1.4607,1.4605,0.0,1.4497,1.4641,1.4641,1.4641,1.4713,0.0,1.621,1.7003,0.0,1.9148,1.9844,0.0,0.0,0.0,2.0177,2.0249,0.0,2.0847,0.0,0.0,0.0,0.0,0.0,0.0,0.0,0.0,0.0,0.0,0.0,0.0,0.0,0.0,2.9824,0.0,0.0,0.0,0.0,0.0,0.0,0.0,0.0,0.0,0.0,0.0,0.0,0.0,0.0,0.0,0.0,0.0,0.0,0.0,0.0,0.0,2.7911,2.7027,2.6301,2.5281,2.4715,2.4715,2.4764,2.4791,2.4715,2.4764,2.4764,2.4704,2.484,2.4908,2.4915,2.5037,2.5115,2.5101,2.5248,2.5238,2.5132,2.5253,2.5233,2.5113,2.5253,2.5214,2.5115,2.5115,2.5115,2.5113,0.0,0.0,0.0,0.0,0.0,0.0,0.0,0.0,0.0,0.0,0.0,0.0,0.0,1.3069,1.3795,1.4957,1.5257,1.5298,1.5048,1.5257,1.5298,1.5041,1.5257,1.5462,1.5606,1.5103,1.4931,1.505,1.4669,1.4447,1.4461,1.4533,1.4883,0.0,1.5488,1.5754,1.6237,1.593,0.0,0.0,1.8193,1.9148,0.0,0.0,0.0,0.0,0.0,2.0386,2.0649,0.0,2.0764,2.0463,0.0,0.0,0.0,0.0,0.0,0.0,2.4601,0.0,0.0,0.0,0.0,0.0,2.9686,3.0249,0.0,0.0,0.0,0.0,0.0,0.0,0.0,0.0,0.0,0.0,0.0,0.0,0.0,0.0,0.0,0.0,0.0,0.0,0.0,0.0,2.7103,2.6257,2.546,2.5152,2.4981,2.4981,2.4961,2.4961,2.4981,2.4915,2.4915,2.4981,2.4987,2.5006,2.5043,2.5186,2.525,2.5253,2.5391,2.5412,2.5382,2.5423,2.5419,2.5382,2.5423,2.5355,2.5243,2.5243,2.5243,2.5248,0.0,0.0,0.0,0.0,0.0,0.0,0.0,0.0,1.444,0.0,0.0,0.0,0.0,0.0,1.4873,1.5347,1.5082,1.4873,1.4873,1.4873,1.4873,1.4873,1.5215,1.5482,1.5662,1.5293,1.5117,1.5141,1.4885,1.4647,1.4497,1.4919,1.5338,0.0,0.0,0.0,0.0,0.0,0.0,0.0,1.8681,0.0,0.0,2.0255,2.0456,0.0,0.0,0.0,2.047,2.1252,2.1374,0.0,0.0,0.0,0.0,0.0,0.0,0.0,0.0,0.0,0.0,0.0,0.0,0.0,2.8452,2.9135,2.9669,0.0,0.0,0.0,0.0,0.0,0.0,0.0,0.0,0.0,0.0,0.0,0.0,0.0,0.0,0.0,0.0,2.9728,2.884,2.7874,2.6954,2.6044,2.5151,2.5157,2.5163,2.5107,2.509,2.5096,2.5143,2.5097,2.5097,2.5143,2.5133,2.5159,2.5186,2.5314,2.5371,2.5389,2.5468,2.5506,2.5499,2.5499,2.5507,2.5507,2.5507,2.5459,2.5388,2.5388,2.5378,2.5382,0.0,0.0,0.0,1.5257,1.5389,1.5389,0.0,0.0,1.5389,0.0,0.0,0.0,0.0,0.0,0.0,0.0,1.4615,1.4139,1.423,1.4139,1.4139,1.423,1.4999,1.5475,1.5591,1.5585,1.5451,1.5189,1.5253,1.5061,1.474,1.5551,1.5974,1.607,0.0,0.0,0.0,0.0,0.0,1.8212,1.9366,1.9793,0.0,0.0,2.0385,2.0404,2.0305,2.0215,2.0313,2.1557,2.2172,0.0,0.0,0.0,0.0,0.0,2.242,0.0,0.0,0.0,0.0,0.0,0.0,0.0,2.6806,2.751,2.8143,2.8324,0.0,0.0,0.0,0.0,0.0,0.0,0.0,0.0,0.0,0.0,0.0,0.0,0.0,0.0,3.0474,2.9738,2.8888,2.802,2.7039,2.6092,2.5184,2.5269,2.5279,2.5159,2.5196,2.5225,2.5229,2.5284,2.5279,2.5229,2.5283,2.5322,2.5331,2.5448,2.5518,2.5495,2.5518,2.5518,2.5495,2.5495,2.5494,2.5496,2.5496,2.5496,2.5496,2.5492,2.5503,2.5503,0.0,0.0,0.0,0.0,1.5389,1.5389,1.5389,0.0,0.0,0.0,0.0,0.0,0.0,0.0,0.0,0.0,1.4615,1.4398,1.5082,1.4482,1.4398,1.5131,1.545,1.5632,1.5591,1.5474,1.5372,1.5189,1.5532,1.5627,1.5586,1.6315,1.7001,1.7584,0.0,0.0,0.0,0.0,0.0,1.8939,1.9538,0.0,1.9844,2.0255,2.0385,2.0369,2.0132,2.0364,2.0842,2.1194,2.1787,2.2219,0.0,0.0,0.0,0.0,0.0,0.0,0.0,0.0,0.0,0.0,0.0,0.0,2.674,2.708,2.742,0.0,0.0,0.0,0.0,0.0,0.0,0.0,0.0,0.0,0.0,0.0,0.0,0.0,0.0,0.0,2.9699,2.8868,2.7999,2.7129,2.6229,2.5638,2.5426,2.5441,2.5441,2.5426,2.5375,2.5394,2.543,2.5408,2.5408,2.543,2.5445,2.5453,2.5455,2.5535,2.556,2.5495,2.5567,2.5548,2.5495,2.5495,2.5492,2.5501,2.5499,2.5506,2.5498,2.5503,2.5495,2.5505,0.0,0.0,0.0,0.0,1.5389,1.5389,0.0,0.0,0.0,0.0,0.0,0.0,0.0,0.0,0.0,0.0,0.0,0.0,0.0,0.0,1.4482,1.5347,1.5575,1.5583,1.5292,1.5358,1.5254,1.4911,1.508,1.5417,1.5833,1.6559,1.731,1.8104,0.0,0.0,0.0,0.0,1.9108,1.9119,1.9357,0.0,1.9471,1.9665,1.9748,1.9751,1.968,2.0238,2.1003,2.0991,2.1378,0.0,0.0,2.0785,2.097,0.0,2.1769,2.2365,0.0,0.0,0.0,2.4623,0.0,0.0,0.0,2.674,2.7175,2.7779,0.0,0.0,0.0,0.0,0.0,0.0,0.0,0.0,0.0,0.0,0.0,0.0,0.0,0.0,2.8844,2.7997,2.7142,2.6272,2.5796,2.5554,2.5548,2.5548,2.5548,2.5548,2.5527,2.5511,2.5557,2.5524,2.5524,2.5557,2.5548,2.5548,2.556,2.5573,2.5573,2.5557,2.5586,2.5586,2.5557,2.5557,2.5557,2.5557,2.5508,2.5505,2.5492,2.549,2.5524,2.5544,1.5032,0.0,0.0,0.0,1.5506,0.0,0.0,0.0,0.0,0.0,0.0,0.0,0.0,0.0,0.0,0.0,0.0,0.0,0.0,0.0,0.0,0.0,1.5665,1.5556,1.508,1.5343,1.5197,1.4605,1.4919,1.5374,1.6035,1.6897,1.7696,0.0,0.0,0.0,0.0,0.0,0.0,1.932,0.0,1.9231,1.9108,1.9108,1.9108,1.9121,1.94,2.021,2.1093,2.0827,0.0,2.1068,2.0616,2.0573,0.0,0.0,0.0,0.0,0.0,0.0,0.0,0.0,0.0,2.513,0.0,0.0,0.0,2.6994,0.0,0.0,0.0,0.0,0.0,0.0,0.0,0.0,0.0,0.0,0.0,0.0,0.0,0.0,0.0,2.7136,2.6359,2.5659,2.5601,2.5595,2.5602,2.5602,2.5602,2.5602,2.5602,2.5609,2.5601,2.5601,2.5601,2.5601,2.5601,2.5601,2.5601,2.5601,2.5601,2.5601,2.5601,2.5601,2.5601,2.5601,2.5601,2.5598,2.5531,2.5522,2.5525,2.5499,2.5548,2.5602,1.5255,1.5687,0.0,0.0,0.0,0.0,0.0,0.0,0.0,0.0,0.0,0.0,0.0,0.0,0.0,0.0,0.0,0.0,1.5609,0.0,0.0,0.0,0.0,0.0,1.5366,1.5574,1.5302,1.4605,1.5965,1.6689,1.6793,1.8206,1.8898,0.0,1.9208,0.0,0.0,0.0,1.9616,0.0,2.0171,1.9737,0.0,1.9108,1.9108,1.9212,1.9931,2.0808,2.147,0.0,2.0286,2.0421,0.0,1.9888,2.0207,0.0,0.0,0.0,0.0,0.0,0.0,0.0,2.2834,0.0,0.0,0.0,2.4361,2.5047,0.0,0.0,0.0,0.0,0.0,0.0,0.0,0.0,0.0,0.0,0.0,0.0,0.0,0.0,0.0,2.6242,2.5718,2.5621,2.5601,2.5598,2.5598,2.5598,2.5598,2.5598,2.5598,2.5598,2.5601,2.5601,2.5601,2.5601,2.5601,2.5601,2.5601,2.5601,2.5601,2.5601,2.5601,2.5601,2.5601,2.5601,2.5601,2.5598,2.5583,2.5583,2.5573,2.5525,2.5535,2.5595,1.508,1.544,0.0,0.0,0.0,0.0,0.0,0.0,0.0,0.0,0.0,0.0,0.0,0.0,0.0,0.0,0.0,1.5318,0.0,0.0,0.0,0.0,0.0,0.0,0.0,1.5613,1.5332,1.4605,1.5727,1.649,1.6932,1.7969,1.8721,0.0,1.9274,0.0,1.9966,0.0,1.9781,0.0,0.0,0.0,0.0,1.9825,1.9684,1.9425,2.0158,2.057,2.0769,0.0,2.0334,0.0,0.0,0.0,0.0,0.0,0.0,0.0,0.0,0.0,0.0,0.0,0.0,0.0,2.293,0.0,2.3437,0.0,0.0,0.0,0.0,0.0,0.0,0.0,2.6498,0.0,0.0,0.0,0.0,0.0,0.0,0.0,0.0,0.0,0.0,0.0,2.5601,2.5601,2.5601,2.5601,2.5601,2.5601,2.5601,2.5601,2.5601,2.5601,2.5601,2.5601,2.5601,2.5601,2.5601,2.5601,2.5601,2.5601,2.5601,2.5601,2.5601,2.5601,2.5601,2.5598,2.5592,2.5595,2.5598,2.5567,2.5589,2.5598,1.5934,0.0,0.0,0.0,0.0,0.0,0.0,0.0,0.0,0.0,0.0,0.0,1.5389,1.5465,0.0,0.0,1.5858,1.5899,0.0,0.0,1.5899,0.0,0.0,0.0,0.0,0.0,1.5332,1.4605,1.5621,1.6385,1.6932,1.7867,1.8654,1.9252,0.0,1.9813,2.0494,0.0,0.0,2.0971,2.0971,2.0615,2.0049,2.0322,2.018,1.9932,2.0286,2.0422,2.0468,2.0688,2.019,0.0,2.0195,0.0,0.0,0.0,0.0,0.0,2.0303,0.0,0.0,0.0,0.0,0.0,0.0,0.0,0.0,0.0,0.0,0.0,0.0,0.0,0.0,0.0,0.0,0.0,0.0,0.0,0.0,0.0,0.0,0.0,0.0,0.0,0.0,2.5601,2.5601,2.5601,2.5601,2.5601,2.5601,2.5601,2.5601,2.5601,2.5601,2.5601,2.5601,2.5601,2.5601,2.5601,2.5601,2.5601,2.5601,2.5601,2.5601,2.5601,2.5601,2.5601,2.5601,2.5601,2.5601,2.5601,2.5601,2.5601,2.5601,2.5601,1.8382,1.7454,0.0,0.0,0.0,0.0,0.0,0.0,0.0,0.0,0.0,0.0,0.0,0.0,0.0,0.0,0.0,1.6394,1.6394,0.0,1.6394,0.0,0.0,1.6155,0.0,0.0,0.0,1.4605,1.614,1.6862,1.6932,1.8385,1.9065,1.9108,1.944,1.9846,2.0333,2.0688,2.1585,2.2682,2.2157,2.1712,2.1244,0.0,2.032,2.0775,2.029,0.0,0.0,1.9881,1.9514,0.0,0.0,0.0,0.0,0.0,0.0,0.0,0.0,0.0,0.0,1.9384,0.0,0.0,0.0,0.0,2.0462,0.0,0.0,0.0,0.0,0.0,0.0,0.0,0.0,0.0,0.0,0.0,0.0,0.0,0.0,0.0,0.0,0.0,0.0,2.5601,2.5601,2.5601,2.5601,2.5601,2.5601,2.5601,2.5601,2.5601,2.5601,2.5601,2.5601,2.5601,2.5601,2.5601,2.5601,2.5601,2.5601,2.5601,2.5601,2.5601,2.5601,2.5601,2.5601,2.5601,2.5601,2.5601,2.5601,2.5601,2.5601,2.5601,0.0,0.0,0.0,0.0,0.0,0.0,0.0,1.6599,0.0,0.0,0.0,0.0,0.0,1.7212,1.7253,0.0,0.0,1.7009,1.6435,1.6394,0.0,0.0,0.0,1.6195,0.0,0.0,0.0,0.0,0.0,1.7139,1.7653,1.8731,1.9241,1.9241,0.0,2.0366,0.0,0.0,0.0,0.0,0.0,2.0914,2.0857,0.0,0.0,2.0483,2.0298,2.0441,0.0,2.0373,1.9978,1.9696,2.0156,2.0029,1.9811,2.0485,2.0535,0.0,0.0,0.0,1.9692,1.8542,0.0,0.0,0.0,0.0,0.0,0.0,0.0,0.0,0.0,0.0,0.0,0.0,0.0,0.0,0.0,0.0,0.0,0.0,0.0,0.0,0.0,0.0,0.0,2.5598,2.5592,2.5609,2.5598,2.5601,2.5601,2.5601,2.5601,2.5601,2.5601,2.5601,2.5601,2.5601,2.5601,2.5601,2.5601,2.5601,2.5601,2.5601,2.5601,2.5601,2.5601,2.5601,2.5601,2.5601,2.5601,2.5601,2.5601,2.5601,2.5601,2.5601,2.0177,0.0,0.0,0.0,0.0,0.0,0.0,0.0,0.0,0.0,1.7617,0.0,1.777,0.0,1.8332,0.0,1.7876,1.7885,1.7041,1.696,0.0,1.696,1.696,0.0,0.0,0.0,0.0,0.0,0.0,1.755,1.8104,1.8898,1.9341,1.9417,0.0,2.0656,2.1842,0.0,2.1344,0.0,0.0,2.0713,0.0,0.0,2.0155,2.0154,0.0,2.0502,2.0587,2.0687,2.0372,2.008,2.0549,2.0372,2.0042,2.0302,2.0208,1.9843,1.9104,1.9263,0.0,1.8201,1.8531,0.0,1.8551,0.0,0.0,0.0,0.0,0.0,0.0,0.0,0.0,0.0,0.0,0.0,0.0,2.4669,0.0,0.0,0.0,0.0,0.0,0.0,2.5554,2.5564,2.5557,2.5577,0.0,0.0,2.5595,2.5601,2.5601,2.5601,2.5601,2.5601,2.5601,2.5601,2.5601,2.5601,2.5601,2.5601,2.5601,2.5601,2.5601,2.5601,2.5601,2.5601,2.5601,2.5601,2.5601,2.5601,2.5601,2.5601,2.5601,2.564,0.0,0.0,0.0,0.0,1.9374,0.0,0.0,0.0,1.8669,0.0,1.8341,1.8683,1.8683,1.889,1.9018,1.8939,1.9177,0.0,1.8118,1.8078,0.0,0.0,1.8078,1.8303,1.8782,0.0,0.0,0.0,0.0,0.0,1.8283,1.9008,1.944,1.9605,1.9868,0.0,2.1849,2.1488,2.1989,2.3001,2.1904,2.1146,2.0674,2.0699,2.0334,1.9901,2.0485,2.0699,2.0699,2.0699,2.0699,2.0699,2.0699,2.0686,2.053,1.9969,1.9856,1.9684,1.8526,1.8417,1.8553,1.8359,0.0,0.0,0.0,0.0,1.9244,0.0,0.0,0.0,0.0,0.0,0.0,0.0,0.0,0.0,0.0,0.0,0.0,0.0,0.0,0.0,0.0,2.5495,2.5495,2.5495,2.5495,2.5522,0.0,0.0,2.5605,2.5601,2.5601,2.5601,2.5601,2.5601,2.5601,2.5601,2.5601,2.5601,2.5601,2.5601,2.5601,2.5601,2.5601,2.5601,2.5601,2.5601,2.5601,2.5601,2.5601,2.564,2.5659,2.5659,2.564,2.5718,2.1807,2.1807,2.1645,0.0,2.0615,2.0099,0.0,0.0,0.0,0.0,1.9904,2.0012,2.0012,2.0644,2.0527,1.9295,1.9825,0.0,0.0,0.0,0.0,1.8988,1.8988,1.8925,1.882,1.833,0.0,1.8392,0.0,0.0,1.9042,1.9506,1.9769,1.9835,0.0,0.0,2.1464,2.1494,2.1548,2.1533,2.1242,2.0804,0.0,0.0,2.0573,2.0144,2.0536,2.0699,2.0699,2.0699,2.0699,2.0699,2.0699,2.0386,1.9995,1.9852,1.9337,1.8742,1.8437,1.8445,1.8494,1.8347,1.863,1.8917,0.0,0.0,0.0,0.0,0.0,0.0,0.0,0.0,0.0,0.0,0.0,0.0,0.0,0.0,0.0,2.4979,0.0,0.0,2.5489,2.5498,2.5494,2.5495,2.5495,2.5522,0.0,0.0,0.0,2.5601,2.5601,2.5601,2.5601,2.5601,2.5601,2.5601,2.5601,2.5601,2.5601,2.5601,2.5601,2.5601,2.5601,2.5601,2.5601,2.5601,2.5601,2.5601,2.5601,2.6009,2.6575,2.6575,2.6164,2.5718,2.1807,0.0,0.0,2.1807,0.0,0.0,2.0576,0.0,0.0,2.0498,2.0818,0.0,2.1049,2.1492,2.1405,2.0489,2.0808,0.0,1.9904,0.0,0.0,1.9816,1.9816,1.9916,2.0119,1.9533,0.0,1.9571,0.0,0.0,1.9572,1.9802,2.0096,0.0,0.0,2.1103,2.168,2.1652,2.1394,2.0997,2.0997,0.0,0.0,2.0885,2.0797,2.0585,2.0761,2.0812,2.08,2.08,2.08,2.0775,2.0712,2.0368,1.9914,1.9593,1.8975,1.839,1.8355,1.8383,1.8481,1.8827,1.9143,1.9347,1.9277,1.946,1.9681,0.0,0.0,0.0,0.0,0.0,0.0,0.0,0.0,0.0,0.0,0.0,0.0,0.0,2.5057,0.0,2.5406,2.5472,2.5491,2.5506,2.5506,2.5517,0.0,0.0,0.0,2.5592,2.5598,2.5601,2.5601,2.5601,2.5601,2.5601,2.5601,2.5601,2.5601,2.5601,2.5601,2.5601,2.5601,2.5601,2.5601,2.5601,2.5601,2.5601,2.5601,2.6126,2.6944,2.7291,2.6883,2.6281,0.0,0.0,0.0,0.0,0.0,0.0,0.0,2.1405,0.0,2.0779,0.0,2.1807,2.1807,2.1807,2.1807,2.1807,0.0,2.1492,2.0741,2.0663,2.0663,2.0663,2.0663,2.1049,2.1807,2.1079,0.0,0.0,0.0,0.0,1.99,1.9998,0.0,0.0,0.0,0.0,0.0,2.1772,2.1398,2.1033,2.1033,2.1033,2.1033,2.1033,2.1033,2.1033,2.1033,2.0985,2.0913,2.0913,2.0913,2.0875,2.0695,2.0382,1.9964,1.9286,1.8716,1.8323,1.8379,1.8383,1.8616,1.9475,1.9744,1.978,1.978,1.9854,1.9912,1.9967,2.0122,2.0563,0.0,0.0,0.0,0.0,0.0,0.0,0.0,0.0,0.0,0.0,0.0,0.0,2.5279,2.5415,2.5507,2.5507,2.5492,0.0,0.0,0.0,0.0,2.5596,2.5609,2.5598,2.5598,0.0,2.5598,2.5601,2.5601,2.5601,2.5601,2.5601,2.5601,2.5601,2.5601,2.5601,2.5601,2.5601,2.5601,2.5621,2.5737,2.63,2.7155,2.7968,2.7754,2.7155,0.0,0.0,0.0,0.0,0.0,2.2936,2.2776,2.2333,2.1911,2.1606,2.1731,2.1807,2.1807,2.1807,2.1807,2.1807,2.1807,0.0,0.0,0.0,0.0,2.1568,2.1568,2.1721,2.2025,2.1151,2.0786,0.0,0.0,0.0,1.99,0.0,0.0,0.0,0.0,0.0,2.1917,2.1472,0.0,2.1326,2.1326,2.1326,2.1326,2.1326,2.1326,2.1326,2.1326,2.118,2.0972,2.0972,2.0972,2.0892,2.0425,1.9904,1.9395,1.9105,1.8437,1.7963,1.8611,1.8884,1.9068,1.9581,1.994,2.0185,2.0185,2.0289,2.0376,2.0393,2.0762,2.1071,2.099,0.0,0.0,0.0,0.0,0.0,0.0,0.0,0.0,0.0,0.0,2.4955,0.0,2.5387,0.0,0.0,0.0,0.0,0.0,0.0,0.0,0.0,2.5573,0.0,0.0,0.0,2.5609,2.5601,2.5601,2.5601,2.5601,2.5601,2.5601,2.5601,2.5601,2.5601,2.5601,2.5601,2.5601,2.5679,2.6398,2.7174,2.7987,2.8861,2.8628,2.7909,0.0,0.0,0.0,0.0,0.0,0.0,0.0,2.3781,0.0,2.2771,2.2354,2.2063,2.1959,2.1959,2.1959,2.1959,2.1845,2.1883,2.2101,2.1987,2.1997,2.2111,2.2101,0.0,2.1893,2.1324,2.0927,2.0797,0.0,0.0,0.0,0.0,0.0,2.1777,0.0,2.1852,0.0,0.0,0.0,2.1399,2.1399,2.1399,2.1399,2.1399,2.1399,2.1399,2.1399,2.1496,2.1568,2.1229,2.0919,2.0673,2.0543,1.9984,1.9367,1.939,1.8947,1.8567,1.9151,1.935,1.9508,1.9904,2.0166,2.0304,2.0304,2.0373,2.0458,2.0494,2.0761,2.1006,2.1055,2.1323,0.0,0.0,0.0,0.0,0.0,0.0,0.0,0.0,0.0,0.0,0.0,0.0,0.0,0.0,0.0,0.0,0.0,0.0,0.0,0.0,0.0,0.0,0.0,0.0,0.0,2.5609,2.5598,2.5601,2.5601,2.5601,2.5601,2.5601,2.5601,2.5601,2.5601,2.5601,2.5601,2.5698,2.6556,2.7388,2.822,2.9075,2.9133,2.8764,0.0,2.377,0.0,0.0,2.4565,0.0,2.5028,2.5169,2.4933,2.3879,2.3106,2.2537,2.2291,2.2254,2.2211,2.2105,2.1919,2.2057,2.249,2.2242,2.2131,2.2316,2.2316,2.2144,2.1829,2.1517,2.1255,0.0,0.0,0.0,0.0,0.0,0.0,0.0,0.0,0.0,0.0,0.0,2.1302,2.1399,2.1399,2.1423,2.1496,2.1554,2.1602,2.1636,2.1708,2.1992,2.2263,2.1756,2.1195,2.0735,2.0811,2.0237,1.9551,1.9713,1.9455,1.9213,1.9708,1.978,1.9797,2.02,2.0304,2.0304,2.0304,2.0356,2.0441,2.0494,2.0662,2.0925,2.123,2.1539,0.0,0.0,0.0,0.0,0.0,0.0,0.0,0.0,0.0,0.0,2.5165,0.0,0.0,0.0,0.0,0.0,0.0,0.0,0.0,0.0,0.0,2.5508,2.5508,0.0,2.5596,2.5599,2.5592,2.5601,2.5601,2.5601,2.5601,2.5601,2.5601,2.5601,2.5601,2.5601,2.5718,2.5951,2.6825,2.766,2.8473,2.935,2.9564,2.9428,0.0,0.0,0.0,0.0,0.0,0.0,2.5975,2.6126,2.5871,2.4743,2.3879,2.3223,2.2789,2.2684,2.2471,2.2062,2.1983,2.2249,2.2913,2.2342,2.2018,2.2053,2.2053,2.21,2.2228,2.1756,2.1838,0.0,0.0,0.0,0.0,0.0,0.0,0.0,0.0,0.0,0.0,2.1326,2.1399,2.1399,2.1399,2.1544,2.1793,2.2095,2.2305,2.2443,2.2733,2.2838,2.2822,2.2838,2.2351,2.1672,2.1138,2.0509,1.9909,1.976,1.9424,1.9269,2.0028,1.9975,1.9797,2.02,2.0304,2.0304,2.0304,2.0392,2.0494,2.051,2.0893,2.1262,2.1293,2.1763,2.2178,0.0,0.0,0.0,0.0,0.0,0.0,0.0,0.0,0.0,0.0,2.5063,0.0,0.0,0.0,0.0,0.0,0.0,0.0,2.5492,0.0,2.5499,2.5499,2.5505,2.5544,2.5599,2.5592,2.5601,2.5601,2.5601,2.5601,2.5601,2.5601,2.5601,2.5601,2.5601,2.6067,2.6867,2.7676,2.8511,2.9389,3.0263,3.0088,2.9505,0.0,0.0,0.0,0.0,0.0,0.0,0.0,2.6526,2.6279,2.5481,2.4578,2.3816,2.3167,2.3086,2.2971,2.2797,2.2672,2.2808,2.3311,2.2988,2.2819,2.2954,2.2954,2.2848,2.261,2.2388,2.2312,0.0,0.0,0.0,0.0,0.0,0.0,0.0,0.0,2.1556,2.1326,2.1375,2.1602,2.1931,2.1931,2.2235,2.2657,2.2793,2.286,2.2928,2.3084,2.3282,2.3455,2.3074,2.2235,2.1364,2.1414,2.067,1.9853,2.0051,2.0008,1.9957,2.0323,2.0306,2.0222,2.0375,2.039,2.0356,2.0424,2.0441,2.0475,2.0594,2.0974,2.1402,2.1763,2.1834,2.1994,0.0,0.0,0.0,0.0,0.0,0.0,0.0,0.0,0.0,0.0,0.0,0.0,0.0,0.0,0.0,0.0,0.0,0.0,2.5507,0.0,2.5499,2.5499,2.5498,2.5518,2.5544,2.5589,2.5601,2.5601,2.5601,2.5601,2.5601,2.5601,2.5601,2.5601,2.5601,2.6106,2.6925,2.7252,2.8204,2.9447,2.9797,3.003,3.0224,2.5812,0.0,2.7356,0.0,2.7013,2.7144,2.6771,2.6562,2.6216,2.5641,2.4987,2.4312,2.3594,2.3481,2.3376,2.3264,2.311,2.324,2.3727,2.3414,2.3317,2.3446,2.3446,0.0,2.2899,2.2887,2.283,2.2743,2.2743,0.0,0.0,0.0,0.0,0.0,2.152,2.164,2.1664,2.1803,2.2119,2.2521,2.2543,2.286,2.3341,2.3428,2.3493,2.3537,2.3644,2.3858,2.3998,2.3366,2.2415,2.1491,2.1628,2.0871,2.001,2.0339,2.0424,2.0441,2.0477,2.051,2.0512,2.0629,2.0596,2.0611,2.0762,2.0778,2.0795,2.099,2.1308,2.1705,2.2122,2.2037,2.211,2.2721,0.0,0.0,0.0,0.0,0.0,0.0,2.4734,2.4835,2.5072,2.5203,0.0,0.0,0.0,0.0,0.0,0.0,0.0,0.0,0.0,0.0,0.0,2.5498,2.5508,2.5495,2.5564,2.5595,2.5601,2.5601,2.5601,2.5601,2.5601,2.5601,2.5601,2.5601,2.6106,2.6925,2.7155,2.8126,2.9428,2.97,3.0166,3.0694,2.7469,2.749,2.749,2.749,2.7066,2.6719,2.6706,2.619,2.5628,2.5083,2.5018,2.4732,2.4047,2.3879,2.361,2.315,2.31,2.3395,2.4037,2.3467,2.31,0.0,0.0,2.31,2.31,2.31,2.3475,2.4263,0.0,0.0,2.367,0.0,2.1843,2.1423,2.1949,2.2184,2.2231,2.2748,2.298,2.3002,2.315,2.3363,2.3638,2.3958,2.4162,2.4323,2.4666,2.4706,2.4516,2.3963,2.3239,2.2477,2.1804,2.1085,2.0494,2.051,2.051,2.051,2.051,2.051,2.0579,2.091,2.0991,2.1087,2.1415,2.1538,2.1628,2.1751,2.1996,2.2192,2.2206,2.2477,2.2777,2.3057,0.0,0.0,0.0,0.0,0.0,0.0,2.4532,2.4586,2.5049,2.505,0.0,0.0,0.0,0.0,0.0,0.0,0.0,2.5501,2.5501,0.0,2.5501,2.5508,2.549,2.5495,2.557,2.5605,2.5601,2.5601,2.5601,2.5601,2.5601,2.5601,2.5601,2.5601,2.6106,2.6983,2.7773,2.8628,2.9505,3.0364,3.0694,3.0694,2.749,2.749,2.7406,2.7144,2.6953,2.6591,2.5924,2.5646,2.5315,2.4805,2.4726,2.4667,2.4449,2.4183,2.3927,0.0,2.3793,2.3865,0.0,2.3985,2.3884,2.3793,2.4015,2.406,2.393,2.406,2.4247,2.4492,0.0,0.0,0.0,2.2368,2.2128,2.1959,2.218,2.2443,2.2748,2.3039,2.337,2.3752,2.3809,2.4105,2.4569,2.467,2.4731,2.4786,2.4886,2.4906,2.4697,2.3585,2.3015,2.2639,2.1691,2.0968,2.0545,2.0829,2.0926,2.1039,2.1324,2.1402,2.1401,2.1524,2.1477,2.1445,2.166,2.1721,2.1794,2.2025,2.2136,2.2278,2.2504,2.2628,2.2786,2.3074,2.3329,0.0,0.0,0.0,0.0,0.0,2.4599,2.4696,0.0,2.5074,0.0,0.0,0.0,0.0,0.0,0.0,0.0,0.0,2.5542,0.0,2.5501,2.5553,2.556,2.5495,2.557,2.5605,2.5601,2.5601,2.5601,2.5601,2.5601,2.5601,2.5601,2.5601,2.6436,2.7696,2.7408,2.8515,3.0243,2.9933,3.0185,3.0694,2.7249,2.7242,2.7125,2.6643,2.6448,2.6114,2.5518,2.5212,2.4975,2.4631,2.4591,2.4591,2.4591,2.4419,0.0,2.4287,2.4287,2.4287,2.4287,2.4376,2.4376,2.4287,2.4476,2.4549,2.4421,2.4308,0.0,2.4343,2.3771,2.3129,2.2467,2.2505,2.2498,2.2457,2.274,2.3031,2.3326,2.3666,2.4021,2.4385,2.4426,2.467,2.5005,2.5005,2.5005,2.5005,2.5005,2.5005,2.4799,2.3519,2.3078,2.2909,2.1826,2.1261,2.1039,2.1291,2.1385,2.1479,2.1721,2.1812,2.1825,2.1943,2.1895,2.188,2.2087,2.2147,2.2186,2.2351,2.2392,2.2446,2.2655,2.2699,2.282,2.3195,2.3403,2.3685,2.4097,0.0,0.0,0.0,0.0,0.0,0.0,2.505,2.5198,0.0,0.0,0.0,0.0,0.0,0.0,2.5501,2.5576,0.0,2.5537,2.5585,2.5585,2.5549,2.5586,2.5598,2.5604,2.5604,2.5604,2.5604,2.5604,2.5593,2.5634,2.5945,2.671,2.7657,2.7796,2.8806,3.0185,2.9972,3.0224,3.0694,2.6758,2.6737,0.0,0.0,2.5711,0.0,2.5434,2.5041,2.475,2.475,2.475,2.475,2.475,2.475,2.475,2.475,0.0,0.0,0.0,2.4635,2.4649,2.4591,2.458,2.4582,2.461,2.4007,2.3769,2.3879,2.3384,2.3118,2.3086,2.2974,2.2912,2.2979,2.3566,2.3824,2.3925,2.4544,2.4802,2.4822,2.4962,2.5005,2.5005,2.5005,2.5005,2.5045,2.5045,2.5033,2.4837,2.381,2.3397,2.3189,2.2152,2.1825,2.1825,2.1825,2.1825,2.1825,2.1855,2.1871,2.1928,2.2181,2.2248,2.2334,2.2642,2.2712,2.2712,2.2712,2.2712,2.2712,2.2712,2.2725,2.291,2.3432,2.3577,2.3808,2.433,0.0,0.0,0.0,0.0,0.0,0.0,2.4975,2.5113,0.0,0.0,0.0,0.0,0.0,2.5523,2.5607,2.5604,2.5627,2.5683,2.5627,2.56,2.5608,2.5603,2.5609,2.5609,2.5609,2.5609,2.5609,2.5609,2.5634,2.5757,2.6574,2.6975,2.7236,2.8787,2.9447,2.9583,3.0402,3.0694,3.0694,0.0,0.0,2.6105,2.5765,2.5998,2.6143,2.5841,2.6031,2.6201,2.6201,2.6201,2.6201,2.6201,2.6201,2.6201,2.6201,2.5591,2.5034,2.462,2.509,2.5147,2.462,2.4348,2.434,2.4586,2.4115,2.3844,2.3824,2.3708,2.34,2.2962,2.2917,2.3135,2.3588,2.3788,2.4141,2.4584,2.4826,2.4946,2.4962,2.4985,2.5005,2.5005,2.5005,2.515,2.5387,2.5513,2.5306,2.4899,2.4182,2.3489,2.2847,2.2353,2.2178,2.2164,2.2124,2.211,2.2153,2.2426,2.2521,2.2588,2.2638,2.2708,2.276,2.2825,2.2838,2.2838,2.2838,2.2838,2.2838,2.2838,2.3028,2.3259,2.3606,2.379,2.404,2.442,2.4491,0.0,0.0,2.4645,2.4753,2.5022,2.5113,2.5219,0.0,0.0,0.0,0.0,2.5506,2.5837,2.6543,2.5997,2.5968,2.6598,2.5923,2.5607,2.5607,2.5594,2.5609,2.5609,2.5609,2.5609,2.5609,2.5609,2.5984,2.6613,2.6807,2.7653,2.8845,2.9253,2.9816,3.0422,3.0616,3.0694,3.0694,2.5814,2.6015,2.6113,2.5676,2.6148,2.6518,2.6313,2.6508,2.6704,2.6704,2.6704,2.6704,2.6704,2.6704,2.6704,2.6704,2.6281,2.5877,2.5577,2.5624,2.5482,2.5133,2.4643,2.4453,2.4645,2.4124,2.3703,2.3374,2.3648,2.3629,2.3326,2.3573,2.3852,2.4177,2.4266,2.4487,2.4802,2.4926,2.5088,2.5227,2.5227,2.5326,2.5497,2.5535,2.5652,2.5854,2.5979,2.5623,2.5013,2.449,2.3799,2.3059,2.2682,2.2563,2.2581,2.2541,2.2527,2.2554,2.2734,2.2829,2.2855,2.2855,2.2863,2.2906,2.2906,2.299,2.3089,2.3089,2.317,2.3224,2.3224,2.3342,2.3529,2.378,2.3923,2.4126,2.4446,2.4549,0.0,2.4692,2.4749,2.4876,2.513,2.5182,2.5274,2.5425,2.5484,0.0,2.5507,2.5534,2.578,2.6235,2.5897,2.5908,2.6296,2.5866,2.5651,2.5651,2.5658,2.5644,2.5644,2.5644,2.5644,2.5664,2.6074,2.65,2.7011,2.7774,2.8616,2.9474,2.9852,3.0289,3.0694,3.0704,3.0694,3.0694,2.5609,2.6013,2.6231,2.5839,2.6361,2.6808,2.6808,2.6901,2.6953,2.6953,2.6953,2.6953,2.6953,2.6953,2.6953,2.6953,2.685,2.6714,2.6559,2.6076,2.5741,2.5578,2.491,2.4602,2.4675,2.4177,2.3655,2.3157,2.3674,2.3909,2.3931,2.4451,2.4695,2.4731,2.489,2.4985,2.4989,2.5107,2.5326,2.5596,2.5596,2.5799,2.6123,2.6193,2.6247,2.6317,2.6454,2.5933,2.5158,2.4829,2.4118,2.3356,2.302,2.2919,2.2919,2.2932,2.297,2.2977,2.2932,2.2906,2.2932,2.2977,2.299,2.3003,2.304,2.3218,2.3383,2.3383,2.3506,2.3639,2.3639,2.3671,2.3749,2.3991,2.405,2.4173,2.4455,0.0,2.4715,2.4738,2.4847,2.5006,2.5203,2.5224,2.5303,2.548,2.5507,2.5496,2.5507,2.5551,2.5587,2.5532,2.5648,2.5661,2.5611,2.5667,2.5699,2.5702,2.57,2.5692,2.5707,2.5707,2.5765,2.5941,2.6684,2.7143,2.748,2.8906,2.9588,2.9768,3.0431,3.0701,3.0697,3.0695,3.0706,3.071,2.6228,2.6019,2.5922,2.6428,2.699,2.7388,2.7388,2.781,2.8137,2.8137,2.8137,2.8137,2.8137,2.8137,2.8137,2.8137,2.7618,2.6868,2.593,2.6179,2.5923,2.4896,2.4269,2.4133,2.4527,2.4431,2.4368,2.4328,2.4426,2.4487,2.4487,2.4899,2.5173,2.5291,2.5649,2.585,2.5906,2.5924,2.5961,2.5998,2.5998,2.607,2.6193,2.6211,2.6437,2.679,2.6871,2.6172,2.5193,2.5202,2.4215,2.2981,2.2992,2.2977,2.3008,2.3057,2.3235,2.3324,2.299,2.2944,2.3052,2.3342,2.3412,2.3452,2.3624,2.37,2.3721,2.3721,2.3753,2.3774,2.3774,2.3901,2.403,2.4069,2.4266,2.4437,2.4491,0.0,2.4734,2.4854,2.4981,2.5157,2.5355,2.5363,2.5412,2.5488,2.5507,2.5499,2.5502,2.5552,2.5614,2.5675,2.5698,2.57,2.5682,2.5682,2.5703,2.57,2.57,2.5692,2.5707,2.5707,2.6097,2.6801,2.6938,2.7807,2.9121,2.9394,2.9938,3.0604,3.0663,3.0701,3.0694,3.0697,3.0704,3.0692,2.6513,2.664,2.673,2.7067,2.7605,2.7984,2.7984,2.821,2.8411,2.8411,2.8411,2.8411,2.8411,2.8411,2.8411,2.8411,2.7828,2.7079,2.6176,2.6016,2.5705,2.5167,2.4558,2.4327,2.4542,2.477,2.4895,2.4934,2.5211,2.5349,2.5349,2.5594,2.5723,2.5797,2.5979,2.6068,2.6104,2.6104,2.6228,2.6436,2.6454,2.6624,2.6841,2.6939,2.7083,2.7289,2.735,2.676,2.5883,2.5491,2.4598,2.3575,2.318,2.3151,2.3283,2.3307,2.34,2.3474,2.3399,2.3411,2.3468,2.3613,2.3664,2.3696,2.3774,2.3888,2.3969,2.3969,2.4086,2.4173,2.4173,2.4248,2.4321,2.4321,2.4479,0.0,0.0,2.4794,2.4936,2.4993,2.5165,2.5298,2.54,2.5397,2.5429,2.5488,2.5507,2.5506,2.5498,2.5556,2.5639,2.5706,2.5696,2.5699,2.57,2.5701,2.5703,2.5703,2.5699,2.5946,2.6391,2.6391,2.6879,2.7737,2.8206,2.8837,2.9585,3.0014,3.0447,3.0801,3.0772,3.0745,3.0742,3.0756,3.0752,3.0755,2.7004,2.7312,2.754,2.768,2.8097,2.8411,2.8411,2.8411,2.8411,2.8411,2.8411,2.8411,2.8411,2.8411,2.8411,2.8411,2.772,2.7086,2.6669,2.5914,2.5425,2.5294,2.4931,2.4755,2.4795,2.5192,2.5387,2.5406,2.5815,2.6015,2.6031,2.6175,2.6245,2.6245,2.6333,2.6367,2.6367,2.6367,2.6573,2.6875,2.6924,2.7152,2.7469,2.7557,2.7617,2.763,2.7672,2.7227,2.6525,2.5957,2.5262,2.4512,2.3784,2.3684,2.3809,2.3618,2.3598,2.3657,2.3774,2.3806,2.3816,2.3858,2.3878,2.3888,2.3949,2.4078,2.4183,2.4183,2.4357,2.45,2.45,2.45,2.4517,2.4532,0.0,0.0,0.0,2.4949,2.5107,2.5111,2.5284,2.5406,2.5397,2.5406,2.5441,2.5495,2.5499,2.5518,2.5539,2.5598,2.565,2.5694,2.5694,2.5699,2.5703,2.57,2.5702,2.57,2.5912,2.6357,2.7018,2.7212,2.7777,2.8635,2.9319,2.9709,2.9924,3.0548,3.08,3.0803,3.0799,3.0801,3.0801,3.0783,3.0771,3.0773,2.8063,2.786,2.768,2.8235,2.8372,2.8411,2.8411,2.8411,2.8411,2.8411,2.8411,2.8411,2.8411,2.8411,2.8411,2.8411,2.7288,2.6707,2.7041,2.6023,2.5194,2.4687,2.497,2.5211,2.5329,2.574,2.5961,2.6034,2.607,2.6087,2.6104,2.6487,2.6657,2.6674,2.7056,2.7218,2.7218,2.7218,2.7266,2.7345,2.736,2.7452,2.7587,2.7602,2.7644,2.7701,2.7701,2.7227,2.6623,2.6823,2.6341,2.56,2.5046,2.4871,2.4737,2.4002,2.3919,2.4029,2.3847,2.3806,2.3847,2.402,2.4087,2.4135,2.4393,2.4465,2.4474,2.4474,2.4491,2.45,2.45,2.45,2.4532,2.466,0.0,0.0,2.4867,2.5005,2.5091,2.5091,2.5274,2.5397,2.5401,2.5456,2.5499,2.5489,2.5495,2.5544,2.568,2.5684,2.5694,2.5703,2.5703,2.5703,2.5703,2.5703,2.5703,2.5702,2.652,2.6947,2.7022,2.7837,2.8674,2.9514,2.9573,3.0021,3.0722,3.0781,3.08,3.0803,3.0799,3.0801,3.0781,3.0739,3.0707,3.0716,2.8323,2.821,2.8122,2.8348,2.8411,2.8411,2.8411,2.8411,2.8411,2.8411,2.8411,2.8411,2.8411,2.8468,2.8621,2.8881,2.7766,2.7243,2.7685,2.6526,2.5744,2.554,2.567,2.5781,2.5817,2.6244,2.6453,2.647,2.6708,2.6842,2.6842,2.699,2.7072,2.7088,2.7234,2.7313,2.7362,2.7362,2.7407,2.7467,2.7513,2.7542,2.7602,2.7644,2.7672,2.773,2.7883,2.7776,2.7498,2.732,2.7042,2.667,2.5973,2.586,2.5871,2.5242,2.47,2.4338,2.4321,2.4266,2.4257,2.433,2.4348,2.4366,2.4482,2.45,2.45,2.45,2.45,2.4534,2.4615,2.4613,2.4668,2.479,0.0,2.4962,2.5018,2.5173,2.5289,2.5279,2.5348,2.5425,2.5456,2.5484,2.5503,2.5498,2.5993,2.6121,2.5724,2.5698,2.5702,2.5703,2.5703,2.5703,2.5703,2.5703,2.5976,2.6501,2.683,2.7569,2.8619,2.8968,2.9552,3.0333,3.0333,3.0528,3.08,3.08,3.08,3.0801,3.079,3.0793,3.0795,3.082,3.0819,3.0839,2.8411,2.8411,2.8411,2.8411,2.8411,2.8411,2.8411,2.8541,2.8621,2.8621,2.8748,2.8842,2.8858,2.8951,2.9143,2.9435,2.8538,2.807,2.8274,2.7151,2.635,2.6105,2.6228,2.628,2.628,2.6674,2.6875,2.6875,2.7153,2.7299,2.7299,2.7299,2.7299,2.7299,2.7299,2.7346,2.7392,2.7392,2.7436,2.7542,2.7587,2.76,2.763,2.7686,2.7742,2.784,2.8034,2.8152,2.82,2.7973,2.7906,2.7783,2.7057,2.6793,2.6679,2.633,2.5778,2.5264,2.5047,2.493,2.4832,2.4581,2.4498,2.4498,2.45,2.4524,2.4557,2.4557,2.4596,2.4657,2.4738,2.476,2.4818,2.4974,2.5047,2.5127,2.5194,2.5303,2.5404,2.5397,2.5425,2.5456,2.5507,2.5751,2.5796,2.5546,2.633,2.6509,2.5733,2.5702,2.582,2.6094,2.6113,2.623,2.6504,2.623,2.6542,2.7419,2.769,2.8449,2.9617,2.9888,3.0296,3.08,3.08,3.08,3.08,3.08,3.08,3.08,3.08,3.08,3.0803,3.0871,3.0892,3.0871,2.8411,2.8411,2.8411,2.8411,2.8411,2.8411,2.8411,2.8803,2.9097,2.9097,2.9506,2.9821,2.9881,2.9903,2.9946,3.0095,2.9547,2.9059,2.8721,2.7827,2.6924,2.6141,2.6487,2.6708,2.6708,2.7088,2.7299,2.7299,2.7299,2.7299,2.7299,2.7299,2.7299,2.7299,2.7299,2.7346,2.7392,2.7392,2.7483,2.7617,2.7617,2.7644,2.7716,2.7716,2.7869,2.8098,2.8116,2.8272,2.8554,2.8892,2.9003,2.8901,2.8354,2.769,2.7091,2.7091,2.7091,2.6895,2.6027,2.5794,2.558,2.4717,2.4503,2.4495,2.449,2.4615,2.4707,2.4707,2.4806,2.491,2.4917,2.4917,2.4993,2.519,2.5171,2.5184,2.5393,2.5427,2.5421,2.5421,2.5476,2.5507,2.5511,2.6288,2.6468,2.5656,2.6397,2.6555,2.5762,2.5703,2.6113,2.6973,2.7012,2.7422,2.8301,2.7441,2.7441,2.832,2.9199,2.9607,2.9644,3.0519,3.0865,3.08,3.08,3.08,3.08,3.08,3.08,3.08,3.08,3.08,3.0801,3.0886,3.0864,3.0803,2.8411,2.8411,2.8411,2.8411,2.8677,2.8897,2.8897,2.9296,2.9595,2.9595,2.9705,2.9821,2.9881,2.9983,3.0197,3.0636,3.0121,2.9391,2.8562,2.7735,2.7202,2.6957,2.7072,2.7121,2.7121,2.7234,2.7299,2.7299,2.7299,2.7299,2.7299,2.7299,2.733,2.7378,2.7378,2.7544,2.7832,2.7832,2.7982,2.8219,2.8219,2.8246,2.8259,2.8259,2.8311,2.8415,2.8639,2.8779,2.8885,2.9189,2.8915,2.8307,2.7596,2.6822,2.6195,2.6248,2.5864,2.5381,2.5213,2.5174,2.5081,2.4669,2.4642,2.4708,2.4719,2.4811,2.4908,2.4908,2.5386,2.5857,2.6,2.6477,2.6926,2.7064,2.7128,2.7166,2.7223,2.723,2.7228,2.7228,2.6706,2.6359,2.6414,2.6094,2.5839,2.5673,2.591,2.6484,2.7461,2.6934,2.7012,2.7871,2.791,2.832,2.9199,2.8359,2.8359,2.9218,2.947,2.9917,3.0518,3.0729,3.0822,3.08,3.08,3.08,3.08,3.08,3.08,3.08,3.08,3.08,3.0801,3.0886,3.0887,3.0866,2.8411,2.8411,2.8468,2.8629,2.892,2.9166,2.9348,2.9793,3.0097,3.0102,3.0272,3.0439,3.0551,3.0649,3.0848,3.1206,3.0653,2.9861,2.8903,2.8144,2.7592,2.7299,2.7299,2.7299,2.7299,2.7299,2.7299,2.7299,2.7299,2.7299,2.7297,2.7436,2.7511,2.7557,2.7704,2.7915,2.8156,2.8156,2.8285,2.8504,2.8504,2.8504,2.8504,2.8504,2.8578,2.8725,2.8927,2.9071,2.9181,2.9339,2.8891,2.8194,2.7718,2.7006,2.6367,2.6467,2.6153,2.571,2.5504,2.5456,2.5347,2.4901,2.4835,2.4889,2.4888,2.5241,2.5582,2.5582,2.6291,2.696,2.7077,2.7491,2.7845,2.7937,2.7966,2.7874,2.7535,2.7495,2.7368,2.7039,2.6544,2.6248,2.6272,2.6148,2.6242,2.6692,2.6737,2.7187,2.8242,2.7793,2.791,2.8789,2.8809,2.9238,3.0117,2.959,2.959,3.0116,3.0115,3.0386,3.0891,3.0866,3.0823,3.08,3.08,3.08,3.08,3.08,3.08,3.08,3.08,3.08,3.0801,3.0844,3.0865,3.0865,2.8411,2.842,2.8597,2.902,2.9166,2.9371,2.9793,3.0267,3.0584,3.0645,3.1044,3.1389,3.1579,3.1598,3.1635,3.18,3.1145,3.0386,2.9661,2.8851,2.8092,2.742,2.7333,2.7299,2.7299,2.7299,2.7299,2.7299,2.7299,2.7297,2.7345,2.7659,2.7818,2.7858,2.8183,2.8363,2.8458,2.8458,2.8491,2.8578,2.8578,2.8578,2.8578,2.8578,2.8773,2.9026,2.9026,2.9192,2.9384,2.9319,2.8904,2.838,2.823,2.7693,2.7129,2.7176,2.7183,2.7042,2.6384,2.6205,2.6039,2.5329,2.5082,2.5034,2.5037,2.5744,2.6414,2.6414,2.72,2.7874,2.7874,2.7951,2.7999,2.8006,2.8008,2.7728,2.6934,2.6822,2.6555,2.5828,2.5657,2.5643,2.5732,2.652,2.7376,2.8242,2.8301,2.832,2.8418,2.8418,2.8828,2.9687,2.9726,3.0098,3.0898,3.0898,3.0898,3.0898,3.0898,3.0896,3.0894,3.0889,3.0864,3.08,3.08,3.08,3.08,3.08,3.08,3.08,3.08,3.0801,3.0801,3.08,3.0801,3.0822,2.8411,2.87,2.8974,2.9074,2.9711,3.023,3.033,3.0804,3.1123,3.1142,3.1329,3.15,3.1579,3.1598,3.1635,3.18,3.1145,3.0645,3.0437,2.9161,2.8334,2.8161,2.7609,2.7299,2.7299,2.7299,2.7299,2.7299,2.7299,2.7405,2.763,2.7745,2.7943,2.821,2.8311,2.8547,2.8868,2.8868,2.8996,2.9192,2.9192,2.9192,2.9192,2.9192,2.9243,2.9315,2.9315,2.9349,2.9319,2.8792,2.8584,2.8326,2.7009,2.6591,2.6447,2.578,2.5596,2.5582,2.5524,2.5517,2.5499,2.5431,2.5391,2.5364,2.5259,2.5471,2.5717,2.5717,2.6391,2.6988,2.6988,2.7533,2.8002,2.7991,2.8006,2.7924,2.7735,2.772,2.7663,2.7549,2.6926,2.6818,2.7535,2.7843,2.8085,2.8281,2.8301,2.8594,2.9277,2.9316,2.9726,3.0586,3.0625,3.0703,3.0898,3.0898,3.0898,3.0898,3.0897,3.0895,3.0894,3.0847,3.0803,3.08,3.08,3.08,3.08,3.08,3.08,3.08,3.08,3.0823,3.0866,3.0822,3.0823,3.0887,2.8724,2.9113,2.9506,2.9733,3.0166,3.058,3.0801,3.11,3.1315,3.1387,3.1483,3.1595,3.169,3.169,3.1727,3.18,3.1438,3.1094,3.0731,2.9592,2.8765,2.842,2.7678,2.736,2.7481,2.7496,2.7496,2.7496,2.7496,2.7627,2.794,2.8143,2.8337,2.8541,2.8785,2.8996,2.9189,2.9189,2.9272,2.9396,2.9396,2.9396,2.9396,2.9396,2.9396,2.9396,2.9396,2.9453,2.9495,2.9201,2.8947,2.8581,2.7709,2.7223,2.6821,2.6031,2.5817,2.5742,2.5471,2.5397,2.541,2.548,2.5507,2.5476,2.541,2.5745,2.6068,2.6068,2.6745,2.7329,2.7329,2.7701,2.7991,2.7991,2.7991,2.7855,2.7445,2.74,2.7442,2.7485,2.7109,2.722,2.8156,2.8651,2.8926,2.8926,2.9316,2.9746,3.0195,3.0215,3.043,3.0898,3.0898,3.0898,3.0898,3.0898,3.0898,3.0898,3.0897,3.0895,3.0894,3.0868,3.0823,3.08,3.08,3.08,3.08,3.08,3.08,3.08,3.08,3.0822,3.0845,3.0801,3.0844,3.0907,2.9212,2.9595,3.0032,3.0435,3.0559,3.074,3.1151,3.1291,3.137,3.1498,3.1578,3.1671,3.18,3.18,3.18,3.18,3.18,3.156,3.101,3.0231,2.9469,2.879,2.8042,2.7679,2.7757,2.7771,2.7771,2.7771,2.7771,2.7957,2.8295,2.8566,2.8778,2.8902,2.9254,2.9396,2.9396,2.9396,2.9396,2.9396,2.9396,2.9396,2.9396,2.9396,2.9396,2.9407,2.944,2.9589,2.9773,2.9894,2.9591,2.9117,2.8983,2.8447,2.776,2.704,2.6834,2.6718,2.609,2.582,2.57,2.57,2.5604,2.5507,2.5507,2.6029,2.6493,2.6493,2.7078,2.7565,2.7565,2.7565,2.7565,2.7565,2.7578,2.7373,2.6808,2.6776,2.6862,2.702,2.7228,2.767,2.8457,2.9316,2.9824,2.9824,3.0488,3.0898,3.0898,3.0898,3.0898,3.0898,3.0898,3.0898,3.0898,3.0898,3.0898,3.0897,3.0897,3.0896,3.0893,3.0889,3.0845,3.08,3.08,3.08,3.08,3.08,3.08,3.08,3.08,3.0801,3.0822,3.0822,3.0844,3.0866,2.9722,3.0097,3.0435,3.0497,3.0838,3.1131,3.119,3.1346,3.1479,3.1498,3.1651,3.1781,3.18,3.18,3.18,3.18,3.18,3.1894,3.2074,3.139,3.0733,3.0237,2.9449,2.8731,2.8065,2.8047,2.8047,2.8047,2.8047,2.8255,2.8626,2.867,2.889,2.924,2.9355,2.9396,2.9396,2.9396,2.9396,2.9396,2.9396,2.9396,2.9396,2.9396,2.9396,2.9409,2.9598,2.9792,2.9969,3.004,3.0087,2.9988,2.9285,2.9068,2.8902,2.8066,2.78,2.7785,2.7696,2.7116,2.6551,2.6551,2.601,2.5507,2.5507,2.5584,2.5662,2.5662,2.5762,2.584,2.584,2.584,2.584,2.584,2.5838,2.6055,2.6705,2.6834,2.717,2.7923,2.8745,2.9277,2.9414,3.0215,3.0723,3.0723,3.082,3.0898,3.0898,3.0898,3.0898,3.0898,3.0898,3.0898,3.0897,3.0898,3.0898,3.0895,3.0896,3.0895,3.0908,3.0844,3.0801,3.08,3.08,3.08,3.08,3.08,3.08,3.08,3.08,3.0843,3.0887,3.0887,3.0864,3.0801,3.023,3.058,3.0898,3.0945,3.1078,3.121,3.1252,3.1404,3.15,3.1557,3.1707,3.18,3.18,3.18,3.1874,3.2055,3.2073,3.2214,3.2553,3.1893,3.1193,3.0532,2.974,2.902,2.8378,2.8373,2.8464,2.867,2.8507,2.862,2.8968,2.9026,2.9149,2.9355,2.9386,2.9396,2.9396,2.9396,2.9396,2.9396,2.9396,2.9396,2.9417,2.9472,2.9531,2.958,2.9801,2.9996,3.0177,3.0203,3.0339,3.0413,3.0046,2.9979,2.9843,2.8977,2.8726,2.8629,2.8126,2.772,2.7426,2.7426,2.7155,2.6904,2.6904,2.6904,2.6633,2.5685,2.5507,2.5507,2.5507,2.5901,2.6223,2.6223,2.6671,2.7138,2.753,2.7605,2.7968,2.8863,2.9785,3.0332,3.0332,3.0664,3.0898,3.0898,3.0898,3.0898,3.0898,3.0898,3.0898,3.0898,3.0898,3.0898,3.0897,3.0898,3.0898,3.0894,3.0895,3.0894,3.0907,3.0866,3.0843,3.08,3.08,3.08,3.08,3.08,3.08,3.08,3.08,3.0822,3.0844,3.0844,3.0823,3.08]}]]